GFSMW_sfc_thetae_000.txt.gz
Theta_e
305 306 308 312 315 317 317 321 319 310 310 310 308 306 301 300 298 298 298 298 297 297 296 296 295 296 294 292 293 293 293 293 293 292 291 294 294 292 293 294 293 295 294
303 306 310 312 315 317 318 318 314 310 311 309 305 304 301 299 298 296 295 295 295 296 296 294 294 293 293 291 291 291 291 292 292 289 289 287 290 292 293 292 293 291 293
303 305 309 311 313 313 314 315 312 311 310 308 306 303 302 300 297 295 293 293 294 294 294 293 292 292 291 290 289 289 289 288 290 290 289 286 284 288 290 290 290 291 291
303 305 308 307 309 309 310 311 311 310 308 307 304 302 299 297 297 296 293 292 293 293 293 292 291 290 290 288 288 290 288 288 286 289 292 289 288 284 283 287 289 288 290
304 306 308 308 307 307 307 308 308 308 306 304 302 300 299 298 297 294 291 290 290 291 291 290 289 289 289 287 287 287 286 287 286 287 287 286 286 286 284 282 284 288 289
303 305 305 306 304 303 303 304 305 303 303 302 300 300 297 295 293 291 290 290 289 289 289 289 288 287 287 287 287 286 285 285 285 285 285 286 284 284 283 282 283 283 286
303 304 304 304 301 300 300 301 301 299 300 299 298 297 294 292 290 289 289 288 287 287 287 287 286 286 286 286 286 285 284 284 284 283 284 285 285 285 285 284 282 281 284
304 304 304 302 301 301 299 299 298 296 296 295 293 291 291 290 289 288 288 287 286 286 286 286 285 285 285 285 284 284 284 284 283 282 283 283 284 285 285 283 282 280 281
303 303 303 302 301 299 298 298 296 294 293 291 290 289 288 288 287 286 286 286 286 288 285 284 284 284 284 284 283 283 283 283 283 282 282 282 283 283 284 284 284 282 278
302 303 303 302 301 299 297 295 294 293 290 289 288 287 287 286 286 285 285 285 284 284 284 284 283 283 283 283 282 282 283 282 282 283 281 281 282 283 284 284 284 283 281
302 303 303 302 299 297 295 294 292 291 289 287 286 285 285 285 285 284 284 284 284 283 283 283 283 283 283 283 282 282 282 282 281 281 281 282 282 283 283 284 283 283 282
302 303 303 300 298 296 294 292 290 289 287 286 285 285 284 284 284 283 283 284 283 283 283 283 283 283 283 283 282 281 281 281 280 281 281 282 284 282 282 283 282 282 283
300 301 300 299 297 295 293 291 289 287 286 286 285 284 283 283 283 283 283 284 283 283 283 283 283 283 283 282 282 282 281 281 281 281 281 281 281 281 282 282 282 283 284
301 301 299 297 296 294 292 289 287 286 285 285 284 283 283 283 283 283 283 284 283 283 283 283 282 282 282 282 282 282 281 281 282 282 282 281 281 281 282 283 283 283 281
300 300 298 296 295 293 290 288 286 285 285 284 283 283 283 283 283 284 284 284 283 283 282 282 281 281 282 284 285 284 282 281 280 281 281 282 284 287 286 284 283 282 282
300 299 298 296 294 292 289 287 285 284 285 284 283 284 284 284 284 283 283 282 282 281 281 280 280 280 283 288 289 288 283 281 279 279 280 281 285 284 288 288 288 287 283
300 299 297 296 293 291 288 285 284 284 284 283 283 283 284 283 283 282 282 281 280 279 280 280 279 279 279 288 288 289 283 280 279 280 280 281 283 284 282 285 287 287 287
299 297 295 292 290 288 286 284 284 283 283 283 283 283 284 282 282 281 280 279 279 279 279 279 279 278 280 286 287 288 281 279 279 280 280 280 280 282 283 283 282 283 281
294 293 292 290 288 286 285 284 283 282 282 282 282 283 283 282 280 279 278 279 279 278 278 279 278 277 277 285 286 285 281 280 279 280 280 281 281 285 287 284 282 279 278
290 288 287 287 285 283 284 283 282 281 281 282 282 281 281 280 279 278 278 278 278 278 279 278 277 280 276 282 286 285 281 279 279 280 281 285 284 287 288 282 279 276 276
287 287 286 284 282 282 283 281 280 280 281 281 281 280 280 279 278 278 278 277 277 277 276 276 276 276 277 278 285 286 282 281 281 281 281 281 286 286 285 284 277 278 281
286 285 283 282 282 282 282 279 279 279 280 280 280 279 278 279 280 277 277 276 276 275 275 275 275 277 277 282 284 286 286 286 282 282 281 283 285 284 283 281 283 283 281
284 284 282 281 280 280 280 278 278 279 279 278 277 277 277 278 277 276 276 276 275 275 275 277 277 277 279 277 284 285 286 285 282 282 284 283 282 281 279 281 281 281 276
283 283 281 279 278 278 278 278 278 279 278 277 276 276 276 277 276 277 277 276 275 275 277 277 277 277 278 278 280 281 280 284 283 283 278 280 280 280 279 278 278 277 277
283 282 280 278 277 277 277 278 278 277 276 275 275 275 276 275 275 276 276 277 276 279 278 277 277 277 277 279 284 283 282 282 282 281 277 276 275 274 275 275 276 276 276
283 281 279 278 276 277 277 277 277 277 275 275 276 276 276 275 276 275 275 281 282 283 283 283 281 280 283 284 284 285 284 284 283 277 274 273 274 274 274 274 274 275 276

GFSMW_sfc_thetae_003.txt.gz
Theta_e
302 305 307 310 313 314 314 323 319 311 311 309 307 305 302 301 299 299 297 296 296 296 295 294 294 293 292 290 290 290 290 290 291 289 290 291 292 291 290 291 290 290 292
302 303 305 310 314 314 315 315 310 310 311 310 304 304 302 299 295 294 294 294 295 295 294 293 292 291 290 289 288 289 288 288 290 288 287 286 288 290 291 289 291 289 291
302 302 305 310 312 313 314 309 308 308 308 305 304 302 300 297 293 292 292 292 293 293 293 291 291 290 289 288 287 287 286 285 287 288 286 282 282 285 287 288 288 289 288
302 303 307 309 311 312 312 309 309 308 306 306 304 301 296 294 294 292 291 291 292 291 291 290 289 288 288 286 286 288 286 285 284 286 289 287 286 282 281 285 287 286 288
303 304 308 311 311 309 310 309 309 307 304 302 302 299 297 296 294 290 289 289 289 290 290 289 288 287 287 286 285 284 284 285 284 284 284 284 284 284 282 279 282 286 286
302 304 306 307 306 306 308 308 307 304 303 301 299 299 297 294 291 289 288 288 288 288 288 288 286 286 285 285 285 284 283 283 283 283 283 283 282 281 280 280 281 280 283
301 304 305 306 304 304 305 306 305 302 300 299 299 298 296 294 291 289 289 287 287 286 286 286 285 284 284 285 284 283 283 283 282 281 282 283 283 283 283 281 280 279 281
302 305 306 305 304 302 303 304 303 299 299 298 297 295 293 292 290 289 288 287 286 286 285 285 284 284 284 283 283 283 283 283 282 281 281 282 282 283 282 281 279 277 279
302 304 304 302 300 300 299 300 299 295 295 294 291 290 289 289 287 286 286 286 285 287 284 284 283 283 283 283 282 282 282 281 281 281 281 280 282 282 282 282 282 279 276
302 303 301 299 299 297 295 295 296 294 291 289 289 288 287 286 286 285 285 284 284 284 283 283 283 283 283 282 282 281 282 281 281 282 280 280 281 281 282 282 282 282 280
301 301 300 299 297 295 294 292 292 290 288 287 286 285 285 285 284 284 283 283 283 283 283 283 282 282 282 282 281 281 282 281 281 280 280 281 281 281 282 282 282 281 281
301 301 300 297 296 294 292 290 289 288 286 285 285 284 284 284 283 283 283 283 283 283 282 282 282 282 282 282 281 280 281 280 280 280 280 281 283 280 280 281 281 281 282
300 299 298 297 295 293 291 289 288 286 285 285 284 283 283 283 282 282 283 283 283 282 282 282 281 282 282 281 281 281 281 280 280 280 280 280 280 279 280 280 281 282 284
300 299 297 295 294 293 290 288 286 286 285 285 284 283 283 283 282 283 283 283 282 282 281 281 281 281 281 281 281 282 281 280 281 281 281 280 280 280 280 281 282 283 281
299 299 296 295 293 291 288 287 286 285 285 284 283 283 283 283 283 283 283 282 282 281 281 281 281 280 281 283 284 283 281 280 279 279 280 281 283 287 286 284 283 282 281
299 298 297 295 292 290 287 286 285 284 284 283 283 283 283 283 283 282 282 281 280 280 281 280 279 279 282 287 289 287 282 279 278 278 279 280 283 283 287 287 287 286 283
298 297 296 295 291 289 287 284 284 284 283 283 283 283 284 283 282 281 281 280 279 279 279 279 278 278 278 287 288 288 281 279 278 280 280 280 282 283 281 284 287 287 288
298 296 294 291 289 286 285 284 284 283 283 282 283 283 283 282 281 280 279 278 278 278 278 278 278 277 279 286 287 287 280 279 278 279 279 279 279 281 283 284 283 281 280
296 294 292 289 287 285 284 283 282 282 282 282 282 283 282 281 280 278 277 278 277 277 278 278 277 276 277 285 286 285 279 279 278 279 279 280 281 285 288 283 279 278 278
291 289 288 287 285 283 284 283 281 281 281 282 281 281 280 279 278 277 277 277 277 278 277 277 277 279 276 282 285 285 281 278 279 280 280 285 284 287 287 281 278 275 276
286 287 287 285 282 282 283 281 280 280 280 281 280 280 279 278 277 277 276 276 276 276 275 276 275 275 277 278 285 286 282 281 281 280 280 280 285 285 285 284 277 278 282
285 285 284 282 281 282 282 280 279 279 279 279 279 277 277 279 278 276 276 275 275 274 274 274 275 277 276 282 284 286 286 286 280 280 280 282 284 284 283 281 282 283 281
283 283 282 280 280 280 281 278 277 278 278 277 276 276 277 277 277 275 275 275 275 274 274 277 276 277 278 277 283 285 286 285 283 281 283 283 282 281 279 281 282 281 275
282 282 281 279 277 278 278 277 278 278 277 275 275 276 276 276 275 277 277 275 275 274 277 277 276 276 277 278 279 280 280 284 282 282 276 280 279 280 279 277 277 276 276
282 281 280 278 276 276 276 277 277 277 275 275 275 275 276 274 274 276 275 277 276 277 277 277 277 276 276 279 283 283 282 281 282 281 276 275 274 274 274 275 275 275 276
281 279 278 277 275 276 276 276 276 276 275 275 276 276 276 274 275 274 274 280 281 282 282 282 281 279 282 283 284 285 284 283 282 277 274 273 273 273 273 273 274 274 275

GFSMW_sfc_thetae_006.txt.gz
Theta_e
305 304 305 308 312 313 320 326 323 315 312 312 309 307 304 301 300 299 299 298 295 295 294 293 292 291 290 288 288 288 287 287 289 287 288 290 290 290 290 288 289 288 289
300 303 304 307 311 311 317 320 317 312 313 314 309 305 302 298 297 297 296 294 294 294 293 292 290 289 288 287 286 286 286 286 287 285 285 283 286 287 289 287 288 286 289
301 301 302 306 310 310 313 313 311 312 311 305 301 299 298 296 295 294 292 292 292 292 291 290 289 288 287 286 285 285 285 284 285 286 284 280 279 283 286 286 286 286 286
300 301 302 306 309 310 310 308 308 310 307 306 303 299 296 295 294 290 290 290 291 290 290 289 288 287 287 285 285 286 284 284 282 284 287 284 284 280 280 283 285 284 286
302 301 303 308 310 310 306 307 308 308 306 307 304 301 297 295 291 289 288 288 288 289 289 288 287 286 286 284 284 283 282 283 283 282 282 282 282 282 280 277 280 283 284
300 301 304 308 308 308 306 307 308 306 305 304 302 300 297 292 289 287 287 287 287 287 287 287 285 285 284 284 283 283 282 282 282 282 282 282 280 280 279 277 279 279 281
298 301 305 308 307 307 306 307 309 304 302 300 298 299 295 292 289 288 287 286 286 285 285 285 284 283 283 284 283 283 282 282 281 280 281 282 282 282 281 280 279 278 280
298 302 306 309 308 307 306 308 307 302 300 298 296 295 293 292 289 289 287 286 285 285 284 284 283 283 283 283 282 282 282 281 281 280 280 281 281 282 281 280 278 276 277
298 302 305 307 306 306 306 305 303 299 298 296 294 292 291 290 289 287 286 285 285 286 283 283 283 282 282 282 281 281 281 280 280 280 280 280 281 281 281 281 280 278 275
298 302 303 301 302 302 299 300 300 298 294 292 291 289 287 287 286 285 284 284 283 283 283 282 282 282 282 281 281 281 281 280 281 282 280 279 280 281 281 281 281 280 278
299 302 301 300 297 296 296 295 294 292 290 288 287 286 285 285 284 283 283 283 282 282 282 282 282 282 281 281 280 280 281 280 280 280 280 280 280 280 280 280 280 280 280
299 299 297 297 296 294 293 291 290 289 287 286 286 285 285 283 283 282 282 282 282 282 282 282 282 281 281 280 279 280 280 280 280 280 280 280 282 280 280 280 279 280 280
297 295 296 295 294 291 290 288 288 286 285 285 285 284 283 282 282 282 282 282 282 281 281 281 281 281 281 280 280 280 280 280 280 279 279 279 279 278 279 279 279 280 282
297 296 295 294 292 290 288 287 285 285 285 285 284 283 282 282 282 282 282 282 281 281 281 281 280 280 280 280 280 282 281 280 280 279 279 279 279 279 279 280 280 282 280
297 296 294 292 290 288 286 285 285 284 285 284 283 283 282 282 282 282 282 281 281 280 281 280 280 279 280 282 283 283 281 279 278 278 279 280 282 286 285 283 281 281 280
298 297 295 292 290 288 286 285 284 284 285 284 282 282 283 283 282 281 281 281 280 280 280 279 278 278 281 286 288 287 281 279 278 277 278 279 283 282 287 287 287 286 284
298 296 295 293 290 287 286 284 283 284 283 283 282 283 283 282 281 280 280 280 279 278 278 277 277 277 277 286 288 288 281 279 278 279 279 280 282 283 280 284 287 286 286
298 296 294 290 287 286 284 283 283 283 283 282 282 283 282 281 280 279 279 278 277 277 277 277 276 276 278 286 287 287 280 279 278 279 278 278 279 280 283 283 283 279 279
297 294 293 289 286 285 284 283 282 282 282 281 281 282 281 280 279 278 277 277 276 276 276 276 276 275 276 284 286 285 280 279 279 279 279 279 280 285 287 283 279 278 278
292 290 288 286 284 283 284 283 281 281 281 281 281 280 280 279 277 277 276 276 275 277 277 277 276 279 275 282 285 285 281 278 279 280 280 284 284 286 287 281 279 275 276
287 287 287 284 282 283 283 281 281 280 280 280 279 278 278 277 276 276 275 274 274 275 274 275 275 275 277 278 285 286 282 280 281 280 280 281 285 286 285 284 277 278 282
285 285 283 281 281 282 283 280 278 278 279 278 277 277 277 279 277 275 274 274 274 274 274 274 275 277 276 282 283 285 286 285 281 281 280 280 284 284 283 281 282 283 281
283 283 282 280 280 280 281 278 276 278 277 276 276 276 276 276 276 274 274 275 274 274 274 276 275 276 278 277 283 285 285 285 283 281 283 283 282 281 279 280 281 280 275
282 282 281 279 277 278 277 277 277 277 276 275 275 275 276 274 274 276 276 275 274 274 276 276 276 275 277 277 279 279 280 284 281 282 277 280 279 279 278 277 276 275 276
281 281 279 278 276 277 276 276 276 276 275 274 275 275 275 273 273 275 274 277 275 276 277 276 276 276 276 278 283 282 282 280 281 281 276 274 274 273 274 274 275 275 275
280 279 278 277 275 276 275 275 276 275 275 274 275 276 275 274 275 274 274 279 281 282 282 282 280 279 281 283 283 284 283 283 282 277 273 272 273 272 273 273 273 274 274

GFSMW_sfc_thetae_009.txt.gz
Theta_e
309 311 310 311 313 318 322 329 329 325 321 318 312 310 306 304 302 302 301 300 299 300 299 298 297 296 295 294 294 295 293 293 294 293 295 296 297 299 300 296 297 294 295
308 309 308 310 313 317 323 327 327 320 321 319 318 312 305 301 300 299 298 298 299 299 298 297 295 295 294 293 293 293 293 292 293 290 291 289 293 295 294 295 295 293 294
305 308 307 309 313 316 321 324 320 319 319 313 308 301 299 298 297 296 296 296 298 297 296 295 294 294 294 292 292 292 291 290 291 291 290 287 286 288 292 293 294 292 291
305 308 307 307 312 316 320 319 316 318 312 311 307 304 304 300 298 296 295 295 296 295 294 294 293 293 292 291 291 291 291 291 288 291 290 290 289 285 284 290 290 291 289
305 306 307 309 311 315 316 315 314 313 309 309 309 304 300 299 295 294 294 293 293 294 293 293 292 291 291 290 290 290 290 290 289 288 288 288 288 289 286 282 286 288 289
304 306 307 308 312 314 312 312 312 311 309 308 306 303 297 295 293 293 292 292 292 292 291 291 291 290 290 290 290 289 289 289 288 288 288 287 286 285 284 283 284 284 286
302 302 305 308 311 311 310 311 311 308 308 307 304 301 298 297 295 293 292 291 290 290 290 290 289 289 289 289 289 289 288 288 288 287 287 287 287 287 285 284 283 282 285
301 302 305 309 311 311 310 311 310 306 306 303 302 300 297 296 295 294 292 292 291 290 289 289 289 288 288 288 288 289 289 288 288 286 287 287 287 287 286 285 283 281 282
301 302 305 309 311 310 310 311 309 306 302 300 298 295 295 295 294 292 292 291 290 288 288 288 288 288 288 288 287 288 287 287 287 287 287 286 287 287 287 286 285 282 278
299 302 305 309 310 311 309 310 308 303 300 298 298 296 294 294 292 291 290 289 288 288 287 287 287 287 287 287 287 287 287 286 287 287 286 286 286 286 286 286 286 285 282
299 302 305 307 308 307 307 306 301 298 296 296 294 293 291 290 290 289 288 287 287 287 287 287 286 286 286 286 286 286 286 286 286 286 285 285 285 285 285 286 285 284 283
299 303 302 301 302 303 302 302 298 295 294 292 291 290 289 288 287 287 287 287 286 287 286 286 286 286 285 285 285 285 286 285 284 284 284 284 284 284 284 284 284 284 284
297 297 298 300 299 298 296 296 294 290 290 290 289 288 287 287 286 286 286 286 286 285 286 286 285 284 284 284 284 285 286 285 284 284 283 283 283 282 283 283 283 284 284
296 297 297 296 296 294 293 292 289 289 288 288 288 287 286 286 286 286 285 285 285 285 285 285 284 284 283 284 284 286 286 285 284 284 283 283 282 282 283 283 284 284 283
296 296 295 293 291 290 290 289 288 288 288 287 286 285 285 286 285 285 284 284 285 284 284 284 283 283 283 284 287 287 286 285 284 284 283 284 284 286 286 285 284 284 284
297 296 294 292 291 290 289 288 287 286 287 286 285 285 285 285 284 284 284 284 284 283 283 282 282 282 282 286 288 288 286 285 283 283 283 284 284 284 287 287 287 287 285
297 295 293 292 289 288 287 286 286 286 286 285 285 285 285 284 283 283 283 283 282 282 282 281 281 281 281 286 288 288 286 284 284 283 283 283 284 285 283 285 287 288 287
297 295 293 290 288 288 286 285 286 285 285 285 285 285 284 282 282 282 282 282 282 281 281 280 280 280 281 285 286 287 285 284 284 284 283 283 283 284 284 285 285 284 283
298 295 293 289 288 286 286 285 285 284 284 284 284 283 283 282 282 281 281 281 281 280 280 280 280 280 281 284 285 286 284 283 283 284 284 283 283 285 287 285 282 281 281
294 291 289 288 286 285 286 285 284 284 283 283 282 283 282 282 281 280 280 279 280 280 280 280 280 281 280 283 285 285 284 282 282 283 284 284 284 286 287 283 281 278 279
289 289 288 286 284 285 285 283 283 282 282 282 281 281 281 280 280 279 279 279 279 279 278 279 280 280 281 281 284 285 284 283 283 282 282 283 285 286 285 284 280 279 283
286 286 284 283 284 285 284 282 280 281 281 281 280 280 280 280 279 278 278 278 278 278 278 278 279 280 280 282 283 285 285 285 282 282 282 283 285 284 283 281 282 283 282
284 284 283 282 282 283 283 280 279 280 279 279 278 279 279 279 279 278 278 278 278 277 278 278 278 279 280 280 283 284 285 285 284 283 283 283 282 281 280 280 281 281 277
282 283 282 280 279 280 280 279 279 279 279 278 278 279 278 277 277 279 279 278 278 277 278 278 278 278 278 279 281 282 283 284 283 283 281 281 280 279 279 278 278 277 277
282 282 281 279 278 278 278 278 278 279 277 277 277 278 277 277 277 278 278 279 279 279 279 279 278 277 277 279 283 283 283 282 282 281 278 276 275 275 275 276 276 276 276
281 280 279 278 277 277 277 277 278 278 277 277 278 278 277 277 277 277 277 280 281 281 281 281 280 280 281 282 283 284 283 283 282 278 275 274 274 274 274 274 274 275 276

GFSMW_sfc_thetae_012.txt.gz
Theta_e
315 317 319 321 321 321 322 324 329 334 336 334 330 323 319 315 312 309 307 305 304 305 307 305 303 303 301 299 299 299 298 297 298 298 301 302 302 304 304 300 301 299 298
311 314 316 318 318 320 323 326 331 334 335 333 332 328 321 315 311 303 302 301 302 304 305 304 302 301 300 299 298 298 298 297 297 294 296 295 298 300 300 300 298 297 297
307 311 313 316 318 320 323 327 331 332 332 332 329 321 311 306 300 298 298 299 301 302 303 302 301 300 300 298 297 297 296 295 296 295 294 292 292 292 298 297 297 296 295
306 308 311 313 316 319 324 329 331 330 331 329 319 314 314 310 302 299 297 298 300 302 301 300 300 299 298 297 296 295 295 296 293 296 293 294 292 289 289 295 295 295 293
306 307 309 311 315 319 323 329 329 328 327 321 320 321 317 311 301 297 296 297 300 300 299 299 298 297 297 296 295 295 295 295 294 293 292 293 292 292 289 287 291 293 294
307 308 311 312 314 319 323 327 326 326 321 319 322 320 313 301 295 296 295 297 299 298 297 297 297 296 296 295 295 295 294 294 294 293 292 291 290 289 289 288 289 289 291
305 307 309 311 313 317 321 324 325 321 318 316 316 311 306 300 297 297 297 298 297 296 296 296 295 295 295 294 294 294 294 293 293 292 291 291 290 290 289 288 287 287 289
307 306 309 311 313 316 319 322 323 318 316 316 310 305 300 302 299 300 300 299 298 297 296 295 294 294 293 293 294 294 294 293 293 291 291 291 291 291 290 288 286 284 286
306 306 309 311 314 316 318 320 321 319 316 313 308 303 301 302 300 300 301 299 298 295 295 294 293 293 293 292 293 293 292 292 292 291 291 290 290 290 290 289 288 285 282
305 307 307 311 314 317 318 320 320 317 314 309 305 298 301 301 299 300 298 297 295 294 293 293 293 292 292 292 292 292 291 291 292 291 290 290 290 289 289 289 288 287 285
305 306 307 310 315 317 317 318 317 314 309 305 297 297 297 297 297 298 297 295 294 293 292 292 291 291 291 291 291 290 290 290 290 290 289 288 289 288 288 288 287 286 286
305 306 307 311 314 315 316 315 313 309 305 298 297 295 296 297 297 295 294 293 292 292 291 291 291 290 290 290 289 289 290 289 289 289 288 287 287 286 286 286 286 286 286
304 304 305 308 311 313 313 310 307 301 298 297 296 296 297 296 294 293 292 292 291 291 290 291 290 289 289 289 288 288 289 289 289 288 287 286 286 285 285 285 286 286 286
304 303 304 307 310 311 308 301 296 295 295 296 297 295 295 294 292 292 291 291 290 290 290 290 289 288 288 288 287 289 289 289 289 288 287 287 285 285 285 286 286 286 285
304 302 303 305 306 302 297 294 292 292 294 295 295 293 292 292 291 290 290 290 290 289 289 288 288 288 287 287 288 290 289 289 288 288 287 287 286 287 287 286 285 285 284
303 302 301 302 299 294 292 291 290 292 292 294 292 290 290 290 290 289 289 289 288 288 288 287 287 286 286 286 288 288 288 288 287 286 286 287 287 286 287 287 287 286 285
302 300 299 298 295 293 291 290 291 292 293 290 290 290 289 288 288 288 288 288 288 287 286 286 286 285 285 286 287 288 287 287 286 286 286 285 286 287 285 286 287 288 289
301 300 296 295 294 294 293 292 292 291 290 289 289 289 288 287 288 288 287 287 287 286 286 285 285 285 285 285 286 287 287 286 286 286 286 285 285 285 285 285 286 286 285
302 300 297 294 293 292 292 291 290 290 289 288 288 288 287 287 287 286 286 286 286 286 285 285 284 284 284 284 285 286 286 285 285 286 286 285 285 286 287 285 284 283 283
297 294 292 292 291 291 291 290 289 289 288 287 287 287 287 286 286 286 285 284 285 285 285 284 284 283 283 283 285 285 285 284 284 285 285 286 285 286 287 284 282 281 281
295 294 293 291 290 291 290 288 288 286 287 287 286 286 286 286 285 284 284 284 284 284 283 283 284 283 283 283 284 285 285 284 283 283 283 284 286 286 285 285 282 280 283
290 290 289 288 289 289 289 287 285 286 286 286 285 284 284 284 284 284 283 283 283 283 282 282 283 283 283 283 283 285 285 285 283 283 283 284 285 284 284 282 282 283 283
289 289 287 287 288 289 287 283 284 285 285 284 283 283 283 283 283 283 283 283 283 282 281 281 281 281 282 283 283 284 285 285 284 283 284 285 284 282 281 281 282 281 280
286 287 286 285 285 286 285 284 284 285 284 283 283 283 282 282 283 283 283 282 282 281 281 280 280 281 281 281 282 283 284 285 284 284 284 282 281 281 280 280 280 280 280
286 286 284 283 283 284 283 284 284 285 283 283 282 282 282 282 282 282 282 282 282 282 281 280 280 279 279 281 283 283 283 283 283 282 281 279 278 278 278 279 279 279 279
285 284 283 282 282 282 282 282 283 284 283 282 282 282 282 282 281 281 281 280 280 281 281 281 281 281 282 282 283 283 284 283 282 279 277 277 277 277 277 276 277 278 278

GFSMW_sfc_thetae_015.txt.gz
Theta_e
313 317 318 319 319 322 322 323 323 327 329 335 339 336 333 333 331 324 319 315 311 311 311 309 307 306 304 302 302 301 300 299 299 301 301 303 302 304 304 304 301 301 300
310 312 315 318 319 320 322 322 324 327 331 338 338 334 331 326 322 315 309 306 306 307 308 308 306 304 303 301 301 301 300 299 298 295 299 297 299 300 300 301 300 298 299
307 310 312 315 319 320 322 322 325 329 334 337 334 328 322 312 310 307 304 302 303 305 306 306 304 304 304 301 300 300 298 297 298 296 294 293 293 293 299 299 298 298 297
306 307 309 312 316 320 324 324 327 330 334 336 331 325 316 311 311 305 301 300 302 302 304 304 303 302 301 300 298 298 297 298 295 297 294 294 293 289 289 297 297 297 294
307 307 308 311 314 318 323 326 327 330 332 332 333 325 319 320 310 302 299 299 299 301 302 302 302 300 300 299 298 297 296 296 295 294 293 293 294 293 290 288 292 294 295
306 308 310 311 312 317 323 326 327 329 332 332 328 321 323 311 303 299 296 297 298 299 301 301 300 299 298 297 297 297 296 295 294 294 293 292 290 290 290 288 289 289 292
305 306 308 309 312 315 320 325 327 327 329 328 323 324 322 309 303 300 297 296 297 298 299 299 298 298 298 297 296 296 295 294 293 293 292 292 291 291 290 289 288 287 290
307 308 310 308 312 316 319 322 325 326 326 324 324 325 312 309 304 300 298 299 298 300 299 298 298 296 296 295 295 295 295 294 294 293 293 292 292 292 291 289 287 284 286
306 307 310 310 310 314 317 321 324 326 323 322 320 313 308 304 302 300 300 300 300 299 298 297 296 295 295 294 294 294 293 293 293 292 293 292 292 292 291 290 289 286 282
304 306 309 310 311 315 317 321 324 323 322 318 309 306 302 301 301 301 300 299 298 297 296 295 295 294 294 293 293 293 292 291 292 292 291 291 291 290 290 289 289 288 285
304 306 308 310 312 316 318 320 323 321 319 311 305 302 300 302 299 299 298 297 297 296 295 294 293 293 293 292 292 291 291 291 291 291 291 289 290 289 288 288 287 286 286
304 307 308 310 312 315 318 319 321 319 315 308 303 299 299 298 298 297 296 296 295 295 294 293 292 292 291 291 290 290 290 290 289 290 290 289 288 287 287 287 286 285 286
302 305 307 309 312 315 317 317 317 313 308 302 298 297 296 296 296 295 294 295 294 293 292 292 292 291 290 289 290 289 289 289 290 289 288 288 287 286 286 286 285 286 286
301 305 306 308 311 313 314 313 311 308 302 298 296 295 295 294 294 293 294 293 292 292 292 291 290 289 289 288 288 289 290 290 290 290 289 288 287 285 285 285 285 286 285
303 305 305 307 309 309 309 304 303 301 298 296 295 295 295 294 293 293 292 292 292 291 291 289 289 288 288 288 288 289 289 289 288 288 288 288 288 288 288 286 285 285 284
302 304 304 306 306 303 299 297 297 296 296 295 294 293 293 293 292 291 290 291 290 289 289 288 287 287 287 286 288 288 287 287 287 286 286 287 288 287 288 289 288 287 284
301 303 303 304 299 295 293 292 293 294 293 292 291 293 291 290 290 290 290 289 289 289 288 287 286 286 286 286 287 288 286 286 286 286 286 286 286 287 286 287 287 287 288
302 302 302 296 293 292 292 293 292 291 291 290 291 290 290 289 289 289 289 288 288 287 286 286 286 286 286 285 286 287 286 286 286 286 286 285 285 286 286 285 284 285 285
302 299 295 293 292 292 292 292 292 292 290 288 289 289 289 289 288 288 287 287 286 286 285 285 285 284 285 284 285 286 285 284 285 286 286 285 285 287 288 285 283 283 282
295 292 292 292 292 292 292 291 290 291 289 289 289 289 289 288 287 287 286 285 286 285 285 284 285 284 283 285 285 285 284 283 283 284 285 287 286 287 287 284 282 280 280
294 294 293 293 293 294 294 291 290 288 288 289 288 288 288 287 286 285 285 285 284 284 284 284 284 284 284 283 284 285 284 283 283 283 283 284 286 286 287 286 282 280 282
292 292 291 291 292 292 291 288 287 287 287 287 286 285 285 285 285 284 284 284 284 283 283 283 283 284 284 284 284 284 285 286 283 282 283 284 286 286 285 283 283 284 284
289 291 290 290 290 289 287 284 285 286 286 285 285 284 284 284 285 284 284 283 283 282 282 281 281 282 283 283 284 285 285 285 284 284 284 285 285 284 282 282 283 283 280
289 289 289 287 285 285 285 284 285 286 286 284 283 283 283 283 283 284 283 283 282 281 281 280 280 280 281 281 282 282 283 284 284 284 283 283 283 282 281 280 280 280 280
289 288 285 283 282 284 284 285 286 286 284 284 283 283 283 283 283 283 282 282 282 281 280 280 279 279 278 280 283 283 282 282 283 283 280 279 278 278 278 278 278 279 279
286 284 283 283 283 284 284 285 286 285 284 282 283 283 283 283 282 281 281 282 281 281 281 281 280 280 282 282 283 283 284 284 283 279 277 277 277 276 276 276 276 277 278

GFSMW_sfc_thetae_018.txt.gz
Theta_e
308 309 311 312 311 312 313 316 317 318 326 336 335 336 332 332 331 324 320 313 309 307 306 305 301 300 297 295 296 295 294 293 292 293 293 294 296 297 297 297 294 294 293
304 306 308 310 312 312 311 314 316 318 320 331 337 335 332 330 322 317 312 308 307 307 306 304 300 298 296 296 295 294 294 293 292 289 290 289 292 293 294 293 294 291 292
302 303 304 307 310 312 312 315 316 318 322 325 333 326 317 314 310 306 302 302 302 303 305 303 300 298 297 295 294 293 292 291 291 290 289 286 286 286 291 291 291 291 290
301 303 304 304 306 312 314 314 316 318 323 333 328 321 319 311 309 306 305 299 300 301 303 302 300 297 296 294 293 294 292 292 289 291 292 288 287 284 283 289 289 290 290
300 301 301 304 305 305 312 315 316 320 327 332 327 321 313 314 306 302 301 298 301 301 301 301 299 295 295 292 292 292 290 290 289 289 288 287 287 287 284 282 285 288 289
298 300 301 304 304 304 307 315 316 320 326 331 327 321 314 311 300 299 298 299 299 299 298 300 298 294 293 292 292 291 290 290 289 289 288 287 286 285 284 282 282 283 286
297 299 303 304 304 304 306 315 316 320 325 327 327 321 316 305 299 298 298 297 297 297 298 298 296 293 293 293 292 291 290 289 288 287 287 288 287 287 286 284 283 282 284
297 301 302 304 305 306 308 313 317 320 323 326 321 318 307 302 300 299 298 297 297 297 297 296 293 292 292 292 291 290 290 289 288 287 287 288 287 288 287 285 282 281 281
299 299 300 304 305 305 308 314 319 321 323 324 318 312 305 302 300 300 298 298 297 297 296 295 291 290 290 290 290 289 288 288 287 287 287 287 287 287 286 286 284 281 279
298 299 301 303 305 306 307 314 319 321 322 321 317 307 303 301 300 299 298 298 297 296 294 292 290 289 289 289 289 288 288 287 287 288 286 286 286 285 285 284 284 283 280
298 300 302 303 305 306 308 311 316 318 320 306 306 304 300 300 300 299 298 296 295 294 293 290 289 289 288 288 287 287 287 287 286 286 286 286 285 284 284 283 283 282 281
297 300 301 303 305 305 309 312 317 318 306 303 302 300 300 299 298 296 295 295 294 293 292 289 289 289 288 287 287 286 286 286 285 285 285 285 287 283 282 282 281 281 281
296 297 301 303 305 307 312 314 317 310 303 302 300 299 298 297 296 294 294 294 292 291 289 289 289 288 288 287 286 285 285 286 285 285 284 284 283 282 281 281 280 281 284
299 299 302 303 305 309 312 313 305 302 299 297 298 296 296 295 293 292 292 292 291 290 288 288 287 287 288 287 286 286 286 285 286 286 285 284 283 282 281 282 281 283 281
299 300 302 302 305 304 305 303 299 297 295 295 295 294 294 293 292 291 291 291 290 288 287 287 287 287 286 287 286 287 286 284 284 284 284 284 286 289 288 285 282 282 281
299 301 302 302 302 299 298 299 297 296 296 295 292 292 291 291 290 290 289 289 287 286 287 286 285 285 286 288 288 288 285 284 282 282 282 283 287 286 289 289 289 287 283
299 299 302 297 295 294 295 294 295 295 293 292 291 291 291 290 290 289 288 286 286 286 285 284 284 284 285 287 287 287 284 282 281 281 282 283 285 285 283 286 287 286 288
300 300 295 292 292 292 292 292 291 291 291 290 290 290 290 289 289 287 286 286 285 284 283 283 284 284 285 286 286 287 282 281 281 281 281 281 281 282 284 283 280 281 282
294 293 292 291 291 291 291 291 290 291 290 289 290 289 289 288 287 286 284 284 283 283 284 284 283 281 281 285 285 285 281 280 279 281 281 282 281 286 288 284 278 280 280
291 291 291 292 291 292 293 291 289 289 288 288 289 289 288 287 284 284 282 284 284 283 283 282 281 284 279 285 285 284 281 278 279 280 281 286 284 287 287 283 281 278 278
292 292 292 290 291 293 292 290 289 288 289 289 288 286 285 284 284 284 283 282 281 280 279 279 280 280 280 280 285 285 281 280 280 279 279 280 286 287 287 287 280 279 282
293 293 292 292 293 292 289 286 284 285 285 285 284 284 284 284 283 280 280 280 279 279 278 278 278 279 278 284 284 285 285 285 280 279 280 280 286 286 285 284 284 284 284
288 289 287 285 286 285 284 282 283 284 284 284 283 281 281 281 281 280 279 278 279 278 277 277 276 277 279 278 284 285 285 285 282 281 283 285 285 284 282 283 284 283 277
286 285 284 283 282 283 283 283 285 285 283 281 280 280 279 280 280 280 279 277 277 276 276 276 276 276 276 276 278 279 279 282 281 283 278 282 282 282 281 279 278 277 277
285 285 283 281 282 284 283 285 284 283 281 280 279 279 280 278 277 278 277 277 277 278 276 276 276 275 274 277 282 282 280 279 282 282 278 276 275 275 276 276 276 276 277
283 282 282 282 283 284 284 283 283 282 281 279 279 278 277 277 277 276 276 282 281 281 281 281 279 278 281 282 283 283 283 284 284 278 274 273 273 274 275 275 275 276 276

GFSMW_sfc_thetae_021.txt.gz
Theta_e
305 306 307 307 307 307 308 312 324 334 337 335 333 333 333 331 331 330 322 313 310 308 305 302 299 298 296 294 294 293 292 291 290 290 292 293 294 295 295 295 292 292 292
301 304 305 304 307 308 308 308 315 329 335 335 335 335 332 327 327 320 315 311 309 306 303 301 299 297 295 294 293 294 292 291 290 288 289 287 290 291 292 291 292 289 290
299 300 301 303 303 306 308 310 311 316 333 335 333 322 317 313 310 312 309 308 307 305 302 300 298 298 295 293 292 292 292 290 290 288 289 285 285 285 289 289 289 289 288
300 301 301 300 301 302 307 309 312 314 317 333 331 326 324 319 311 307 304 305 305 303 301 299 298 299 295 292 292 292 290 291 288 290 290 287 286 283 283 287 287 288 288
297 298 299 301 302 301 304 309 310 313 317 331 329 328 324 311 306 303 302 303 302 302 300 299 297 297 296 291 291 290 289 289 289 288 287 287 286 285 283 281 284 286 287
296 297 299 300 301 301 300 306 309 312 324 329 326 326 317 304 302 302 300 302 301 301 301 299 297 296 294 292 291 290 289 289 288 288 288 287 285 284 283 281 281 282 284
293 296 300 301 302 303 303 303 309 310 324 327 323 318 313 307 305 303 301 300 299 300 298 298 295 293 294 291 291 290 289 288 287 287 287 287 286 286 285 283 282 281 282
294 298 301 301 302 303 304 304 306 310 323 325 322 317 311 306 304 304 302 301 300 299 299 297 295 294 294 291 290 289 289 288 287 286 286 287 287 287 286 284 282 279 280
294 299 301 301 302 302 303 304 306 313 321 325 321 315 307 303 302 301 300 301 299 299 298 296 294 293 292 290 289 288 287 286 286 286 286 286 286 286 285 284 283 280 277
292 296 299 301 302 302 303 304 307 316 320 318 317 308 304 303 301 299 299 299 298 297 296 294 292 291 291 288 288 287 286 286 286 287 285 285 285 284 284 283 283 281 279
296 298 299 301 302 302 303 304 310 316 316 312 307 305 303 301 300 299 298 298 298 296 294 293 292 291 288 287 287 286 286 286 286 285 285 285 285 284 283 282 281 280 279
297 296 298 300 301 301 302 304 309 312 307 306 304 303 302 301 300 298 298 297 295 295 293 293 291 289 287 286 285 285 285 285 285 285 285 284 287 282 282 281 280 279 279
299 297 298 300 301 301 303 307 309 303 302 303 302 301 300 299 298 296 295 295 294 292 292 291 289 288 286 285 285 285 285 285 285 284 284 283 283 281 281 280 279 280 283
299 299 299 301 301 304 306 304 302 301 301 302 301 299 298 296 294 294 293 293 293 291 290 289 288 287 286 286 286 287 286 285 285 285 284 283 282 281 280 280 280 281 280
299 300 298 299 299 299 299 299 298 301 303 299 298 296 295 295 293 293 292 292 292 290 289 287 287 285 286 287 287 287 285 284 284 284 283 283 285 289 287 284 281 280 280
297 298 299 299 296 298 297 297 297 298 298 295 294 292 292 292 292 291 291 290 288 287 287 286 285 284 287 291 290 287 285 284 282 281 281 282 286 285 289 288 288 287 281
299 299 297 292 293 295 297 295 295 294 292 290 290 290 291 290 292 289 288 287 286 286 285 285 284 284 286 289 289 288 284 281 280 280 281 282 284 285 281 285 288 287 288
298 293 291 290 291 291 292 292 292 291 290 290 290 290 290 289 289 289 288 287 286 285 284 283 283 284 287 288 287 287 280 280 280 280 280 279 279 281 283 282 281 282 281
291 291 291 290 290 290 291 290 290 290 290 290 290 291 291 289 288 286 286 286 285 283 282 283 283 282 283 286 286 284 280 280 279 280 280 281 280 285 287 283 278 279 279
291 290 291 291 291 290 292 291 290 290 289 289 289 289 289 288 287 286 284 283 283 283 284 281 280 284 278 286 285 284 281 278 279 279 280 285 284 287 287 283 280 277 277
290 292 292 291 291 292 292 289 289 287 289 289 289 288 287 285 284 283 283 283 282 280 278 278 278 278 279 279 285 285 280 280 279 279 279 280 286 286 287 286 280 279 282
291 292 291 290 291 292 290 288 287 289 288 287 285 284 283 284 283 282 280 279 278 277 276 276 276 277 277 284 284 285 285 285 279 279 279 279 285 285 285 283 284 284 283
292 291 290 288 288 287 286 283 283 284 284 283 282 282 282 281 280 278 277 277 277 276 276 276 275 275 277 276 284 284 284 284 281 279 282 285 284 283 280 282 283 282 276
283 284 284 282 282 284 284 283 284 284 283 281 279 279 279 278 278 278 277 276 275 275 275 275 274 274 275 276 277 279 278 282 281 282 279 281 281 280 280 278 278 277 276
284 284 283 282 282 284 283 284 283 283 280 278 278 278 278 277 276 277 276 277 276 276 275 275 275 274 274 277 282 281 280 279 281 282 277 275 274 274 275 275 276 276 276
283 283 283 283 283 283 283 282 282 280 279 277 277 277 276 276 276 275 275 282 282 282 282 281 279 278 280 282 282 283 284 284 283 276 273 272 273 273 273 274 274 274 275

GFSMW_sfc_thetae_024.txt.gz
Theta_e
304 304 305 305 304 305 306 309 327 334 335 333 332 331 331 330 328 332 328 322 318 315 308 302 299 297 296 294 293 292 291 290 289 290 291 292 292 293 293 292 291 291 290
299 301 303 303 304 306 305 305 315 331 335 335 335 332 332 328 329 323 322 319 316 311 306 303 298 297 295 293 293 293 291 290 288 288 289 287 290 290 290 290 290 288 289
300 300 300 301 301 302 304 306 307 324 335 335 332 322 318 316 314 315 316 313 313 308 306 302 299 295 295 294 292 292 292 289 288 287 289 285 286 285 287 288 288 287 287
297 300 299 299 299 300 302 305 307 311 331 333 331 326 325 322 316 318 311 311 309 306 304 301 298 296 296 295 292 293 291 291 288 288 289 286 286 283 283 286 286 287 287
296 297 297 299 300 299 299 302 306 309 320 331 332 327 326 326 311 307 308 307 306 304 302 300 299 297 295 295 294 290 290 289 289 288 287 286 285 284 283 282 284 286 286
294 295 297 298 297 300 300 299 302 306 311 329 330 328 326 310 306 305 304 304 303 302 301 300 299 298 295 294 293 291 289 288 288 288 287 287 285 284 283 281 281 281 284
293 294 297 300 301 302 302 303 303 305 308 323 328 327 319 312 310 306 305 303 302 300 300 300 298 297 295 292 291 291 289 287 287 286 286 286 286 286 285 283 281 281 282
291 292 297 299 301 303 303 302 303 304 306 320 324 325 319 313 312 309 307 304 301 301 301 300 297 296 295 293 292 290 290 287 286 285 286 286 286 286 285 284 281 279 279
294 293 293 299 300 301 301 302 302 303 306 320 321 317 310 308 307 306 304 303 303 301 299 297 296 296 295 293 291 290 288 286 286 285 285 286 286 285 285 284 283 280 277
295 295 297 299 300 301 301 301 302 303 306 318 320 314 307 307 306 305 304 303 301 299 297 296 296 295 294 292 291 289 288 286 285 286 285 284 284 284 284 283 282 281 279
296 295 296 298 300 301 301 301 302 305 309 316 316 306 305 304 304 303 302 300 300 297 296 295 295 294 292 290 289 288 287 285 285 285 285 285 285 284 283 282 281 280 279
300 298 299 296 298 300 301 301 303 306 310 308 305 304 303 302 302 301 300 299 296 296 295 294 294 293 291 289 289 287 287 285 284 284 285 285 286 283 282 281 280 279 279
300 300 300 300 300 300 301 304 306 306 304 303 302 301 300 301 300 300 297 297 295 295 294 293 292 289 288 287 286 286 284 284 284 285 285 285 283 282 281 280 279 279 282
298 300 300 301 300 301 298 297 298 298 300 301 300 299 301 300 299 297 297 295 295 294 293 293 290 289 287 287 286 285 284 284 285 286 284 283 283 281 280 280 279 280 279
297 297 298 300 298 296 294 295 297 299 299 299 299 297 296 295 294 294 293 294 293 292 290 289 288 288 287 288 287 285 284 285 284 284 284 283 284 288 287 284 281 280 279
299 299 298 296 295 293 294 294 294 295 295 296 295 294 293 293 292 292 290 289 289 288 288 287 286 287 289 292 291 287 285 284 283 282 281 281 285 285 289 289 288 286 281
297 299 294 291 292 295 295 293 292 293 293 292 292 291 291 289 289 289 289 288 287 287 286 285 285 286 288 291 290 288 284 282 280 280 280 281 283 283 281 284 287 286 288
290 290 290 290 291 292 291 291 291 291 290 290 290 290 290 289 290 289 287 286 286 286 285 285 286 286 288 289 289 286 281 279 279 279 278 278 279 281 283 282 280 281 281
289 290 290 290 291 290 291 290 289 289 289 290 290 291 291 290 289 287 286 287 286 285 285 285 284 285 285 288 287 283 279 279 279 279 279 280 280 285 287 282 279 279 279
291 290 290 290 290 291 292 291 290 290 289 289 290 290 290 289 288 287 286 286 285 284 284 282 282 284 280 287 286 283 280 278 278 279 280 284 283 286 287 283 280 277 277
291 292 292 291 291 291 291 289 287 286 289 290 289 288 288 287 286 285 284 283 282 281 280 278 277 278 278 278 285 285 280 279 279 278 279 279 285 286 286 286 279 279 281
291 291 289 288 290 291 290 288 286 287 287 287 287 285 285 284 283 282 281 280 277 276 275 275 275 276 276 284 284 286 285 284 279 279 279 279 285 285 284 282 283 284 282
291 290 288 286 286 286 287 286 285 286 285 283 282 282 282 281 280 277 276 276 276 275 275 276 275 275 277 276 282 283 284 284 281 279 282 285 284 282 279 281 282 281 275
286 285 283 283 282 283 283 282 282 284 283 281 280 278 278 277 277 277 277 276 275 275 275 275 274 273 275 275 277 279 278 282 281 282 278 280 279 279 279 277 277 276 276
284 284 282 282 282 283 283 283 282 281 279 278 278 277 277 276 275 276 276 276 275 275 275 275 275 274 274 277 281 281 280 279 281 280 276 274 273 273 274 274 275 275 275
283 283 283 283 282 282 282 280 280 280 279 277 277 276 276 275 275 275 275 283 282 283 282 282 279 278 281 282 283 283 284 283 283 275 273 271 272 272 272 273 273 273 274

GFSMW_sfc_thetae_027.txt.gz
Theta_e
302 302 303 304 304 304 304 307 324 331 334 333 332 330 328 329 328 329 329 324 323 318 312 306 302 300 299 295 293 292 290 289 289 290 291 291 291 291 291 291 291 290 289
298 299 302 302 303 304 304 303 311 328 333 334 333 332 331 330 329 328 327 324 320 317 311 306 302 300 297 294 293 293 290 289 287 288 289 287 289 289 289 289 289 287 288
299 299 298 300 301 301 302 304 304 315 331 334 330 321 320 317 317 318 319 320 319 316 312 307 303 300 298 295 293 293 292 289 287 287 289 285 285 285 287 287 287 286 287
297 298 299 298 298 299 300 302 304 306 321 333 330 325 326 323 325 319 320 315 316 314 311 306 302 299 298 295 294 294 292 291 288 287 288 286 286 284 283 285 286 286 286
294 295 296 297 299 299 298 299 301 305 309 328 332 328 325 327 325 313 314 313 311 311 308 306 302 299 298 297 294 292 291 290 289 288 286 285 285 284 283 282 283 285 285
290 292 294 296 296 296 298 297 298 301 306 320 329 328 326 316 312 309 312 309 307 304 303 304 302 299 298 297 296 293 292 291 289 288 287 286 285 284 283 281 281 281 283
292 293 293 294 298 301 301 302 303 303 303 307 325 327 325 316 315 313 313 309 303 302 300 301 301 300 299 298 295 293 291 290 288 288 286 286 286 285 284 283 281 281 282
292 294 294 294 295 299 300 301 301 302 303 308 317 326 322 318 316 313 313 311 308 306 302 302 300 299 297 295 295 293 290 290 289 288 288 286 286 286 285 284 282 279 279
294 295 295 297 298 298 299 299 300 301 302 305 315 321 321 313 313 311 311 310 308 303 301 300 297 298 297 295 294 293 289 290 287 288 288 285 285 285 285 284 283 281 277
294 296 296 296 298 299 300 300 300 301 303 304 312 318 315 311 310 306 305 303 302 302 299 298 297 297 296 294 293 291 289 287 288 288 287 285 284 284 283 283 282 281 280
300 301 297 296 296 297 298 299 299 301 303 306 310 310 306 306 305 305 303 301 301 300 299 298 297 295 294 293 291 291 289 288 287 287 285 286 284 283 283 282 282 280 279
302 302 299 297 298 299 300 300 303 304 305 307 312 307 303 302 302 303 301 300 299 299 298 297 296 294 293 292 290 289 288 287 287 286 286 286 286 283 283 282 280 279 279
301 297 297 297 297 299 300 300 301 300 303 304 302 301 300 301 301 300 300 300 298 298 297 295 293 291 291 290 289 289 288 287 286 285 285 284 283 282 281 280 279 279 281
297 299 297 297 299 301 299 297 298 298 299 300 299 298 299 299 300 300 299 298 297 296 294 292 290 290 289 288 288 287 286 286 286 285 285 284 284 282 281 280 279 279 278
294 298 299 299 300 295 294 294 294 296 297 296 295 295 298 298 299 296 295 295 294 292 290 290 289 289 289 289 287 287 286 285 284 284 284 283 284 287 286 283 280 280 279
292 296 298 297 294 293 292 292 291 291 292 292 291 294 294 293 292 291 290 290 290 290 290 289 288 288 290 292 290 287 285 284 283 282 282 281 284 284 287 288 289 286 279
290 290 289 290 293 294 293 291 291 292 290 290 291 291 291 290 289 290 290 289 288 288 287 287 288 288 290 292 290 288 284 282 282 282 281 281 282 282 280 284 287 286 288
289 289 289 290 291 291 291 292 291 290 290 289 289 290 290 289 290 289 289 287 287 286 286 285 285 285 287 290 289 286 282 281 280 280 279 278 279 280 282 281 280 280 281
290 290 290 291 291 291 291 290 288 290 290 289 290 291 291 290 289 287 286 287 286 286 286 286 285 286 286 289 289 284 280 280 279 280 279 280 279 284 287 282 278 279 280
291 291 291 291 291 291 292 289 288 288 287 288 289 289 290 288 287 287 287 287 286 285 286 285 284 286 283 288 287 284 280 278 279 279 279 283 282 286 287 281 279 276 277
292 292 291 291 291 291 290 287 287 285 288 289 289 288 289 288 287 287 286 285 284 283 281 279 278 278 279 278 285 286 280 279 279 279 279 280 284 286 287 286 278 278 280
290 290 288 288 290 291 289 286 286 288 288 287 286 286 286 287 285 283 281 280 279 277 276 275 275 276 275 285 285 285 284 283 279 279 279 279 285 285 284 282 282 283 282
290 289 287 285 286 288 289 286 286 286 285 283 282 282 281 281 279 278 276 276 276 275 275 276 274 275 277 276 282 283 284 283 281 280 282 285 284 282 279 281 282 281 275
285 286 285 283 282 283 283 283 283 283 282 280 278 277 277 276 276 277 277 275 275 274 275 275 274 273 275 275 277 279 278 282 281 282 278 280 279 279 278 277 276 275 275
284 284 282 281 281 282 282 281 281 279 278 277 277 276 276 275 275 276 275 276 274 275 275 275 275 274 274 277 281 281 280 279 281 279 275 273 273 272 273 274 274 274 274
283 283 283 282 281 282 280 278 279 278 277 276 276 276 275 275 276 276 276 284 283 283 283 282 278 278 281 282 283 283 283 283 282 275 272 271 271 271 272 272 272 272 273

GFSMW_sfc_thetae_030.txt.gz
Theta_e
302 301 301 303 303 303 303 305 314 327 335 336 333 332 329 329 327 329 327 324 322 319 316 312 307 300 298 297 296 292 290 289 289 291 290 290 290 290 290 290 290 290 289
298 298 299 300 301 303 303 303 306 319 330 334 334 332 332 331 330 329 328 326 322 320 317 312 308 303 300 297 295 292 290 288 288 289 289 287 289 288 288 288 289 287 288
297 298 297 297 298 299 301 303 303 311 326 332 332 323 321 320 322 322 325 324 323 320 316 311 308 304 302 299 296 293 292 288 287 287 290 285 286 286 286 286 286 286 286
292 294 295 295 296 298 299 301 302 304 313 329 330 328 327 325 325 326 327 320 321 319 315 312 310 305 302 300 297 296 293 290 287 287 288 285 287 285 283 285 285 285 286
290 292 292 294 296 296 296 297 300 301 305 319 330 327 326 327 323 325 324 321 318 318 316 312 310 305 304 301 299 296 295 292 289 288 286 285 284 283 283 282 283 285 285
292 294 296 297 297 296 299 297 296 298 301 307 325 328 326 325 316 314 319 317 314 314 313 310 306 305 303 301 299 297 296 294 292 289 288 288 286 284 283 282 281 282 283
292 294 295 296 298 297 297 300 300 300 300 302 316 327 326 325 317 317 318 314 311 307 306 307 304 302 302 301 299 298 295 293 292 290 289 288 287 286 285 283 281 281 281
292 294 296 296 296 298 298 299 299 299 300 302 304 318 326 322 319 316 318 316 314 312 310 305 305 302 300 299 299 298 295 293 292 290 289 288 288 287 286 284 282 279 279
292 294 297 297 297 297 298 298 299 299 299 301 303 309 317 316 315 314 315 315 313 311 304 305 304 301 299 298 297 295 293 292 291 290 289 288 288 286 287 286 284 281 277
294 298 301 299 296 296 297 297 298 299 300 301 302 306 312 319 313 309 310 309 308 304 304 302 300 300 298 296 295 292 291 290 289 289 288 287 286 287 286 286 284 282 280
297 300 300 298 297 298 299 299 300 301 303 303 303 305 309 314 308 306 305 303 302 302 300 300 299 298 297 295 293 291 290 289 289 288 288 287 286 286 284 284 282 281 280
300 299 297 296 296 297 299 300 299 300 300 302 303 305 311 304 305 306 302 301 299 298 299 298 297 295 294 292 291 290 290 289 288 288 287 287 287 285 285 284 281 280 279
299 296 297 299 297 297 298 298 298 298 299 300 301 303 306 304 303 302 301 301 300 299 299 298 295 294 293 291 290 290 290 289 289 288 287 286 285 284 283 283 281 280 281
292 292 295 298 297 297 294 294 295 297 297 299 300 299 302 302 302 300 299 298 298 297 296 294 293 292 291 291 290 289 288 287 287 286 286 285 285 284 283 282 281 280 279
290 290 291 293 293 292 292 292 291 293 296 296 296 296 299 300 298 297 296 295 293 292 291 291 291 291 290 290 289 288 288 287 285 285 285 284 285 286 286 283 281 280 279
290 290 290 290 292 293 292 292 292 291 291 290 291 293 292 293 293 292 291 291 291 291 291 291 291 290 291 293 291 288 285 285 284 283 282 282 284 285 287 287 288 285 278
288 288 289 290 291 291 292 291 291 292 290 289 289 290 290 289 290 290 290 290 289 290 289 290 290 290 291 292 291 288 284 283 282 282 282 282 283 283 280 283 287 286 288
289 289 289 290 291 291 291 291 291 290 290 290 290 290 290 290 290 289 288 288 288 288 287 287 287 288 290 291 290 288 283 282 282 282 280 280 280 281 282 281 280 281 281
290 290 290 291 291 291 290 289 289 289 289 289 290 291 290 289 288 287 286 286 285 286 285 286 286 285 286 290 288 284 282 281 280 281 280 280 280 283 286 282 278 279 279
291 290 291 291 290 290 289 288 288 288 287 288 288 289 288 287 285 285 285 286 286 285 285 285 285 288 285 289 288 283 281 279 279 279 280 283 282 285 286 282 279 276 276
290 291 290 290 290 290 290 288 288 285 288 289 288 288 288 287 286 285 286 285 284 283 282 281 280 281 280 282 287 287 280 279 279 279 279 279 284 285 286 286 277 278 280
288 289 288 288 290 290 289 287 286 288 288 287 286 286 286 287 286 283 282 281 280 278 277 276 276 276 276 285 286 285 284 283 280 279 279 279 284 285 284 281 282 283 281
289 288 287 286 287 289 288 286 285 285 284 283 282 281 280 279 278 276 275 276 275 275 275 276 274 274 276 275 283 283 284 283 281 280 282 284 283 281 278 280 281 280 274
285 286 285 283 282 283 283 283 283 283 281 279 276 276 276 275 275 277 276 275 274 274 275 275 273 273 274 275 277 279 278 281 281 281 277 279 278 278 277 276 275 274 274
283 283 281 282 282 282 282 280 279 278 277 276 276 275 275 274 274 275 274 275 273 275 274 274 274 273 273 277 281 281 280 278 281 278 274 272 272 271 272 273 273 273 273
284 283 282 281 281 281 280 278 278 278 276 276 276 275 275 275 276 276 276 285 284 284 283 281 278 278 281 282 282 283 282 282 281 274 271 270 270 270 271 271 271 272 272

GFSMW_sfc_thetae_033.txt.gz
Theta_e
303 305 306 307 307 308 308 309 311 322 337 337 334 333 332 332 332 334 332 330 330 328 327 327 324 318 313 309 304 301 298 297 299 299 299 299 299 301 302 302 300 300 298
300 301 302 303 303 305 307 308 308 312 326 336 336 335 334 334 333 333 332 330 329 327 326 324 321 315 312 306 302 299 295 298 299 299 299 297 297 297 297 299 298 298 297
295 297 298 299 301 302 303 305 307 309 317 331 336 332 330 328 330 329 330 330 329 326 325 323 322 317 313 306 301 299 297 297 296 297 301 294 296 296 295 295 296 296 295
296 297 298 300 301 301 302 303 305 307 311 328 333 331 327 326 329 330 331 332 329 326 325 323 320 317 314 310 305 302 300 300 296 293 293 294 297 296 292 293 294 293 293
295 297 299 300 301 302 303 302 302 303 307 314 331 332 329 330 332 331 330 330 327 327 325 322 319 316 314 312 308 302 301 299 297 297 292 292 292 293 295 292 292 291 293
295 298 300 302 304 304 304 305 305 303 303 305 312 329 330 329 329 327 327 327 324 324 323 320 318 317 313 309 307 305 303 300 299 295 294 293 294 292 292 291 290 292 291
295 297 301 302 303 303 304 304 304 304 305 306 306 312 326 329 328 326 326 325 321 320 320 319 317 316 312 311 308 305 303 302 299 297 294 294 292 292 290 291 289 290 290
296 298 301 302 302 302 303 303 303 303 304 305 306 309 313 325 327 325 325 324 322 321 322 318 317 315 311 309 307 305 304 302 299 297 295 294 292 291 291 290 289 287 288
297 299 302 303 302 301 302 301 301 302 303 305 306 307 310 315 321 322 323 324 323 320 319 315 314 312 309 307 305 304 301 299 297 296 294 293 290 291 289 289 290 289 286
297 301 302 302 302 301 302 304 304 304 305 307 307 308 310 312 317 318 319 319 319 317 312 311 310 308 307 305 303 301 298 295 295 292 290 289 289 289 289 289 287 288 286
300 300 299 300 301 301 302 303 303 303 304 305 305 307 310 312 315 313 314 314 312 310 308 307 305 304 302 302 301 299 295 292 291 290 289 288 288 288 287 287 286 286 286
300 297 296 298 300 300 300 300 300 301 302 303 304 306 309 311 308 309 309 307 305 304 304 302 302 301 300 299 297 294 293 291 289 290 289 288 289 287 287 286 285 285 284
295 293 293 296 297 296 296 296 296 296 298 301 303 305 306 307 306 305 303 303 302 301 301 300 298 297 295 294 293 291 291 291 290 289 289 288 287 286 285 285 285 284 284
292 292 291 292 294 294 295 294 293 293 295 298 301 302 303 304 304 303 300 300 301 300 300 298 295 294 292 292 292 291 291 289 288 288 287 287 287 286 285 285 284 284 283
291 290 290 291 293 293 293 294 293 293 293 294 294 295 298 299 298 296 296 296 296 294 294 293 292 292 292 291 290 290 289 287 287 286 286 285 285 287 286 285 284 284 283
290 290 290 291 291 291 292 292 292 292 292 291 291 292 293 293 293 292 292 292 292 292 292 291 292 292 293 294 293 289 286 285 284 283 284 284 286 286 288 289 289 287 284
290 290 289 290 291 291 291 291 291 292 291 290 291 291 291 291 291 291 291 290 290 291 291 291 292 291 292 293 292 290 286 285 284 284 283 283 285 285 283 284 286 286 287
289 289 290 290 291 291 291 291 291 291 291 291 291 291 290 290 290 289 289 289 289 289 288 289 289 289 291 293 292 289 284 283 283 283 283 283 283 283 284 284 284 285 284
290 291 291 291 291 290 290 290 289 289 289 288 289 289 289 288 287 287 287 287 286 286 285 286 285 286 286 290 289 285 283 282 282 282 283 283 283 283 285 285 283 283 283
291 291 291 291 290 289 289 288 288 288 287 288 288 288 288 287 285 285 285 286 286 285 286 285 285 288 286 288 286 283 282 281 281 282 282 283 284 284 286 285 283 280 281
290 291 291 291 290 290 290 288 287 285 288 289 288 288 288 287 286 285 285 285 284 284 283 283 283 283 285 287 289 286 282 282 281 281 281 282 284 285 286 285 281 280 283
289 289 289 290 290 291 289 287 286 288 288 288 287 287 287 287 286 285 283 282 281 280 279 279 279 279 281 287 287 286 285 284 282 281 282 282 284 284 283 282 282 283 282
289 289 287 287 289 289 288 285 284 285 284 283 281 280 280 279 279 279 279 279 279 278 278 278 277 277 278 280 284 284 284 283 282 282 283 283 282 281 279 279 280 280 277
287 287 286 283 282 283 284 284 284 283 280 279 278 279 278 278 278 279 279 278 278 277 277 277 276 276 277 278 280 281 281 282 282 282 280 280 278 277 277 277 277 277 277
285 284 283 283 282 282 281 281 281 280 279 278 278 278 277 277 277 277 277 278 277 278 277 276 277 276 277 280 282 282 282 282 282 279 277 275 275 274 274 275 275 276 276
285 284 283 282 282 281 280 279 280 279 278 278 278 278 278 279 279 280 280 285 284 284 283 282 280 279 281 282 282 282 282 281 281 276 274 273 273 273 273 274 274 275 275

GFSMW_sfc_thetae_036.txt.gz
Theta_e
310 309 310 311 312 313 315 317 317 319 324 334 337 335 333 336 336 338 342 341 339 337 335 333 332 333 330 327 321 317 310 307 307 305 304 304 305 306 309 309 307 306 305
305 304 307 307 308 309 312 313 314 316 318 324 334 338 337 336 337 336 336 340 339 338 335 333 332 331 328 327 322 315 308 307 305 306 306 301 301 303 306 307 306 305 304
303 306 308 309 310 309 309 309 311 313 316 318 328 335 338 338 336 334 334 334 339 337 336 334 333 331 328 326 322 315 311 305 303 307 307 302 301 301 302 303 304 303 302
305 307 308 310 311 311 311 311 310 310 312 315 319 326 330 329 331 332 335 334 335 336 336 334 332 330 326 324 321 317 312 311 303 303 303 302 305 301 297 299 301 302 300
303 305 308 309 312 312 313 312 312 310 310 312 317 324 328 328 329 331 333 333 333 333 334 333 332 329 325 325 321 316 313 312 309 304 299 299 297 298 301 298 296 298 299
303 306 309 311 311 313 314 314 312 312 312 310 312 317 325 328 327 330 332 332 332 330 330 330 331 329 326 324 323 319 315 311 311 306 300 298 298 296 297 298 299 297 297
304 306 308 309 310 311 311 311 311 311 311 312 312 312 314 323 327 329 330 330 330 327 327 328 328 328 327 325 324 318 312 309 306 305 303 301 301 299 298 300 296 295 294
305 307 308 308 309 309 309 310 310 309 310 310 311 312 314 314 318 326 328 328 328 329 329 327 327 327 326 324 322 318 314 312 309 307 304 300 299 297 293 296 291 289 291
305 306 307 307 307 308 308 309 309 310 311 312 313 313 314 314 315 319 324 325 327 328 329 327 325 325 323 322 320 317 315 312 311 307 303 298 295 295 294 293 295 294 289
305 306 305 305 307 308 308 309 309 308 309 311 311 312 313 315 316 318 320 321 324 325 324 325 324 322 319 316 314 312 312 309 305 303 297 294 292 292 292 290 289 290 289
304 303 302 303 306 307 306 306 306 306 307 308 309 311 313 315 315 315 314 314 316 318 318 318 318 317 313 310 309 307 305 303 298 296 293 290 291 289 289 289 288 287 288
302 301 300 301 302 302 303 303 303 303 304 306 308 310 312 314 313 311 312 313 313 313 312 311 310 310 308 307 305 303 301 298 296 295 293 292 290 288 288 288 287 286 286
300 299 299 298 298 297 298 301 301 300 301 304 306 308 310 311 312 310 310 309 308 306 305 305 305 304 304 303 302 299 297 293 293 291 291 290 288 287 287 286 285 285 286
298 297 297 297 297 296 297 299 299 299 299 300 302 302 305 307 307 306 305 305 304 303 302 302 300 299 299 297 294 293 292 291 291 290 290 290 288 287 286 286 285 285 286
296 295 295 296 295 295 296 297 297 297 296 296 297 298 300 301 301 300 300 299 298 297 296 295 294 294 293 293 292 291 290 289 289 288 287 287 288 289 287 287 285 285 284
294 294 294 293 293 293 293 293 294 295 296 295 294 295 297 297 295 296 296 296 295 295 293 293 293 293 293 294 293 291 289 288 287 285 285 286 287 288 289 290 289 288 287
293 293 293 292 292 292 292 291 293 294 294 293 292 293 294 293 292 292 292 292 292 292 292 292 293 292 293 295 293 291 287 286 285 285 284 285 286 286 285 286 287 288 289
293 293 292 292 292 291 291 292 292 292 292 291 291 292 292 290 290 290 289 288 288 289 289 289 290 291 292 294 292 289 285 284 284 285 285 285 284 285 284 285 285 285 286
294 293 292 292 291 290 291 290 290 290 289 289 290 290 290 289 288 287 287 287 286 286 285 286 286 285 286 290 289 285 284 283 283 285 285 285 284 284 285 285 285 285 286
295 293 293 292 290 290 291 290 289 289 288 288 289 289 289 288 286 286 285 286 286 285 286 285 285 288 285 287 287 285 285 284 284 284 284 284 284 284 285 286 285 283 284
294 294 294 292 292 292 291 289 288 286 289 290 289 289 289 288 287 286 287 287 286 285 285 285 285 286 288 288 287 285 285 284 283 283 283 284 284 285 286 285 284 283 284
294 293 294 293 293 293 292 289 288 289 289 289 289 288 289 289 289 288 286 286 286 285 283 283 283 285 287 288 287 286 285 284 283 282 284 284 284 284 283 283 282 283 283
294 294 294 292 291 291 292 288 287 287 287 288 286 286 286 285 285 285 284 284 284 283 282 282 281 281 281 284 285 285 284 284 284 284 284 283 282 281 281 280 281 281 280
293 293 292 292 290 290 290 290 289 289 287 285 284 284 284 283 284 284 284 284 283 282 281 280 280 280 280 282 283 284 284 283 283 283 284 281 279 278 279 278 279 279 279
291 292 292 290 290 289 289 289 287 286 285 284 283 283 283 283 282 282 283 282 282 282 281 280 280 280 280 282 284 283 283 284 283 282 280 278 278 278 278 278 279 279 279
290 288 291 289 288 289 287 286 285 285 284 283 283 283 283 284 284 284 284 285 285 284 283 282 282 282 282 282 282 282 282 281 281 279 277 277 277 277 277 277 278 279 279

GFSMW_sfc_thetae_039.txt.gz
Theta_e
311 313 313 313 314 315 316 317 318 320 321 327 332 339 337 337 337 338 343 343 341 339 338 336 334 334 333 332 329 324 319 316 316 308 307 308 307 308 311 311 309 308 308
309 309 309 310 310 311 313 315 316 318 319 321 325 335 339 336 336 338 338 340 342 341 339 337 334 333 332 331 329 324 318 314 312 308 309 303 303 304 306 309 307 306 306
304 307 309 311 312 312 312 311 312 314 317 319 321 324 335 339 337 335 335 337 339 341 338 338 336 334 332 330 329 324 318 312 310 312 311 307 304 301 303 305 306 305 304
306 308 309 310 312 313 316 314 314 313 312 315 316 318 323 328 333 334 337 337 337 338 338 336 335 334 333 330 329 326 319 315 308 307 308 310 309 302 297 301 302 304 303
306 307 310 311 313 315 316 316 315 314 314 312 313 315 317 324 331 331 331 332 336 335 335 335 335 332 332 331 328 325 317 317 314 309 306 305 303 303 302 296 296 300 301
306 308 311 312 313 315 315 315 314 314 314 314 313 313 315 321 325 328 328 329 332 335 332 331 332 332 330 329 327 325 320 317 317 310 306 303 300 297 298 299 297 295 297
306 307 309 310 311 312 312 313 312 312 313 313 314 314 313 314 318 324 327 328 329 332 330 329 329 329 329 328 326 325 321 318 316 313 308 304 305 301 300 300 297 297 296
307 308 309 309 310 310 311 311 311 311 312 313 313 313 314 314 315 315 319 326 327 328 331 330 327 327 328 326 326 323 323 320 316 314 310 305 304 301 301 301 295 291 291
306 308 308 308 308 309 309 310 310 310 311 311 312 313 314 314 315 316 317 320 323 325 327 329 327 325 326 325 323 321 319 315 314 312 310 308 306 302 297 297 297 297 288
306 307 306 306 307 308 309 310 309 308 309 310 311 311 313 314 316 317 317 318 320 321 323 324 323 322 323 322 321 318 316 314 312 311 309 304 297 295 293 292 292 292 292
305 304 304 305 306 307 307 306 306 306 306 307 309 310 312 313 315 315 315 314 314 315 316 317 317 318 318 316 313 312 311 311 308 304 301 295 294 292 292 290 290 289 289
304 303 302 302 303 302 302 303 304 304 304 305 307 309 311 312 313 313 312 312 311 312 311 311 311 311 311 311 309 307 305 305 300 298 296 293 293 290 290 290 287 287 287
302 302 301 300 301 299 300 301 302 302 302 303 304 306 307 309 309 308 309 310 309 309 307 307 305 305 304 304 304 302 300 299 297 295 293 290 290 289 288 288 287 286 287
300 300 299 300 299 298 298 297 298 300 299 300 300 301 303 303 304 303 304 303 304 304 302 300 298 299 296 295 295 294 293 292 292 292 291 291 290 288 287 287 286 285 285
299 298 297 298 297 296 295 295 296 297 298 298 298 298 300 300 300 300 300 299 299 298 298 296 295 295 294 294 293 292 291 290 289 289 289 289 290 290 289 287 286 286 285
297 297 297 295 294 293 293 293 294 295 296 296 296 297 297 297 296 296 296 296 295 296 296 295 294 294 294 295 294 292 290 289 287 286 286 288 289 290 291 290 290 288 286
296 295 295 293 292 292 292 292 293 294 294 293 293 294 294 293 293 293 292 292 292 292 292 293 293 293 294 295 294 291 288 287 285 285 285 285 287 286 286 288 288 289 290
296 295 294 292 292 292 292 292 292 292 292 292 293 293 292 292 291 290 290 289 289 288 288 287 288 289 292 293 292 289 285 284 284 285 285 285 284 285 285 285 285 286 286
297 295 294 293 291 291 292 291 290 290 290 289 289 291 291 289 289 288 288 288 287 286 286 286 286 285 286 290 290 286 285 284 284 285 285 285 284 285 286 285 285 284 284
297 294 294 292 291 291 292 290 289 289 288 289 289 290 289 288 287 287 286 287 287 286 286 284 285 287 285 288 287 286 285 283 284 284 284 284 284 285 285 285 285 283 283
297 296 295 293 292 293 292 289 289 287 289 290 290 290 290 289 288 287 287 287 286 285 285 285 285 287 288 287 287 286 284 284 283 282 282 283 284 285 286 286 283 282 283
296 297 296 294 293 293 292 290 289 290 291 291 290 290 290 291 290 288 287 288 287 285 284 284 284 286 286 288 287 287 286 285 282 282 283 284 285 284 284 283 283 283 283
297 297 297 295 295 294 294 291 290 291 291 290 289 289 288 287 287 286 285 285 285 284 283 282 282 281 282 283 285 285 285 285 283 284 284 283 283 282 281 281 281 281 279
297 297 296 294 293 294 293 293 292 292 290 287 285 285 285 285 285 285 285 284 284 283 281 280 280 280 281 282 283 283 284 284 284 283 284 282 281 280 279 279 279 278 278
297 296 296 296 294 294 293 293 292 288 286 285 285 284 284 284 283 284 284 283 282 282 281 281 280 280 280 282 283 283 282 282 283 282 281 279 277 277 277 278 278 278 279
296 294 294 294 293 293 292 291 289 288 286 284 284 284 284 285 285 285 284 285 285 284 283 283 282 282 282 283 283 283 283 283 282 279 277 276 277 276 276 277 277 278 279

GFSMW_sfc_thetae_042.txt.gz
Theta_e
304 305 307 306 306 307 308 309 311 313 314 316 325 334 333 333 335 337 337 337 338 334 331 330 328 328 330 330 328 320 314 311 308 302 300 300 301 301 305 305 303 304 304
301 302 305 305 306 305 306 307 308 310 312 313 314 322 334 334 335 334 336 337 336 335 333 331 329 328 326 326 326 321 313 310 307 300 299 296 298 299 300 303 303 301 302
299 302 303 305 306 306 307 307 307 308 308 310 312 313 315 331 329 329 332 335 336 334 334 334 330 328 326 325 325 322 317 310 306 305 303 299 297 295 297 299 302 300 299
302 304 305 306 306 308 310 311 311 309 309 308 307 307 309 311 325 331 332 333 333 334 335 334 333 332 327 325 324 324 319 311 306 303 308 304 302 296 292 298 300 301 300
301 304 306 308 308 310 310 311 311 310 309 308 306 305 306 309 312 322 326 329 332 333 333 333 333 332 331 328 323 322 319 314 309 307 303 303 299 298 296 291 294 298 299
302 303 307 307 307 309 309 309 308 308 309 308 308 306 305 306 308 314 320 322 323 327 329 330 331 330 330 329 328 324 321 316 312 308 306 304 301 297 296 295 292 293 295
301 302 304 305 305 305 306 307 307 307 308 308 307 307 307 306 306 306 310 318 323 323 325 326 326 327 329 328 327 323 322 316 314 312 309 305 306 303 301 300 294 292 293
301 303 304 303 303 305 306 305 305 305 306 306 307 308 308 308 308 308 309 309 313 319 323 324 323 323 324 327 326 324 323 320 316 315 310 306 304 305 303 304 300 293 291
301 302 303 302 302 303 304 304 304 304 305 305 306 306 306 308 308 309 310 310 312 318 317 318 322 321 325 325 324 323 321 320 317 315 312 307 306 305 303 303 303 301 290
301 302 301 300 302 303 303 303 303 302 303 303 303 305 305 307 309 310 309 310 310 312 312 314 314 316 320 321 320 319 318 315 312 311 309 307 300 299 299 297 297 298 295
301 300 299 300 301 300 300 300 301 301 300 301 301 302 304 307 308 308 307 308 310 311 311 311 310 313 313 314 313 312 311 310 308 305 305 298 296 295 294 293 292 292 293
300 300 299 298 298 297 297 298 299 298 298 299 299 301 303 305 307 304 304 307 309 309 307 307 307 307 307 308 307 306 305 305 301 298 296 294 294 292 292 290 289 290 291
299 298 298 297 296 295 296 296 296 296 296 297 297 298 299 299 300 299 300 301 301 300 299 298 298 299 299 300 298 298 298 298 297 296 294 293 291 289 289 289 289 289 289
298 297 296 295 294 295 295 295 294 295 295 296 295 295 296 296 297 297 297 297 297 296 294 294 293 293 293 294 293 294 293 292 292 292 291 291 290 289 289 289 287 286 286
297 295 294 293 292 293 293 294 294 295 296 294 294 295 296 295 295 295 294 295 295 295 294 292 292 293 294 293 292 291 291 290 289 289 290 290 291 291 290 288 286 286 285
296 295 294 292 292 292 292 292 293 294 295 294 294 295 294 294 294 294 294 292 293 294 294 294 294 293 294 295 294 290 288 288 287 286 286 287 290 292 293 292 290 288 286
295 293 291 290 291 291 292 291 292 293 293 293 293 293 293 291 291 291 290 290 290 290 290 291 292 292 293 294 293 291 287 285 285 285 285 286 287 287 286 290 290 290 290
294 292 290 290 291 291 291 292 292 291 291 291 291 291 291 290 290 289 289 288 288 287 287 287 288 289 291 293 292 289 285 284 284 285 284 284 284 285 285 284 285 285 284
293 291 291 290 290 290 291 291 290 290 290 289 289 289 289 288 288 287 287 287 286 286 285 286 285 286 287 290 290 285 281 282 283 284 285 285 284 286 286 283 281 281 281
293 291 291 291 290 291 291 290 289 289 288 289 289 289 289 288 286 287 286 287 286 285 285 284 285 287 281 288 288 285 283 281 282 283 283 285 283 285 286 283 281 280 279
293 293 291 292 291 292 291 289 289 287 290 290 290 290 290 288 287 287 286 286 285 283 276 281 284 285 282 284 288 287 281 280 279 279 279 281 285 286 286 285 279 280 281
294 293 292 292 292 293 292 289 288 290 290 290 290 290 290 290 288 286 284 280 280 279 278 279 278 279 281 287 287 287 285 285 279 279 279 281 285 284 284 282 283 283 282
294 294 294 293 292 293 292 290 289 290 289 287 286 286 285 285 285 281 280 279 279 278 277 277 276 275 277 278 284 285 285 284 280 280 282 283 283 283 280 281 282 282 275
294 294 293 291 290 291 291 289 288 288 288 282 281 280 280 280 280 280 279 278 277 276 276 276 275 275 276 277 279 280 278 283 281 282 279 281 281 281 279 278 277 276 275
295 295 294 292 291 291 290 289 289 287 282 281 280 280 280 279 279 280 280 278 278 279 276 276 276 275 275 279 282 281 280 279 281 280 277 276 274 274 275 275 275 275 276
294 295 294 294 293 292 291 288 287 283 281 279 279 279 278 279 279 279 278 285 284 284 284 283 280 279 282 283 283 283 283 283 283 277 274 272 272 273 274 275 275 276 278

GFSMW_sfc_thetae_045.txt.gz
Theta_e
303 304 303 303 305 305 305 305 307 308 311 316 328 331 332 331 329 333 335 333 334 332 328 329 326 330 329 329 328 324 316 309 307 303 299 299 299 300 303 304 304 306 308
299 302 303 304 305 305 305 305 306 306 306 309 311 322 331 331 334 334 334 335 333 333 332 331 327 325 329 327 326 323 313 312 307 303 297 295 297 299 299 302 303 303 304
298 299 302 304 305 306 307 308 307 307 307 306 307 307 311 325 327 327 328 331 332 333 332 330 327 325 323 326 327 324 319 314 309 305 302 296 296 295 297 298 301 301 301
300 302 304 305 305 307 308 309 310 309 308 306 304 303 303 305 317 326 329 330 331 332 332 332 330 328 327 325 323 324 322 315 310 306 306 305 301 296 294 297 298 301 300
300 302 304 307 308 308 308 308 308 308 307 307 306 303 302 304 306 309 316 326 330 331 331 331 330 326 327 327 325 322 318 316 314 310 305 302 301 297 295 294 296 301 301
300 303 305 306 307 307 307 307 306 307 307 306 305 305 304 302 303 304 305 310 319 324 329 331 331 328 326 327 326 324 321 319 315 309 307 305 303 303 297 297 297 299 300
299 301 302 303 304 304 305 306 305 305 305 305 306 306 305 304 304 304 304 305 308 315 321 325 325 324 324 324 324 323 323 321 317 312 310 309 308 306 303 302 298 297 298
298 301 302 301 301 303 302 303 303 303 304 303 304 304 304 305 306 306 306 307 309 313 316 317 322 321 321 323 325 320 320 317 316 315 312 310 310 308 305 305 301 295 294
300 301 300 300 301 301 301 301 301 301 301 301 301 302 303 304 306 307 308 308 308 312 310 312 314 319 321 319 319 322 320 318 315 314 314 311 309 307 305 305 305 302 297
300 299 298 299 300 299 299 299 300 299 299 299 299 301 302 304 307 306 306 306 307 308 308 308 308 310 312 315 317 317 315 316 314 312 311 307 305 304 303 301 301 301 300
298 297 297 298 297 297 297 297 298 297 296 297 298 299 301 303 306 303 303 304 306 305 304 305 305 305 306 307 308 308 310 310 308 307 307 301 300 297 296 295 296 296 297
299 298 297 296 295 295 295 294 295 295 295 296 296 297 298 299 301 299 298 299 299 297 296 297 298 299 301 302 304 303 303 303 300 300 298 295 295 293 293 292 291 292 292
298 296 295 294 294 294 293 293 294 293 294 295 295 296 295 295 295 295 296 296 295 294 293 293 292 293 295 296 297 297 296 297 296 296 295 293 292 291 290 290 290 290 291
297 295 294 293 292 292 292 294 295 294 294 294 294 294 293 293 293 294 294 294 294 292 292 292 292 292 292 292 292 292 292 292 292 292 292 291 291 290 289 289 287 287 287
295 295 292 290 290 290 292 294 294 295 295 293 294 294 294 293 292 292 292 292 293 294 295 293 294 294 294 293 289 288 288 288 289 289 290 291 292 292 291 288 287 287 286
294 293 292 291 290 290 291 292 293 293 294 293 293 294 293 293 292 292 292 292 292 293 292 292 293 291 293 294 293 289 288 287 287 286 287 288 289 292 293 292 291 289 286
294 292 290 289 290 290 292 291 292 293 293 292 292 292 292 291 291 291 290 290 289 289 289 290 291 291 292 293 292 290 286 286 285 285 285 285 287 286 285 289 290 290 291
293 291 289 288 289 291 291 292 292 291 290 290 290 291 291 290 290 289 289 288 288 287 287 287 288 290 292 293 291 289 281 282 283 283 282 283 283 285 285 284 284 284 284
292 290 289 288 290 291 291 291 290 290 289 289 289 289 289 289 288 288 287 287 286 285 285 286 286 286 287 290 289 283 278 278 279 281 282 282 282 286 286 283 282 281 281
291 289 288 289 290 290 291 290 289 289 288 288 289 289 289 288 287 286 285 286 286 285 285 284 279 286 276 289 288 284 281 279 279 280 280 285 283 286 287 281 278 278 278
291 290 289 289 290 289 291 289 289 287 290 290 290 289 289 288 287 286 286 285 279 276 280 282 283 280 281 283 289 287 280 278 278 278 278 280 286 286 286 285 278 279 280
292 291 289 291 292 291 291 289 288 290 290 290 290 290 288 288 287 285 283 279 278 277 277 277 277 278 279 286 286 286 286 284 279 279 279 280 285 284 284 282 283 283 281
292 292 291 291 292 292 291 289 289 290 290 287 286 286 286 286 285 282 281 278 278 277 276 277 275 275 277 277 285 286 286 285 280 279 282 284 283 283 280 281 282 281 275
293 293 292 291 291 292 292 290 290 288 287 284 282 279 278 278 278 278 278 277 276 275 276 275 275 274 275 277 278 279 278 282 281 282 277 281 282 281 279 278 277 276 275
294 294 293 292 291 291 290 289 288 287 285 280 279 278 279 277 278 280 277 277 277 278 275 276 276 274 275 279 282 281 280 278 281 280 276 275 274 273 274 275 275 275 276
294 294 294 293 292 292 291 289 289 286 281 279 278 278 277 277 278 278 278 285 284 284 284 284 280 279 282 283 284 284 284 284 284 277 274 272 272 272 274 274 274 275 275

GFSMW_sfc_thetae_048.txt.gz
Theta_e
300 301 301 302 304 304 304 305 306 306 317 327 329 329 331 331 330 331 333 333 335 332 327 326 324 326 327 328 326 324 319 313 308 306 304 301 301 300 302 303 310 311 310
298 301 302 303 304 305 306 305 305 306 306 307 309 323 329 330 332 332 331 332 332 331 331 327 325 324 327 325 324 323 318 316 309 306 300 301 300 299 300 301 303 306 309
298 299 301 303 305 305 306 308 308 307 306 305 306 306 308 320 325 326 327 330 331 331 329 330 327 324 325 326 325 324 320 320 310 308 306 295 298 296 297 297 300 302 301
297 301 303 304 305 306 307 308 308 307 307 305 304 302 302 303 309 320 325 327 328 329 330 330 328 328 325 323 324 326 324 317 312 307 308 306 301 297 298 296 296 299 300
299 301 303 305 307 306 305 305 305 306 306 305 304 303 302 302 303 305 306 310 318 325 328 330 329 326 326 325 323 320 320 320 321 308 306 304 302 299 298 297 297 302 301
299 302 303 306 305 305 304 304 304 304 305 305 304 303 302 302 303 303 303 304 307 313 319 325 327 327 324 323 323 321 319 320 318 316 312 308 305 305 299 295 297 297 302
298 300 301 302 303 303 303 304 303 302 303 303 303 303 302 303 304 304 304 305 307 310 312 315 319 322 322 323 322 320 320 318 317 316 313 313 310 309 307 305 303 298 300
297 300 300 300 301 301 301 301 301 300 300 300 300 301 301 303 305 306 306 307 307 309 310 311 313 316 318 319 319 319 318 319 317 317 314 313 312 310 309 306 303 297 296
298 300 299 299 299 299 298 299 299 298 298 298 298 299 301 303 305 305 305 305 306 309 307 308 309 311 312 315 317 319 318 315 313 313 315 311 311 309 309 308 306 305 298
299 298 297 298 297 297 297 297 297 296 296 297 297 300 301 305 305 303 302 303 304 303 303 304 304 305 307 308 310 313 313 312 312 313 312 311 306 306 305 304 303 303 302
298 296 296 296 296 296 295 295 295 295 295 295 296 297 298 300 300 298 299 300 297 297 296 298 299 300 301 302 303 303 303 305 306 304 305 302 301 300 299 298 298 297 298
298 296 295 294 294 294 293 293 293 294 294 294 295 296 296 296 296 295 295 295 294 294 293 293 294 295 295 296 297 298 298 300 299 298 297 295 296 294 294 293 293 293 294
297 295 294 294 293 292 292 292 292 292 293 294 294 294 293 293 293 293 294 294 293 292 292 292 292 292 292 292 292 294 294 294 294 294 294 293 293 292 291 291 291 290 291
296 294 293 292 292 291 291 292 292 293 293 293 293 291 291 292 292 292 292 293 292 291 291 291 291 291 290 290 289 289 288 289 291 291 291 291 291 290 289 288 287 287 288
295 294 292 290 289 290 291 291 293 295 295 292 293 293 293 292 292 291 292 292 291 291 292 291 291 291 293 292 287 287 287 288 288 289 290 292 293 294 292 289 287 287 286
294 293 292 290 289 289 289 292 293 293 294 293 293 293 293 293 292 292 292 291 291 291 292 292 292 292 292 294 292 289 288 288 287 286 286 288 289 290 294 293 292 290 287
293 292 290 289 289 289 291 291 292 293 293 292 292 292 292 291 291 291 290 289 289 289 289 289 291 291 292 293 292 289 286 285 285 284 282 284 286 286 285 288 289 289 291
293 291 289 288 289 290 291 291 292 291 291 290 290 291 291 290 290 289 289 288 287 287 287 287 288 289 291 292 291 288 279 277 276 276 275 276 279 285 285 281 281 282 282
292 290 289 288 289 290 292 291 290 290 290 289 289 290 290 289 289 287 286 286 285 285 285 286 286 286 282 289 288 281 273 275 276 279 280 280 280 286 287 281 279 279 279
291 289 288 288 289 291 291 290 289 289 288 289 289 290 289 288 287 286 285 286 285 285 282 277 274 284 274 289 287 283 280 278 278 278 279 286 284 287 287 280 278 277 277
290 289 289 288 288 289 291 289 289 287 289 290 290 289 289 287 287 286 286 282 281 282 282 283 283 278 280 282 288 286 280 278 278 278 279 280 286 286 285 285 278 279 280
290 289 288 289 289 289 290 289 287 290 290 290 290 288 288 288 287 284 283 279 276 276 276 277 276 277 277 285 285 286 285 284 279 279 279 279 285 284 284 281 283 283 282
290 290 289 289 290 290 289 289 289 290 290 290 289 285 284 284 283 280 279 279 278 276 276 277 275 274 276 277 284 286 286 285 280 279 282 284 284 284 280 281 282 280 275
291 291 290 290 290 291 290 288 290 290 288 285 284 283 282 281 279 279 278 277 276 275 276 275 275 274 275 277 278 279 278 282 281 282 277 280 281 280 279 277 277 275 275
294 293 292 291 291 292 290 289 289 287 285 283 281 278 278 278 276 277 276 277 276 276 275 275 275 274 275 278 282 282 280 278 281 280 276 274 273 273 274 274 275 275 276
295 293 293 293 293 292 292 289 289 287 285 281 278 278 277 276 278 278 278 284 284 285 284 283 279 279 282 284 284 284 284 284 284 278 274 272 271 272 273 273 274 274 275

GFSMW_sfc_thetae_051.txt.gz
Theta_e
299 299 300 301 302 302 303 304 309 306 325 328 328 327 329 329 329 331 333 334 333 329 325 326 325 325 325 325 324 322 320 318 308 306 304 303 303 301 302 303 308 313 313
297 299 300 300 303 303 304 304 304 304 304 308 312 325 327 329 330 330 331 332 332 332 330 326 325 324 324 323 323 322 318 316 310 309 303 305 305 300 301 300 303 306 312
297 298 299 301 303 304 305 306 306 305 305 304 304 305 306 314 323 325 326 329 330 330 329 330 327 324 323 323 323 322 320 321 309 309 314 302 300 298 299 297 299 302 303
296 299 300 301 303 304 306 306 305 305 305 304 303 302 301 302 304 309 314 313 322 326 327 328 327 326 324 322 323 324 323 318 317 306 309 308 304 303 302 300 297 297 300
296 299 301 303 304 305 303 303 304 305 305 304 303 302 302 302 303 304 304 305 308 311 319 323 325 325 324 324 322 319 319 320 321 314 305 308 305 302 302 307 305 300 302
296 300 302 304 303 303 302 302 303 302 303 304 303 302 302 302 303 303 303 305 306 311 313 315 319 324 323 322 322 319 318 319 319 319 314 310 307 306 302 301 306 302 303
298 299 301 301 301 301 301 302 301 300 300 300 301 301 301 301 302 303 303 305 307 308 308 310 312 316 322 323 322 318 318 317 318 317 316 314 314 312 308 306 305 301 302
297 299 300 300 300 300 299 300 299 298 298 298 299 299 300 302 304 304 305 305 305 306 307 307 309 310 313 316 316 316 316 316 318 316 313 311 313 311 309 307 304 300 298
297 298 298 298 298 297 297 298 297 296 297 297 298 299 300 302 303 302 303 303 303 307 304 304 305 306 308 310 316 319 317 317 315 316 315 311 309 308 309 308 308 305 299
297 297 297 297 296 296 296 296 296 295 295 295 296 298 299 301 300 300 300 300 298 298 299 300 300 301 302 304 306 307 308 309 309 309 310 310 306 306 305 304 304 304 303
298 296 296 296 295 295 294 294 294 294 293 294 295 295 296 297 296 296 296 295 294 294 294 295 295 296 296 297 299 299 300 301 302 301 301 298 299 298 297 297 297 297 297
297 296 296 294 294 293 292 292 292 292 292 293 294 294 294 295 294 294 293 293 292 292 292 293 292 292 293 293 293 294 294 295 294 297 297 295 296 294 294 294 293 293 294
297 295 294 293 293 292 291 291 292 291 292 293 293 292 292 292 292 292 292 292 292 291 291 291 291 290 290 290 290 290 291 292 292 292 291 291 292 291 291 291 290 290 291
296 294 294 293 292 292 291 292 292 292 292 292 291 290 290 291 290 291 291 292 291 291 290 290 290 291 289 288 288 288 287 288 290 290 290 290 290 290 289 288 288 288 288
294 293 292 291 290 290 291 291 292 293 295 293 291 291 292 292 292 292 293 292 290 290 290 290 292 293 292 292 288 289 289 289 289 289 289 291 294 295 293 289 287 287 287
295 294 292 291 289 289 289 291 292 293 294 294 293 293 293 293 292 292 292 292 291 291 292 292 291 292 292 293 292 290 288 287 287 286 286 288 289 289 294 294 294 291 286
295 293 292 291 289 288 290 290 292 293 293 292 292 292 292 291 291 291 290 289 289 290 289 290 291 291 291 293 291 289 286 285 281 279 278 284 285 285 281 286 288 287 289
294 292 290 289 289 290 290 290 291 291 291 291 291 291 291 290 290 289 288 288 288 287 288 288 287 286 290 291 290 287 277 277 278 277 272 273 275 280 281 279 280 280 280
292 291 290 289 289 289 289 289 290 290 290 289 290 290 290 289 289 287 286 286 286 286 285 286 283 278 279 289 288 280 273 275 275 278 278 279 280 287 287 280 279 278 279
291 290 288 288 288 289 289 290 289 289 289 289 289 290 290 289 287 286 285 286 286 284 280 277 274 284 274 288 287 281 279 276 277 277 278 285 284 287 287 279 278 277 277
290 289 289 288 289 289 290 289 289 287 289 290 290 290 289 287 287 286 286 285 283 283 280 279 276 276 280 281 287 287 280 278 278 278 279 280 286 286 285 285 278 279 280
289 289 288 288 289 290 289 288 288 289 290 290 289 288 288 288 287 285 282 278 277 276 277 276 276 276 276 284 285 286 285 284 279 279 279 279 285 285 284 281 283 283 280
289 289 289 288 289 289 289 288 288 288 289 289 288 285 287 287 285 281 278 278 277 276 276 277 275 274 276 276 284 285 285 285 280 280 282 284 283 284 280 281 282 280 274
290 290 289 288 288 289 289 289 289 289 289 288 285 283 282 283 280 281 280 278 276 275 276 275 275 274 275 276 278 279 278 282 281 282 277 280 280 280 279 277 276 275 275
293 291 291 290 290 291 289 288 288 288 285 284 283 282 282 282 278 277 276 277 275 276 275 275 275 274 274 278 281 281 280 278 281 280 277 274 273 273 273 274 274 274 275
294 293 292 292 292 292 291 290 289 287 285 283 282 280 278 277 277 277 278 283 283 286 286 283 279 278 282 284 284 284 284 284 284 278 275 272 271 271 272 272 273 273 274

GFSMW_sfc_thetae_054.txt.gz
Theta_e
303 300 300 300 301 303 309 316 324 322 328 327 326 325 326 327 327 329 331 331 328 326 325 325 324 324 324 324 323 320 320 317 311 311 309 306 305 304 304 302 305 309 313
297 299 298 299 302 302 302 303 304 304 310 319 321 326 325 326 327 328 329 330 330 331 328 324 324 323 324 322 322 320 316 316 311 313 305 310 310 302 303 301 302 302 309
297 297 298 300 301 302 303 305 305 304 304 304 304 304 305 309 319 323 324 326 328 330 329 329 328 324 322 322 321 320 320 320 310 309 317 306 305 303 303 299 298 299 301
295 297 298 300 301 303 305 305 304 304 304 304 303 301 301 301 303 305 307 307 311 316 323 326 326 326 324 322 322 322 321 318 320 309 311 311 307 307 306 305 301 297 298
296 296 299 301 302 303 302 302 304 304 304 304 303 302 301 302 303 303 304 304 306 309 314 315 317 322 324 325 321 319 318 318 320 316 309 309 306 304 304 307 309 304 303
295 297 299 302 302 301 301 301 302 302 303 303 302 302 302 302 303 303 303 305 306 310 310 311 312 318 321 322 324 322 319 318 320 320 314 310 308 306 303 302 304 306 305
293 296 299 301 300 299 300 301 300 299 300 300 300 300 301 301 302 303 303 304 306 307 307 308 308 310 313 320 323 322 321 318 318 318 317 315 314 313 308 307 306 304 303
294 298 300 299 299 299 299 299 298 297 297 298 298 299 300 301 303 304 304 304 304 305 305 305 305 306 309 311 318 319 319 318 318 318 316 315 310 311 307 307 302 302 300
296 297 298 298 298 297 297 297 296 296 296 296 297 298 300 301 302 301 302 302 300 303 301 301 302 302 304 306 314 315 314 316 314 314 314 313 311 309 309 308 307 305 299
297 297 296 296 296 296 295 295 295 294 294 295 296 297 297 298 298 299 298 296 295 295 296 296 297 297 298 300 303 306 308 307 306 306 304 303 303 303 302 302 303 303 301
296 296 295 295 294 294 293 293 293 293 293 294 294 294 295 295 295 294 293 293 293 293 293 294 294 294 293 294 296 297 298 301 299 298 297 297 298 297 297 297 297 297 297
297 295 295 293 293 292 292 292 292 292 292 293 293 293 293 293 292 292 292 292 291 291 291 292 291 291 291 291 291 292 292 292 292 293 295 293 296 294 294 294 293 293 294
295 294 294 293 292 291 291 291 291 291 291 292 292 291 291 290 290 290 291 291 291 290 291 290 289 289 289 288 288 288 289 289 289 289 288 288 288 287 289 290 290 290 290
295 293 293 293 293 292 291 291 291 291 291 292 291 290 289 290 290 290 290 291 290 289 289 290 292 290 288 288 289 289 289 290 290 291 292 291 288 286 286 287 287 287 288
293 293 292 292 291 290 291 291 291 292 292 292 291 290 291 291 291 293 293 291 290 290 292 292 292 292 292 291 289 290 290 289 288 288 290 291 293 295 293 289 288 288 287
295 293 292 291 290 289 289 290 291 292 294 294 293 294 293 293 293 292 292 292 291 292 292 292 291 291 292 293 292 290 287 286 285 285 284 287 287 288 293 293 293 291 285
296 294 293 291 290 289 289 289 290 292 293 292 292 292 292 291 291 291 290 290 289 290 290 290 291 290 291 292 291 289 284 279 277 277 277 282 284 282 279 285 287 286 289
295 294 292 290 290 289 289 290 291 290 291 291 291 292 291 291 290 289 288 288 288 288 288 287 284 285 289 291 289 286 274 277 278 273 271 272 274 279 280 279 279 279 279
294 293 291 290 289 289 290 290 289 289 290 290 290 291 291 290 289 288 287 287 287 286 285 283 279 278 278 288 287 279 272 275 275 277 278 279 280 288 287 280 278 278 279
292 290 289 288 289 288 289 289 289 289 289 289 290 290 290 289 287 286 286 286 286 284 282 277 275 283 274 288 286 281 278 276 277 277 279 285 284 287 286 279 277 276 277
290 289 289 288 288 289 289 288 289 288 290 290 290 290 290 288 287 286 286 285 282 277 274 274 274 275 279 280 287 286 280 279 278 278 279 280 286 286 285 284 277 278 279
289 288 288 288 289 290 289 288 288 289 290 290 290 289 288 288 287 285 283 282 281 280 279 277 276 277 275 283 285 286 286 284 279 279 279 279 285 285 285 281 283 283 278
288 288 288 288 289 290 290 288 288 288 289 289 288 287 287 287 286 282 280 278 276 276 276 277 275 275 276 276 284 285 285 284 280 279 282 284 283 283 279 281 282 279 274
289 289 288 288 288 288 288 289 288 288 288 288 286 286 285 285 284 281 280 279 277 276 276 276 275 274 275 275 277 279 278 282 281 282 277 281 280 280 278 277 276 275 275
291 291 290 290 290 290 289 289 288 288 286 286 285 283 285 286 281 281 279 280 277 277 276 275 275 274 274 277 280 281 280 278 281 281 277 275 273 273 273 274 274 274 274
293 292 292 292 292 291 290 289 289 288 287 284 283 283 282 281 280 278 277 283 284 285 285 284 278 278 281 283 285 285 284 284 285 278 275 273 271 272 272 272 272 272 273

GFSMW_sfc_thetae_057.txt.gz
Theta_e
309 307 306 305 306 311 320 330 331 333 334 333 332 332 331 333 333 334 335 334 333 333 333 333 333 333 331 332 331 329 326 326 324 322 325 323 322 322 322 321 317 317 316
303 303 304 304 305 307 310 313 325 325 330 332 332 333 333 334 335 335 335 335 336 336 334 332 331 330 330 329 329 328 326 325 322 324 318 317 320 317 316 315 313 313 312
303 302 303 303 305 306 306 307 308 309 310 314 312 312 313 316 325 330 331 329 326 333 334 335 334 332 329 328 329 328 326 325 322 322 323 312 312 312 315 311 309 309 309
300 301 302 303 304 306 309 308 308 308 308 308 308 308 309 309 308 309 311 311 312 314 319 327 330 331 330 327 328 328 327 325 323 316 316 318 313 311 309 313 311 305 306
302 301 302 304 305 307 307 307 307 307 308 308 308 307 307 307 308 308 309 311 312 316 317 318 320 322 322 323 324 324 324 324 324 320 317 317 312 309 309 309 315 312 312
303 303 302 304 306 306 305 306 306 305 306 307 307 307 307 307 308 308 309 310 311 315 313 314 315 317 320 321 322 323 324 323 322 324 321 316 312 313 306 305 306 308 312
298 299 301 303 304 303 304 305 304 303 304 304 305 305 305 306 306 307 308 309 311 312 311 310 311 312 314 317 321 323 324 323 320 321 320 318 317 315 312 312 311 307 309
295 297 301 304 303 303 303 303 302 301 302 303 303 304 305 306 307 309 309 309 308 309 307 308 308 309 310 313 318 321 321 320 319 319 319 318 316 314 313 314 309 304 303
295 297 301 302 302 302 302 302 301 300 300 301 302 303 306 306 307 306 307 305 303 304 303 303 304 304 306 309 314 315 315 312 312 313 314 313 310 311 310 311 310 307 302
297 299 300 300 300 301 300 300 300 299 299 300 301 301 302 303 303 304 301 300 299 299 299 300 300 300 301 304 308 309 309 307 307 307 307 306 305 303 303 304 305 305 304
298 299 299 299 299 298 298 297 297 297 297 298 299 299 299 299 299 298 297 297 297 297 297 297 297 297 297 299 301 302 302 301 301 301 301 300 299 298 299 301 301 301 301
298 298 298 297 296 296 296 296 296 296 296 297 297 297 297 297 296 296 295 296 295 295 295 295 294 294 295 295 297 296 296 296 296 296 296 295 296 296 297 298 297 296 295
297 297 296 296 296 295 295 295 295 295 295 296 296 295 295 295 294 294 294 295 294 294 294 294 293 292 292 292 293 293 293 293 293 293 293 293 293 293 293 294 293 293 293
297 296 295 296 295 294 294 294 294 294 294 295 294 293 293 293 294 294 294 294 293 293 293 294 293 291 291 291 291 292 292 292 292 293 294 293 292 292 292 292 291 291 291
295 296 296 295 295 294 294 294 294 294 294 294 293 293 293 293 294 294 293 293 293 293 293 293 293 293 292 291 291 291 291 290 290 290 291 292 294 295 294 292 290 290 290
297 297 296 295 294 293 293 293 293 294 294 294 294 294 294 294 294 294 293 293 293 293 293 292 292 292 293 293 293 291 289 288 287 287 287 288 287 289 292 292 293 291 288
297 296 296 295 294 293 293 292 293 294 294 294 294 294 293 293 292 292 291 291 291 291 291 291 291 291 292 292 291 289 285 283 283 284 285 285 285 284 284 287 287 288 289
296 297 296 294 294 292 292 292 293 292 293 293 293 293 292 292 291 290 289 289 290 289 289 288 288 290 291 291 289 285 281 281 281 281 281 284 284 286 284 284 283 283 286
297 298 297 295 293 292 292 292 291 291 292 291 292 292 292 291 290 288 288 288 288 287 286 285 284 284 286 289 287 283 281 281 281 282 284 285 286 288 286 283 281 281 283
295 294 293 291 291 291 291 291 290 290 290 291 291 292 291 290 288 288 287 288 287 286 284 282 281 285 283 288 286 283 282 280 281 282 283 286 286 286 286 283 281 280 281
292 291 291 291 291 291 291 290 289 288 291 292 291 291 291 289 288 287 287 286 285 283 281 281 280 281 284 284 288 286 282 282 281 282 282 283 286 285 285 283 281 281 283
290 290 290 289 290 291 290 289 289 291 291 291 290 290 289 289 288 286 285 284 283 282 282 282 281 281 280 283 286 287 286 285 282 281 282 283 284 284 285 282 283 283 279
289 289 290 289 289 290 291 289 290 290 290 290 289 288 288 287 287 285 283 282 280 280 280 281 280 279 279 279 284 287 286 286 283 283 283 284 283 282 280 281 282 279 278
289 289 289 288 288 290 290 291 290 290 290 289 288 287 287 286 285 284 283 281 280 279 279 279 279 278 278 278 279 282 282 283 283 283 282 282 281 280 280 278 278 278 278
291 290 290 290 289 290 290 290 289 289 288 288 287 287 287 287 284 283 282 281 281 281 280 279 279 278 277 279 281 281 281 282 283 283 281 279 278 277 276 276 277 277 277
292 292 292 292 292 291 290 290 290 289 288 287 286 286 286 285 284 282 282 286 286 286 286 285 280 279 281 283 285 286 286 285 285 281 279 278 277 276 275 275 275 276 276

GFSMW_sfc_thetae_060.txt.gz
Theta_e
316 315 316 315 314 317 334 337 338 339 339 339 338 337 338 339 341 341 341 340 340 340 339 339 339 340 338 338 337 337 335 334 335 331 330 332 333 331 331 331 331 329 327
314 313 312 312 313 314 319 331 335 338 339 341 341 340 340 340 340 341 340 340 340 340 340 340 339 339 338 337 337 336 333 333 334 329 327 322 324 326 327 328 326 325 324
313 314 310 310 311 311 313 317 323 332 336 339 337 334 333 334 336 338 339 339 335 338 337 338 338 338 337 334 336 335 332 328 332 330 327 320 315 321 324 324 321 320 320
310 310 309 308 309 311 313 314 314 316 318 324 328 330 331 331 326 323 320 319 316 317 319 327 332 333 333 330 330 331 330 329 325 324 324 326 321 316 314 321 321 318 316
310 310 310 311 310 312 313 314 314 313 313 314 315 316 315 315 315 315 314 316 317 320 320 320 322 323 325 326 325 326 325 327 326 325 320 321 321 319 315 312 317 320 315
310 311 313 311 311 313 313 313 313 312 313 314 314 315 314 313 314 314 314 315 317 319 318 318 319 321 322 323 324 324 322 322 323 325 324 319 317 317 314 312 314 313 319
309 309 311 309 310 311 311 311 311 311 312 313 313 313 313 313 313 313 314 313 315 316 317 316 316 317 318 319 322 322 322 323 323 323 323 321 320 318 313 312 311 311 316
303 304 307 309 310 310 311 310 310 309 310 311 311 311 311 313 313 313 314 315 315 314 313 313 313 313 314 315 318 320 322 323 323 322 322 321 320 317 315 314 312 309 311
303 304 303 306 310 310 310 310 309 309 309 309 310 310 312 311 311 312 313 313 311 309 309 309 309 309 310 312 316 318 318 317 315 314 313 311 309 311 313 314 313 310 305
301 302 303 305 308 309 310 310 309 308 307 308 309 309 309 310 311 311 310 308 307 306 306 306 306 306 307 309 312 312 311 311 311 311 309 307 307 307 308 310 311 308 307
301 302 303 305 306 306 307 307 306 305 306 306 306 307 307 307 308 308 307 305 304 303 303 303 303 303 304 306 309 306 305 305 304 305 304 303 306 306 305 307 305 304 306
303 303 304 305 304 304 304 303 304 304 305 304 304 304 305 304 305 304 303 303 302 302 301 301 301 301 301 303 304 303 303 303 302 302 302 301 301 302 303 303 303 302 302
303 304 305 305 305 304 303 303 302 302 303 302 302 302 302 302 303 302 301 301 301 300 300 299 299 298 298 299 300 300 299 299 299 299 298 298 299 299 299 299 299 299 298
304 305 305 305 305 304 304 303 301 301 300 300 301 300 301 301 301 300 300 300 299 299 299 298 297 296 295 295 295 296 296 296 296 296 296 296 296 296 296 295 295 295 296
302 304 305 305 305 303 303 302 302 301 301 300 299 298 299 299 298 298 298 298 298 298 297 295 295 295 294 294 294 294 294 293 293 293 293 294 295 295 295 294 294 294 294
301 303 305 305 304 304 303 302 301 300 300 299 299 299 298 298 298 297 295 295 295 294 294 294 294 294 294 295 294 293 293 293 292 291 291 291 290 292 293 293 292 292 292
302 302 303 304 304 304 303 301 300 300 299 299 299 298 297 296 295 295 293 293 293 293 293 293 293 293 293 293 292 291 290 289 287 288 288 288 288 287 287 288 288 289 289
302 302 304 305 305 304 302 301 299 298 298 298 298 297 296 294 294 292 291 291 291 291 291 291 292 292 292 291 289 287 286 286 285 286 286 288 288 288 286 286 286 287 288
304 302 304 305 305 302 300 298 297 297 296 296 296 296 295 293 291 290 290 290 290 289 289 289 289 289 290 289 287 286 287 286 285 286 287 288 288 288 286 285 284 284 285
301 301 303 303 302 300 299 297 296 296 295 295 295 295 294 292 290 290 288 289 289 287 288 286 287 288 289 288 287 286 285 283 284 284 286 286 287 287 287 286 284 282 284
298 298 300 300 300 298 298 296 295 293 295 296 295 294 293 292 290 289 288 288 287 286 286 286 285 286 288 288 287 285 284 284 283 284 284 285 286 286 285 285 284 283 285
295 296 297 297 297 297 297 295 294 295 295 295 294 293 292 291 289 288 287 287 286 286 286 285 286 286 286 287 289 289 287 286 284 283 284 285 285 284 285 285 283 284 282
295 296 297 295 296 296 296 294 295 294 294 292 291 291 290 289 288 287 286 285 286 286 285 284 284 284 283 284 287 288 289 288 284 285 284 285 283 282 282 282 282 281 281
294 295 295 295 294 295 295 295 295 294 292 292 291 290 289 288 287 287 286 286 285 285 284 284 283 283 282 282 283 286 287 286 285 284 285 284 283 281 281 281 280 280 280
295 295 295 294 294 294 294 294 294 293 292 292 290 288 288 288 286 286 286 286 286 286 284 283 283 282 281 282 283 283 283 284 284 284 284 283 282 281 280 279 279 280 280
294 294 294 294 294 292 293 292 292 291 291 289 289 289 288 289 287 286 286 288 287 287 287 286 284 283 284 284 285 285 285 286 286 284 282 282 282 280 279 278 278 279 279

GFSMW_sfc_thetae_063.txt.gz
Theta_e
317 319 318 318 317 328 337 339 339 340 340 339 338 339 338 340 340 341 341 341 340 340 340 340 339 338 336 336 336 335 333 332 336 332 331 332 333 333 332 332 330 330 331
315 317 315 316 316 316 327 336 338 339 340 340 340 340 340 341 341 343 342 341 341 340 339 339 338 338 337 336 335 334 332 333 335 328 328 322 325 326 329 329 327 327 328
313 316 315 314 315 315 316 326 335 337 339 340 341 340 339 339 338 339 339 340 340 340 339 339 337 338 337 335 335 334 332 328 329 330 325 319 316 321 324 325 325 324 323
312 314 315 313 313 314 317 317 321 330 336 338 337 333 331 332 335 335 335 331 323 323 325 328 333 335 334 331 331 331 331 329 326 326 326 327 322 316 314 322 323 323 319
312 313 313 314 314 315 317 317 317 318 320 323 329 331 331 330 323 319 317 316 317 319 320 320 321 322 323 325 326 326 325 325 324 325 323 323 323 322 316 313 316 323 321
311 314 315 315 314 316 317 317 315 314 316 316 317 319 319 316 315 316 315 316 316 319 319 318 319 320 321 322 324 324 324 321 320 321 321 321 319 315 313 312 314 316 317
309 311 312 314 313 314 315 314 313 312 314 315 315 316 316 316 315 316 315 315 315 316 318 317 317 317 318 318 320 321 322 319 319 320 320 321 321 321 315 312 310 311 314
306 306 309 311 313 314 314 312 312 312 313 314 314 314 314 314 314 314 314 314 314 315 315 314 314 314 314 314 316 318 320 321 322 322 322 322 321 319 315 313 311 307 309
304 306 307 306 311 313 313 312 312 311 311 312 312 312 313 313 312 314 314 314 313 311 310 310 310 311 311 311 313 316 316 318 316 313 312 310 309 309 311 313 313 311 305
304 304 305 306 308 312 313 313 312 310 310 311 311 311 311 312 312 312 312 311 310 308 308 308 308 308 308 309 311 312 312 312 311 311 309 308 307 308 309 308 309 309 308
304 305 306 307 308 311 311 311 310 309 309 309 309 309 309 309 310 310 309 308 307 306 305 305 305 305 305 307 309 308 307 307 306 306 305 304 307 307 307 308 307 307 307
305 306 306 307 307 308 308 308 308 307 308 308 308 308 308 307 307 307 306 306 305 304 303 303 302 302 303 304 305 305 305 305 304 304 304 303 304 303 304 305 304 303 302
305 306 306 306 306 306 306 306 306 306 306 306 306 305 305 305 305 305 304 304 303 303 302 301 300 300 300 301 301 302 301 301 301 300 300 299 301 299 300 300 299 299 298
303 306 306 306 307 307 307 306 305 305 304 303 303 303 303 303 303 303 302 302 302 301 301 300 299 298 297 297 297 298 298 297 297 297 297 297 296 296 296 296 295 296 295
303 303 306 307 308 307 307 306 305 304 304 302 301 301 301 301 301 300 300 300 300 300 299 297 297 296 296 295 295 296 296 295 294 294 294 294 295 295 295 294 293 293 292
302 304 305 307 308 307 306 306 305 304 304 302 302 302 300 300 299 299 298 297 297 296 296 295 295 295 295 295 295 295 294 294 293 291 292 292 292 293 293 292 292 290 290
303 303 305 306 308 308 308 306 305 304 302 302 301 301 300 299 298 298 296 295 294 294 294 294 294 294 294 295 294 294 292 290 289 288 289 288 287 287 287 288 288 290 289
301 304 304 306 307 309 308 307 305 303 301 301 300 300 299 297 296 295 293 293 293 292 292 292 293 293 292 292 291 290 287 286 286 286 286 287 287 287 286 286 285 286 287
301 303 306 305 307 307 308 305 302 301 300 299 299 299 298 296 295 293 292 291 291 290 289 291 291 290 290 290 288 287 286 286 285 286 287 288 288 288 287 285 283 283 285
301 302 304 304 305 307 306 302 300 299 298 298 298 298 297 295 293 292 289 290 289 287 288 287 288 290 289 289 287 287 285 284 283 284 286 287 287 287 287 285 283 281 282
301 300 302 303 304 305 303 301 300 298 299 298 298 297 296 294 293 290 289 289 287 286 287 286 286 287 288 288 288 286 284 283 282 283 283 284 287 286 286 286 283 283 284
299 299 300 300 301 301 300 299 298 299 298 297 296 295 294 293 291 289 287 287 286 286 286 286 286 287 287 289 289 288 287 286 283 282 283 284 285 285 286 286 286 284 283
299 298 299 298 298 299 299 298 298 297 296 295 294 294 293 292 290 288 287 286 286 286 287 285 284 284 285 285 289 289 290 289 285 283 284 285 285 284 283 284 284 284 280
299 298 297 297 297 298 298 299 298 297 295 294 293 292 290 289 289 288 287 286 285 286 287 284 283 284 283 282 283 286 287 289 286 285 284 285 285 284 282 281 281 280 279
299 297 297 297 297 297 297 297 296 295 294 293 292 290 290 289 287 287 286 286 288 289 286 285 284 283 282 282 284 284 284 284 285 284 283 282 282 281 280 279 279 279 279
298 296 295 296 296 296 295 294 295 293 292 291 291 289 288 289 287 286 286 290 291 290 289 289 286 284 286 285 286 286 286 286 286 283 282 281 281 280 279 278 278 278 279

GFSMW_sfc_thetae_066.txt.gz
Theta_e
312 315 314 313 314 329 333 335 335 335 335 334 332 332 332 334 334 335 336 336 335 335 334 333 335 334 333 332 332 330 329 329 330 329 325 326 328 327 328 327 325 323 323
311 312 312 312 311 313 329 333 335 335 335 335 335 335 334 335 336 337 337 337 337 336 335 334 334 334 334 333 332 332 329 329 330 325 323 318 319 322 323 323 321 319 318
309 310 310 310 311 310 314 328 333 335 335 336 335 335 333 334 333 334 334 336 336 336 337 336 335 335 335 333 333 331 329 327 328 328 323 316 312 314 317 318 318 317 316
307 310 309 309 309 309 311 312 320 331 334 335 334 331 328 327 330 331 331 326 320 319 319 321 327 333 332 330 327 328 327 327 324 325 326 324 322 316 312 315 316 316 313
306 307 309 310 310 311 311 311 313 316 323 329 332 329 327 327 317 314 314 313 313 315 317 316 316 316 317 318 319 319 320 320 318 319 319 317 320 320 316 311 311 316 316
305 307 310 310 310 311 312 311 311 312 313 315 318 322 323 312 310 310 310 310 311 315 315 316 315 315 316 316 317 318 318 317 315 316 317 316 316 314 313 311 310 309 314
303 306 308 309 309 309 311 311 309 309 311 312 312 312 312 310 310 310 309 309 309 311 313 313 312 312 313 314 314 314 315 316 314 316 317 318 316 317 316 313 310 308 312
299 299 301 305 307 310 310 310 309 308 309 310 311 311 311 310 310 310 310 309 309 309 309 309 309 309 309 309 310 311 313 315 315 313 314 315 316 315 313 312 310 307 306
297 297 299 300 301 309 310 309 309 309 309 310 309 309 310 310 308 310 309 308 307 307 304 306 305 306 306 307 308 309 310 312 311 312 311 310 309 310 311 313 312 310 304
299 299 299 300 301 304 309 310 308 307 307 307 308 308 309 309 309 309 307 307 304 304 303 303 303 303 304 305 305 307 309 309 309 309 308 307 307 307 308 308 309 309 307
299 300 300 301 302 305 306 306 307 306 306 306 305 305 305 307 307 307 305 304 303 302 301 301 301 301 301 301 302 306 306 306 305 305 304 303 306 305 304 303 303 301 304
300 301 301 301 301 303 304 304 303 303 304 305 305 304 304 303 304 304 303 302 302 301 300 299 299 299 299 299 299 300 301 304 303 303 303 301 303 301 300 299 297 297 295
298 300 301 300 300 301 302 302 301 302 302 302 302 302 302 302 302 301 301 301 300 299 299 298 297 296 296 296 296 297 297 296 295 296 295 295 296 293 293 295 295 293 295
299 298 300 300 300 301 301 301 301 300 300 300 299 299 299 300 299 300 300 300 299 298 298 297 296 295 294 294 295 295 294 294 294 294 293 293 293 295 295 294 294 294 293
298 298 299 301 301 301 301 301 301 300 299 298 298 297 297 297 298 298 297 298 297 296 296 295 295 296 295 295 295 296 295 294 293 293 293 293 294 296 295 293 292 292 290
299 299 299 301 302 301 301 301 300 299 299 298 298 298 297 296 296 295 295 294 294 294 294 295 295 294 295 295 296 295 294 293 292 290 288 289 291 292 293 293 292 290 288
297 297 298 299 301 302 303 301 300 300 299 298 298 298 297 296 295 296 296 292 291 293 293 293 294 293 294 296 295 295 291 289 287 287 285 286 287 286 284 288 290 289 290
296 297 298 298 300 303 302 302 301 299 298 297 297 297 296 295 294 295 294 291 293 292 292 292 292 292 292 294 293 292 287 285 284 284 284 282 282 284 284 283 283 283 284
297 297 298 298 298 300 302 301 299 298 297 296 296 296 295 293 293 293 290 291 291 290 290 291 290 289 289 291 290 285 282 283 282 283 284 286 285 288 287 283 281 280 282
297 297 296 297 298 298 301 299 297 296 295 296 296 295 294 293 293 292 289 290 290 288 288 287 287 290 286 290 289 286 283 282 282 282 284 287 286 288 288 282 279 278 279
297 297 296 296 297 299 298 297 295 293 296 296 295 294 293 293 292 288 288 289 288 287 286 286 285 284 286 286 289 288 282 281 280 280 280 282 287 287 286 286 280 281 281
297 296 294 295 296 297 297 295 294 296 296 295 294 293 292 293 291 289 288 287 286 285 285 285 283 284 285 289 289 289 287 285 281 280 281 282 286 286 286 285 286 284 284
297 296 294 295 294 295 295 294 294 294 294 293 291 291 293 291 290 288 287 286 286 285 285 285 282 282 283 283 290 291 290 289 284 281 283 285 286 285 283 285 286 285 280
293 296 294 293 293 294 294 295 294 294 293 291 290 292 291 290 289 288 287 286 285 285 285 284 281 281 281 281 282 284 285 289 287 286 281 284 285 285 282 281 281 279 278
293 296 294 295 294 293 293 294 293 293 291 290 289 290 290 290 287 287 287 286 287 288 286 284 282 282 280 281 283 283 283 283 285 283 281 280 280 279 279 278 278 278 277
293 295 295 294 295 295 294 293 293 292 292 290 289 289 288 288 287 286 285 290 290 291 292 291 285 283 286 288 288 287 287 288 288 282 280 279 279 279 279 278 277 277 278

GFSMW_sfc_thetae_069.txt.gz
Theta_e
310 313 314 314 324 330 331 333 333 334 334 332 330 331 329 330 330 332 334 334 334 334 331 331 331 333 331 331 331 330 329 328 328 327 323 324 326 326 326 327 325 323 322
308 310 309 310 313 328 330 331 334 332 333 333 332 333 332 332 333 334 335 336 335 335 333 332 332 333 332 332 331 331 330 329 329 325 323 317 318 321 321 320 321 319 317
306 308 309 308 309 313 327 332 333 334 333 334 333 333 332 332 332 332 333 334 335 335 336 335 335 334 334 332 333 331 330 326 325 326 321 314 311 314 318 317 317 317 316
305 308 310 307 307 307 311 326 331 333 335 334 332 329 328 326 328 329 331 323 324 321 319 321 326 330 330 327 325 326 324 322 321 320 323 322 319 315 311 314 315 314 312
304 306 307 308 309 309 309 310 320 330 333 333 333 330 326 327 323 320 318 316 314 316 316 316 316 316 316 316 317 317 317 318 317 315 313 314 315 315 311 307 310 313 313
304 305 307 308 308 309 309 308 309 313 321 324 327 327 325 319 312 311 311 311 313 314 315 315 313 314 314 315 315 315 315 315 315 314 312 311 310 310 310 310 309 309 313
301 303 305 305 306 308 308 309 308 308 310 315 318 319 321 313 312 312 309 309 309 311 312 312 311 310 310 311 311 311 311 312 313 312 312 313 315 315 312 310 309 310 311
295 297 301 304 304 307 308 308 307 307 309 309 310 310 312 311 311 310 309 308 309 309 310 310 309 307 307 307 308 308 309 311 311 311 311 314 314 316 315 313 309 305 307
296 296 297 298 301 305 307 308 307 307 308 310 309 309 309 309 309 309 310 308 308 307 306 306 306 305 305 305 305 306 307 308 309 311 308 310 309 308 311 313 313 311 304
298 299 298 297 298 301 307 307 307 307 307 307 307 308 308 309 309 308 308 307 305 305 303 303 303 302 302 303 303 304 305 305 305 306 307 307 307 307 307 308 309 309 308
297 298 299 299 299 302 304 305 304 305 305 307 307 306 306 307 307 306 306 304 303 303 302 301 300 300 299 300 300 302 303 303 302 302 304 304 305 305 304 304 304 302 303
298 299 299 299 300 300 301 302 302 303 303 303 304 304 304 304 303 303 303 303 300 301 300 299 299 298 298 297 297 299 299 301 302 302 303 301 303 300 300 300 298 296 293
296 298 298 299 298 300 300 300 300 301 301 302 301 301 301 301 301 301 301 301 299 298 298 298 297 296 296 295 295 296 296 295 295 297 297 297 297 294 294 294 296 295 294
296 296 297 298 298 300 300 300 299 300 299 299 299 298 298 298 298 298 299 298 298 297 296 296 295 295 294 294 294 294 293 293 293 292 292 292 293 292 293 294 294 294 293
296 296 295 296 298 298 299 300 299 298 298 298 297 297 297 297 296 296 296 296 296 295 295 294 294 294 294 295 293 295 295 294 293 293 294 293 294 296 295 293 292 292 290
295 295 296 296 297 298 299 300 299 298 298 297 297 297 296 295 295 294 294 293 293 292 293 293 294 294 295 296 297 296 294 293 292 290 290 290 291 293 294 293 293 291 290
295 295 295 295 295 297 301 300 300 299 297 297 297 296 295 295 294 294 293 291 290 290 290 292 294 293 294 296 297 296 292 290 288 287 285 285 288 286 284 289 290 290 291
295 295 295 295 296 296 299 301 300 299 297 296 296 296 295 294 293 293 292 293 289 289 289 291 293 292 293 295 295 293 287 286 286 284 281 280 281 283 283 283 283 283 283
295 296 295 295 295 296 297 299 299 298 297 296 296 295 295 293 292 291 290 291 288 288 290 291 291 289 290 293 293 287 284 281 280 282 284 285 284 288 288 283 281 281 283
293 295 295 295 294 295 297 298 298 297 296 296 295 295 294 293 290 290 291 289 289 289 289 287 288 291 288 292 290 285 282 280 281 282 283 289 287 290 288 282 280 278 279
291 293 295 293 294 295 296 295 294 294 295 296 295 294 293 291 290 290 290 288 288 288 287 286 286 287 288 287 290 289 283 281 281 280 281 282 289 289 288 286 280 280 281
291 292 294 293 295 295 295 294 294 294 295 294 293 292 291 292 290 290 288 288 287 287 286 286 285 285 285 289 290 290 287 285 280 280 280 282 288 288 287 286 286 285 284
291 292 292 293 293 293 293 293 293 294 293 292 291 291 290 291 291 289 288 287 287 286 285 285 284 283 283 283 291 291 289 288 282 281 283 286 287 286 284 285 286 286 280
290 291 291 292 292 293 293 293 293 293 292 290 289 289 289 290 289 288 288 287 286 285 285 285 284 282 281 281 282 286 288 290 287 286 283 284 285 285 282 282 281 280 279
291 291 292 293 295 295 294 293 293 292 290 289 288 288 289 290 288 288 287 287 288 288 286 286 285 282 280 281 284 284 283 283 286 284 281 281 280 280 280 279 279 278 278
293 293 292 294 296 296 295 295 294 293 292 290 290 290 289 290 288 286 286 291 291 291 292 291 287 284 287 288 289 288 288 288 289 284 280 279 280 279 280 279 278 278 279

GFSMW_sfc_thetae_072.txt.gz
Theta_e
308 311 313 324 331 330 332 332 333 334 335 333 333 332 330 332 332 331 331 332 332 332 330 329 330 330 331 331 330 329 328 328 328 326 324 323 324 324 325 325 324 324 323
305 308 310 310 323 330 331 331 333 332 334 333 332 331 330 329 330 332 332 333 335 335 331 330 330 330 331 331 330 330 328 327 328 323 320 314 316 318 319 319 320 318 318
305 305 308 308 309 323 329 332 333 334 334 333 332 331 331 331 330 330 330 334 335 335 334 332 333 333 334 332 332 331 329 326 325 325 320 314 309 312 316 316 316 315 314
303 305 307 308 306 312 325 330 332 332 334 332 331 331 329 327 330 329 330 328 330 331 332 332 333 332 330 328 326 326 323 321 318 319 320 318 317 314 311 313 314 314 311
303 305 306 309 308 307 311 321 328 332 333 333 331 330 326 327 326 326 325 321 322 321 319 318 316 317 319 318 317 316 316 317 317 316 313 311 312 313 311 310 309 311 312
302 304 306 307 306 307 307 307 315 322 325 327 329 329 328 325 319 319 319 316 316 318 319 318 317 315 314 314 315 314 313 313 313 313 312 310 308 307 307 306 306 307 309
300 301 303 304 305 306 307 307 308 311 318 322 323 326 326 324 319 317 317 313 314 315 316 314 312 310 311 311 311 310 309 309 310 311 310 311 311 311 310 309 306 306 308
293 297 300 303 303 305 305 306 306 306 308 310 316 316 319 315 316 315 314 314 313 314 314 311 310 309 309 309 308 307 307 307 308 308 309 310 311 311 311 310 310 306 307
295 296 296 297 298 303 305 306 306 306 307 307 307 308 313 312 311 311 310 310 309 310 310 309 308 306 305 305 305 305 304 306 307 308 309 310 307 307 309 312 311 311 304
297 297 297 297 297 297 302 305 305 305 306 306 306 307 306 307 309 310 309 308 306 305 304 303 303 303 303 303 303 302 303 303 304 305 304 303 303 304 307 308 309 309 309
296 297 298 298 298 299 301 303 304 304 304 304 304 304 306 307 307 306 306 305 303 302 302 302 301 301 300 300 299 299 302 301 301 300 301 302 303 304 304 304 304 303 303
296 297 298 298 298 299 300 301 302 302 302 303 303 304 304 305 304 304 304 302 301 301 301 299 299 298 298 298 298 298 301 300 300 301 300 300 302 301 300 301 299 297 297
295 294 297 298 297 298 299 300 299 300 301 301 301 301 301 301 300 300 300 300 299 299 298 298 297 296 296 296 295 296 296 295 295 296 298 298 298 296 296 297 296 296 295
295 294 294 294 296 297 298 299 299 299 299 299 299 298 298 298 298 298 298 298 297 296 296 295 294 295 294 294 293 294 292 292 292 292 292 293 295 295 294 295 295 295 293
294 294 293 293 294 296 297 299 298 299 298 298 297 297 297 297 297 296 296 296 296 295 294 293 293 293 293 294 292 293 293 294 294 294 293 293 294 296 296 294 293 293 291
294 295 295 294 294 294 296 298 298 298 297 297 297 297 296 295 295 294 293 293 292 292 292 292 292 292 294 297 297 296 295 294 293 291 290 291 292 294 295 294 293 292 291
293 294 294 294 294 294 295 296 299 298 297 296 296 296 295 294 293 293 292 291 290 290 290 290 291 291 293 297 297 298 293 291 290 288 287 288 288 286 284 290 290 291 292
290 291 292 294 295 294 295 295 298 297 297 296 296 296 294 293 292 292 291 289 288 288 288 288 289 290 293 297 296 295 288 287 286 286 285 280 280 283 283 283 283 282 283
289 290 290 293 295 294 295 295 296 296 296 296 296 295 294 292 291 290 289 289 288 287 287 288 289 290 291 296 295 290 286 286 285 285 283 283 282 287 288 282 282 282 283
291 291 291 292 293 295 294 294 295 295 295 296 296 295 294 293 291 290 288 288 290 288 288 287 288 291 289 294 293 288 284 283 282 283 284 290 285 290 289 282 281 279 280
290 291 290 290 292 294 293 293 293 293 296 295 294 294 293 292 291 289 288 288 289 288 287 287 287 288 289 290 292 289 281 281 280 281 282 283 291 291 289 286 280 280 281
290 290 290 290 292 293 292 292 292 294 294 294 294 292 291 292 291 288 287 289 288 287 287 287 286 287 287 291 292 291 288 285 280 280 281 282 288 289 288 286 286 286 284
290 290 289 289 291 292 292 291 292 293 293 292 291 290 290 290 289 288 288 288 288 287 286 286 285 285 285 284 291 291 291 288 281 280 282 285 288 288 287 287 287 288 280
291 292 289 288 289 292 293 292 292 292 291 290 289 288 288 288 287 289 289 288 287 286 286 285 285 285 284 283 282 285 287 289 286 285 283 285 286 286 283 283 282 281 280
291 293 292 290 291 293 296 294 294 293 290 289 288 287 288 290 288 289 288 288 289 289 287 286 286 285 283 283 285 285 284 285 286 284 281 280 280 280 280 279 279 278 279
289 288 291 291 290 292 294 296 294 293 292 291 290 290 290 291 289 288 287 292 292 292 293 292 289 286 289 289 289 289 289 290 290 285 280 280 279 279 280 279 279 279 279

GFSMW_sfc_thetae_075.txt.gz
Theta_e
306 311 314 326 328 329 330 333 334 335 335 334 333 332 333 331 331 331 334 334 334 331 328 328 327 327 326 327 327 329 327 327 328 326 324 321 322 322 323 322 322 322 323
303 306 309 312 326 327 329 330 332 333 334 335 334 333 330 329 330 331 332 334 333 332 330 328 328 328 328 329 329 329 328 328 328 323 317 313 315 317 316 316 317 317 316
304 304 305 309 310 323 327 330 332 334 334 332 331 330 330 329 328 330 330 331 333 332 332 331 329 329 331 330 330 330 328 325 323 325 321 314 308 312 317 315 316 314 313
303 304 305 306 308 310 324 327 330 331 332 331 330 330 329 327 328 328 328 329 331 331 333 331 332 332 331 330 329 328 327 323 318 316 319 317 318 315 309 312 313 313 311
302 303 304 306 308 308 315 326 327 329 330 329 329 327 325 327 327 326 327 325 325 325 325 325 324 324 323 322 322 321 320 317 316 314 312 310 309 311 312 307 308 310 311
301 302 304 305 304 304 307 313 320 324 327 329 328 328 327 324 323 323 323 320 319 321 321 320 319 318 317 317 317 316 313 311 311 311 310 309 307 305 304 304 304 305 307
300 300 300 303 303 304 305 306 309 317 320 323 324 326 328 326 324 321 321 318 317 316 317 317 316 314 313 313 313 311 309 309 309 309 309 309 309 309 307 305 304 304 305
294 297 297 302 302 303 304 305 305 305 308 315 319 320 323 323 323 321 320 318 317 315 315 313 311 310 310 310 308 308 306 306 306 305 306 308 309 309 309 310 306 306 306
294 295 295 296 297 298 302 304 305 305 305 306 308 312 315 316 314 314 315 312 312 313 311 309 308 307 306 305 305 304 304 304 305 306 306 307 306 307 308 309 310 308 303
295 296 296 297 297 298 300 302 304 304 304 305 305 306 306 309 311 310 308 309 309 310 308 306 305 304 304 302 302 301 303 304 304 304 303 302 302 302 305 306 308 309 308
294 295 296 297 297 297 299 300 302 303 303 303 303 304 304 305 306 307 306 304 304 303 304 304 303 301 301 299 298 299 300 301 300 300 300 300 301 301 302 303 304 304 303
293 294 295 296 297 297 297 298 299 301 302 302 302 303 304 304 304 305 305 303 303 302 302 301 299 298 298 297 297 297 298 299 299 299 299 300 301 299 298 300 300 299 298
293 293 293 293 294 295 296 298 299 299 300 300 300 300 300 301 301 301 301 301 300 299 298 298 297 296 296 296 295 295 296 295 295 295 297 297 297 297 297 297 297 296 296
293 293 292 292 293 294 295 297 298 298 298 299 299 298 298 298 298 298 298 298 297 296 295 295 295 294 293 293 292 293 292 291 291 291 292 295 295 296 295 295 295 295 294
293 293 292 292 293 293 294 295 297 298 298 298 297 298 297 297 297 296 296 295 295 295 294 293 292 292 292 293 291 292 291 292 294 293 293 294 295 296 296 294 293 294 292
291 291 291 292 293 293 293 294 295 297 298 297 297 297 296 296 295 294 293 293 293 292 292 291 291 291 293 297 298 297 294 295 294 292 292 293 294 295 296 295 294 293 291
289 289 289 290 291 293 294 294 295 296 297 296 296 296 295 294 293 293 292 291 290 290 289 289 290 290 290 297 298 298 294 293 291 290 288 288 290 287 285 290 291 292 293
288 289 289 289 290 293 294 295 295 295 296 295 296 295 294 293 292 291 290 289 288 288 288 288 289 289 290 296 298 297 289 287 287 287 286 286 284 282 283 282 282 282 283
289 289 290 290 290 291 293 294 294 294 294 295 295 295 294 292 291 290 289 288 287 287 287 287 287 287 287 295 297 291 287 286 286 286 285 284 281 285 288 283 282 282 283
290 290 290 290 289 290 291 291 293 292 293 294 295 295 294 293 291 290 288 288 287 287 286 287 286 290 288 295 295 292 287 286 285 285 284 288 284 288 289 282 281 280 281
289 290 289 289 290 290 290 290 291 291 293 294 294 293 293 292 291 289 287 287 287 287 288 288 287 288 290 290 295 294 283 283 283 282 281 282 291 290 290 287 280 281 281
288 289 288 289 290 290 290 290 290 292 293 293 292 292 291 292 290 288 287 286 286 288 288 288 287 288 289 292 293 293 289 285 280 280 280 281 289 291 290 288 286 286 284
289 290 291 289 289 289 289 289 292 291 291 291 290 290 289 289 288 287 286 286 286 288 287 286 286 286 286 287 293 293 292 289 282 279 282 285 287 289 288 289 288 288 281
289 290 291 289 291 290 291 293 294 292 290 290 289 288 287 287 286 286 287 288 288 287 287 286 286 286 285 285 285 286 287 290 287 285 281 285 286 287 285 284 284 282 280
288 289 287 287 289 289 289 291 294 294 292 289 288 287 287 288 287 287 288 289 290 290 287 287 287 286 284 285 287 286 284 282 284 282 280 280 280 281 280 280 279 279 280
287 285 286 286 287 288 289 290 292 294 293 291 291 290 290 290 289 288 288 293 292 293 293 292 290 288 291 291 291 290 289 290 290 283 279 278 279 279 280 280 280 279 280

GFSMW_sfc_thetae_078.txt.gz
Theta_e
310 315 321 327 328 330 330 333 333 334 334 333 332 333 333 334 333 333 333 332 332 331 329 327 326 325 324 325 324 323 324 326 328 326 323 319 320 320 321 319 319 320 322
305 309 312 316 326 327 328 330 332 333 333 333 332 332 331 332 333 332 332 332 333 333 331 329 328 326 326 325 326 327 326 327 327 324 317 312 315 315 316 315 316 314 315
304 306 305 309 314 322 326 329 331 332 333 334 333 329 329 328 328 329 329 330 332 332 332 330 328 327 328 328 328 328 327 325 324 323 318 310 307 309 315 314 314 313 311
304 304 305 305 307 309 322 328 329 330 331 331 331 330 328 326 327 328 328 328 329 329 330 330 329 329 331 330 328 327 327 326 322 318 318 319 318 313 307 312 313 313 310
302 303 304 305 307 308 310 322 326 327 329 329 330 329 327 327 327 326 325 323 324 324 325 327 327 326 325 324 323 321 320 319 318 316 312 309 308 311 311 304 305 308 309
302 302 303 305 305 304 307 316 321 323 325 326 326 326 327 325 324 322 322 323 323 323 323 323 324 324 322 320 320 318 317 316 314 312 310 309 306 303 303 305 304 303 306
300 301 301 303 304 303 304 306 310 314 318 321 324 325 325 324 323 322 322 321 319 317 319 319 319 317 314 314 314 313 312 311 310 310 309 309 308 308 306 305 303 302 304
296 296 298 299 300 302 303 304 305 305 305 310 315 319 321 322 322 322 321 322 322 320 319 316 313 311 311 311 310 309 307 307 306 306 305 307 307 307 307 310 307 304 306
293 294 295 295 296 297 299 301 304 305 305 305 306 308 312 316 317 316 318 318 317 317 316 313 310 309 308 307 306 305 304 304 303 304 304 305 306 307 306 307 308 305 300
294 294 295 296 296 297 298 301 302 303 304 304 304 305 305 309 313 312 311 312 310 311 308 307 307 306 305 304 303 302 302 302 302 304 303 303 302 302 303 306 306 307 304
292 294 294 295 295 296 297 298 299 301 302 302 303 303 304 305 307 307 307 306 307 308 306 305 303 303 302 301 301 300 300 300 300 299 299 300 300 300 301 304 303 302 303
291 291 292 292 293 293 295 296 298 299 299 300 300 301 302 303 303 303 303 303 303 303 303 302 301 300 299 298 297 296 297 298 298 298 298 298 300 298 298 298 298 299 299
292 292 292 292 292 292 293 294 296 297 298 299 300 300 300 300 300 301 301 301 300 299 299 299 298 297 296 295 294 294 294 294 293 293 294 295 295 294 295 297 298 297 296
291 291 290 291 292 293 293 294 294 296 297 297 298 298 298 299 298 298 298 298 297 296 296 295 295 294 293 293 292 292 291 290 291 291 291 293 296 296 296 296 296 296 294
289 289 288 288 289 291 293 294 294 294 296 297 296 297 297 296 296 296 296 296 295 294 294 293 292 292 292 293 291 292 291 291 292 294 294 294 295 297 296 295 294 294 293
288 288 288 288 288 289 291 293 293 294 294 295 296 297 296 296 295 295 294 293 293 292 291 291 291 291 293 297 298 295 291 293 294 293 292 294 295 295 296 295 295 294 292
287 288 288 288 288 289 291 291 293 294 294 294 295 296 295 295 294 293 292 291 290 290 290 289 290 290 290 297 298 298 292 290 292 291 289 289 291 288 288 291 291 292 292
287 288 288 289 290 290 291 292 293 293 294 294 295 295 295 294 293 291 291 289 288 289 288 288 289 289 290 296 297 297 290 287 287 288 287 287 286 285 285 282 282 281 283
288 288 289 289 289 289 290 290 291 292 293 293 293 294 294 293 291 290 289 288 287 287 287 287 287 287 287 295 297 292 287 287 287 287 287 287 285 287 289 282 281 281 282
288 288 288 289 289 290 290 289 290 291 292 293 294 294 294 293 292 291 289 287 287 287 286 287 286 289 285 294 296 292 288 286 287 286 285 289 284 287 290 280 280 279 280
287 288 288 287 289 290 289 288 289 290 293 293 293 293 293 293 293 289 287 287 287 286 285 287 288 289 288 288 296 296 287 287 285 285 284 284 290 289 291 286 279 280 281
287 287 287 288 289 290 288 289 288 292 292 292 291 291 291 291 290 288 287 286 287 288 288 289 288 289 290 293 294 296 291 288 283 282 282 281 288 291 291 288 286 286 284
286 287 286 287 287 288 288 288 289 292 293 290 290 289 289 288 288 287 289 287 287 288 288 287 287 287 287 288 294 294 294 290 281 280 282 285 288 290 290 290 289 288 279
286 286 287 285 285 287 287 288 289 291 292 292 292 289 287 287 287 289 289 289 288 288 287 287 286 287 286 286 287 289 291 293 288 286 282 284 285 287 286 285 285 282 281
285 285 284 284 284 285 286 288 290 290 289 292 292 290 289 288 286 285 288 289 290 291 288 288 288 286 286 286 289 288 286 286 285 282 280 280 280 280 280 280 280 279 280
284 283 283 284 283 284 284 287 289 290 289 289 291 292 291 290 289 288 288 293 293 294 294 293 290 288 291 292 292 292 291 291 290 282 280 279 279 280 280 280 279 279 280

GFSMW_sfc_thetae_081.txt.gz
Theta_e
310 315 318 326 329 330 330 330 333 333 333 332 330 333 332 335 335 337 335 335 335 332 329 329 328 329 328 326 325 325 325 327 329 329 330 329 329 329 329 329 327 327 327
307 309 313 319 325 327 329 330 331 330 333 331 331 330 331 334 337 337 335 334 335 334 333 331 328 329 330 329 328 329 329 329 330 328 323 321 323 325 325 325 324 323 324
305 307 308 314 319 326 327 328 331 331 332 332 332 331 331 331 330 332 334 332 333 334 333 333 333 331 331 330 331 331 330 327 327 328 325 317 316 319 324 323 323 322 322
306 307 308 308 312 317 326 328 330 331 332 332 332 329 327 325 328 330 331 332 333 331 331 331 331 331 330 330 330 332 331 330 328 326 326 327 325 318 315 319 320 320 318
306 305 307 309 311 311 313 323 327 328 330 332 332 329 325 324 328 329 329 328 327 329 330 330 330 328 326 326 325 328 325 326 325 325 322 321 320 319 314 309 313 317 318
306 305 307 309 308 308 310 318 324 326 327 328 328 328 326 325 325 327 327 326 325 326 328 329 328 326 325 324 322 321 320 321 320 319 317 316 314 312 312 310 311 310 314
304 304 303 304 305 306 307 309 312 315 321 326 326 327 326 326 326 326 326 324 325 324 325 326 326 324 324 323 321 319 318 316 314 314 314 316 315 315 313 311 309 308 311
299 298 299 299 301 302 304 306 308 307 308 311 317 321 323 326 326 325 325 325 325 325 325 324 322 319 318 317 316 314 313 313 314 313 312 313 313 314 314 312 309 306 307
296 297 298 299 300 301 302 305 306 307 308 308 308 309 314 320 321 322 324 323 323 320 322 321 319 315 314 311 310 309 309 309 309 310 310 310 311 312 313 313 312 308 301
296 297 297 297 298 299 301 302 304 305 306 306 307 307 308 310 316 318 318 318 318 318 316 312 311 309 308 308 307 307 307 307 307 308 309 309 310 310 310 310 310 309 306
293 294 295 296 296 297 298 300 301 302 304 304 305 306 307 307 310 313 312 313 313 313 311 310 308 307 306 306 306 305 304 304 305 305 305 305 306 307 307 308 308 307 307
293 294 295 296 296 296 297 297 298 300 301 302 304 305 305 307 308 309 309 309 309 310 310 308 306 304 303 303 303 302 302 303 303 302 303 303 303 304 305 305 304 303 304
293 292 293 293 294 295 296 297 297 298 299 301 301 303 304 305 305 305 305 305 305 305 304 304 302 301 300 298 298 298 298 298 298 298 299 300 301 301 301 302 302 302 300
290 290 290 290 291 292 293 295 296 297 298 298 300 301 302 303 303 302 302 302 301 300 300 300 299 298 297 297 297 296 296 296 296 296 297 297 299 300 299 298 299 298 297
289 289 289 290 290 291 292 293 295 296 296 297 298 299 300 301 301 301 300 300 299 299 298 297 297 297 296 296 296 296 296 296 296 296 297 297 297 297 298 297 297 296 295
288 289 290 290 290 290 291 292 293 294 296 296 296 298 299 300 299 299 298 298 297 297 296 296 296 296 295 298 298 297 296 296 296 296 296 296 297 297 297 296 296 295 294
288 289 289 289 290 291 291 291 292 294 294 295 296 297 297 298 298 298 297 296 296 295 295 295 295 295 296 299 300 299 296 295 295 294 293 292 292 291 292 293 293 293 292
288 288 289 290 290 291 291 292 292 293 294 294 295 296 297 297 297 296 296 295 294 294 294 294 294 294 294 298 299 299 296 292 289 290 290 290 288 288 288 286 286 286 288
288 289 289 290 290 290 291 291 291 292 293 294 294 295 296 296 295 295 294 294 293 292 292 292 292 292 293 297 298 295 289 290 289 291 291 290 288 290 290 286 285 285 286
289 288 289 289 289 291 290 290 291 291 291 293 294 294 295 295 295 295 293 292 292 291 291 289 290 292 291 295 297 295 291 289 289 289 288 291 288 291 292 285 285 283 284
288 289 288 288 289 290 289 289 290 290 291 293 293 293 294 294 294 293 292 291 291 290 289 289 288 290 291 292 296 297 291 290 288 288 287 287 292 290 290 288 284 284 285
287 287 287 287 289 288 288 288 287 290 291 292 293 292 293 293 293 292 291 290 290 290 289 289 290 291 292 293 295 297 294 292 288 288 288 287 290 291 291 290 286 286 286
286 287 286 286 286 287 287 285 287 289 290 290 291 293 292 291 291 291 291 290 290 290 289 289 289 289 289 291 295 296 297 293 287 287 287 288 289 290 291 291 290 288 284
285 286 285 284 284 285 285 286 287 289 289 289 290 291 292 292 290 290 291 290 289 289 289 288 288 289 288 288 289 292 294 294 289 286 286 287 287 289 289 289 289 285 284
284 285 284 284 284 284 284 285 286 287 287 287 287 289 291 291 291 288 290 290 292 292 290 289 290 288 287 288 291 290 289 290 289 285 284 284 284 284 285 285 284 284 285
284 283 283 283 284 284 284 285 286 286 286 285 286 286 288 290 291 290 289 293 293 294 295 294 292 290 293 293 293 293 292 293 292 283 282 281 282 283 283 283 282 282 282

GFSMW_sfc_thetae_084.txt.gz
Theta_e
312 320 320 323 327 327 327 328 327 329 335 336 335 334 335 336 336 337 336 337 336 335 336 334 335 335 333 332 332 330 328 329 333 332 329 330 332 332 331 331 330 330 329
309 316 317 320 319 324 328 328 330 331 330 331 333 334 334 336 336 339 339 339 338 337 336 335 334 334 332 335 332 330 330 331 334 328 329 321 325 328 328 329 328 328 329
307 309 314 316 320 323 325 327 329 329 330 331 332 331 331 333 332 334 335 337 337 336 337 337 335 334 333 335 334 334 333 331 332 332 327 320 316 322 326 326 327 325 326
308 309 311 311 318 321 325 325 328 328 329 330 329 328 327 324 328 328 333 334 335 336 335 334 333 331 331 329 330 331 331 332 328 330 331 331 327 318 315 322 323 324 320
309 307 309 311 313 320 326 326 327 329 329 330 330 328 326 327 327 326 329 331 330 333 331 331 330 330 330 329 327 327 325 325 324 323 324 328 328 326 321 310 313 318 320
308 306 307 309 309 310 313 316 322 327 330 330 329 328 326 326 322 323 324 326 328 329 329 330 330 329 327 325 324 323 321 323 322 323 323 323 318 316 314 313 312 313 316
302 303 303 305 306 308 310 312 320 320 327 329 329 330 329 329 325 325 326 327 326 327 327 329 328 328 327 327 325 323 321 322 321 322 321 319 318 318 315 314 312 311 313
301 298 300 303 305 306 308 310 311 310 311 315 322 326 330 330 328 329 329 329 328 328 329 328 328 329 329 326 324 323 322 321 320 318 318 317 317 318 317 313 311 308 309
300 299 300 301 304 306 306 309 310 310 311 311 312 312 318 326 328 329 330 330 330 329 328 327 329 327 324 322 321 318 314 314 314 315 314 313 313 314 315 315 314 310 305
297 298 298 300 302 303 306 307 308 309 310 311 311 310 311 313 318 323 324 326 328 328 327 325 326 322 320 319 317 313 311 311 312 312 312 312 313 313 314 314 313 312 310
295 298 298 300 302 303 303 304 305 307 308 309 310 310 311 311 313 316 319 320 321 322 322 321 317 316 315 314 313 311 309 309 310 309 311 310 311 311 312 312 310 309 310
297 298 298 299 300 301 302 303 303 303 304 307 309 309 310 311 311 312 313 315 318 318 317 316 314 312 311 310 308 307 307 307 306 307 308 308 307 308 310 309 307 308 309
295 295 296 296 296 297 298 300 302 302 304 304 306 308 309 310 310 310 310 310 311 313 314 313 311 309 307 307 306 305 304 305 306 305 305 305 306 306 306 307 306 306 304
294 295 295 296 296 297 297 298 298 300 301 303 304 304 306 308 309 309 309 308 309 309 309 309 307 305 305 304 304 304 303 303 303 302 303 303 304 305 306 304 304 304 303
294 294 294 295 296 296 297 297 298 298 299 300 302 303 304 306 307 308 308 307 307 306 306 305 304 303 302 301 302 302 302 301 301 301 301 302 301 299 302 302 302 301 299
293 294 294 294 295 295 296 296 297 297 298 298 300 302 303 304 305 306 306 306 305 304 304 303 303 302 300 300 301 302 301 301 300 299 300 300 297 298 299 298 297 299 298
292 293 293 294 294 295 295 295 296 298 298 298 300 300 301 301 303 304 304 304 304 303 302 302 302 300 301 300 300 300 300 300 299 299 298 298 297 296 298 296 296 295 294
292 293 293 294 295 295 296 296 297 297 297 298 299 300 299 299 301 302 302 303 303 302 301 301 301 301 300 300 300 299 300 298 294 293 294 296 294 293 293 291 290 291 292
292 293 293 294 294 295 295 295 295 296 296 296 297 298 298 298 299 300 301 303 301 301 300 301 300 299 299 299 300 299 297 294 292 292 296 297 295 293 293 289 288 289 289
293 292 293 293 293 294 293 293 294 294 294 294 295 297 298 298 298 299 300 301 300 299 299 296 298 298 298 298 299 298 295 292 291 295 295 294 293 293 293 289 290 287 288
291 292 292 291 292 292 292 291 291 291 292 293 294 295 297 297 298 298 299 298 298 297 296 294 293 296 297 297 298 298 294 293 291 291 292 293 293 293 294 292 289 287 288
289 290 289 289 291 290 290 288 289 291 292 292 293 294 296 296 296 297 298 295 296 295 294 293 292 293 295 296 296 298 296 295 291 291 293 293 293 292 291 292 289 287 287
288 289 289 288 289 289 289 287 288 290 290 290 290 291 292 294 296 295 296 293 294 294 293 291 292 293 294 295 296 297 298 296 293 294 293 292 292 293 291 292 290 288 287
287 288 288 287 287 288 289 289 289 289 289 289 289 290 290 291 294 294 293 292 291 291 291 289 289 291 290 290 291 294 296 297 294 290 290 291 291 291 292 291 291 288 287
287 287 287 287 287 288 288 289 289 289 288 288 288 288 288 288 289 291 292 291 293 293 291 290 291 290 288 290 292 291 292 293 292 288 286 286 287 287 288 289 290 289 287
286 285 285 285 286 287 287 288 289 288 287 287 287 288 287 288 287 287 289 294 294 294 295 295 293 292 295 294 294 294 294 294 293 285 283 283 284 284 285 286 287 287 287

GFSMW_sfc_thetae_087.txt.gz
Theta_e
316 322 325 326 327 327 327 328 329 327 327 327 331 332 331 333 335 338 339 339 340 339 340 337 333 334 334 333 332 330 329 328 330 329 328 331 332 331 331 331 330 329 329
313 318 319 320 319 320 323 326 326 327 328 329 330 332 335 337 337 338 338 337 337 336 336 336 334 334 334 334 333 332 329 329 331 329 327 323 324 327 328 328 328 327 328
309 314 316 316 317 317 323 326 327 327 328 329 329 329 330 333 332 335 336 337 338 337 337 337 336 335 334 333 335 332 330 328 333 333 328 320 317 321 325 327 326 325 324
309 312 315 315 316 318 321 325 324 327 328 328 327 326 325 325 328 331 333 336 336 335 336 335 336 335 333 330 329 330 332 331 328 331 330 328 327 319 316 323 322 323 320
310 308 312 316 317 320 320 322 323 325 328 327 327 326 324 326 327 326 328 329 332 331 333 334 333 331 331 329 329 328 327 326 323 322 321 320 322 322 319 313 315 319 320
309 306 309 313 313 313 314 315 319 322 325 326 327 325 325 324 323 325 325 325 327 329 329 330 330 330 329 328 326 324 323 322 323 322 320 318 315 316 316 313 312 313 316
306 304 304 306 307 309 310 313 316 317 321 325 327 325 326 325 323 324 323 324 324 326 326 329 329 329 329 327 325 323 323 323 320 320 320 321 321 320 316 313 312 311 313
301 300 302 304 305 307 310 311 313 311 313 319 323 327 327 327 325 326 326 326 326 326 328 329 328 329 328 326 325 324 323 322 322 322 322 320 319 318 317 314 311 308 310
300 299 299 301 304 305 307 309 310 310 311 312 313 316 324 328 328 327 328 328 329 330 329 329 328 329 327 326 325 322 321 322 321 320 317 315 315 316 316 315 314 310 304
298 298 300 300 301 304 305 307 308 308 309 311 311 311 312 313 319 326 328 329 329 330 328 327 327 327 326 323 323 319 318 317 316 315 313 312 313 313 314 314 313 312 309
296 298 299 301 302 303 304 304 304 304 306 308 310 311 311 312 313 316 319 322 325 326 325 325 325 322 320 321 320 317 315 314 312 312 312 311 312 312 312 312 312 311 310
297 297 298 299 299 299 302 303 304 304 304 305 307 309 311 312 312 312 314 316 318 320 322 322 320 318 317 318 317 314 312 311 309 309 310 310 309 310 310 310 309 308 308
296 297 297 297 297 298 298 299 300 300 302 305 305 306 308 310 310 311 311 312 313 316 317 317 315 313 313 313 312 309 308 308 308 308 307 307 307 306 307 307 307 306 306
296 296 296 297 298 298 298 298 299 300 300 301 303 304 304 305 308 310 310 309 310 311 313 314 313 310 308 308 306 306 306 306 305 305 305 305 305 305 306 305 305 305 304
295 295 296 296 297 297 298 298 299 299 300 300 300 302 303 305 305 308 309 309 308 308 309 309 307 306 304 303 303 304 303 303 302 302 302 303 302 301 303 304 304 303 301
295 296 296 296 296 296 296 297 298 298 299 299 300 301 302 303 304 305 307 308 307 306 306 305 305 304 302 302 303 303 302 302 301 300 301 300 298 298 299 299 299 301 299
295 295 295 295 296 296 296 296 297 298 298 298 300 300 301 301 302 303 304 305 306 306 305 305 304 303 303 301 302 302 302 301 300 299 299 298 298 299 298 298 297 297 296
294 294 294 295 295 296 296 296 297 297 297 297 298 298 299 299 300 301 302 303 305 305 305 304 303 303 302 301 301 301 300 299 297 296 296 297 295 295 296 294 292 291 292
294 294 295 295 295 295 295 294 295 296 295 296 295 296 297 297 299 299 300 302 303 303 303 303 302 301 301 300 301 299 297 293 292 293 294 296 296 296 296 292 289 290 290
294 293 294 294 294 294 293 292 293 292 292 292 293 295 296 296 296 297 298 298 300 301 302 300 300 301 300 299 300 300 297 293 292 294 295 297 297 296 295 291 289 287 287
292 292 292 291 291 293 291 290 290 290 292 292 293 293 294 295 296 296 297 297 297 298 298 298 297 298 299 299 300 300 297 293 292 293 293 294 295 295 296 293 290 289 288
290 290 290 290 291 292 289 288 288 290 290 291 291 291 292 293 294 295 296 296 295 295 296 296 295 295 297 299 299 300 299 297 292 291 292 293 295 294 295 294 292 290 289
289 290 289 289 290 290 289 288 289 289 289 289 289 290 290 291 292 292 293 293 294 293 294 294 294 293 294 296 298 299 299 298 293 293 294 295 294 294 293 293 292 289 285
288 289 288 287 287 289 289 289 289 289 289 288 288 289 289 289 289 290 292 291 292 291 291 290 290 292 292 293 293 295 297 298 295 294 292 292 292 293 291 290 290 286 285
287 287 286 286 286 287 288 289 289 289 287 287 287 288 289 288 288 289 288 289 290 292 291 291 291 290 289 290 293 293 293 294 294 290 288 288 288 288 288 288 288 287 286
286 285 286 285 285 286 287 288 289 288 287 286 287 288 288 288 288 288 288 290 290 291 294 294 294 293 295 296 295 295 295 295 296 287 285 285 287 286 286 287 287 287 287

GFSMW_sfc_thetae_090.txt.gz
Theta_e
314 318 321 322 323 324 325 326 326 327 327 325 325 326 327 330 332 334 335 336 336 338 337 334 329 327 330 328 326 325 324 324 323 320 321 324 327 328 326 324 322 321 321
310 315 318 316 316 319 323 325 326 327 326 325 326 328 329 331 330 333 335 336 334 335 335 333 331 328 330 329 329 326 324 324 324 321 322 317 319 322 323 321 321 318 319
308 314 316 314 315 316 318 323 326 326 326 326 328 327 328 329 330 331 331 331 334 334 333 332 332 330 330 329 329 329 327 324 324 325 321 315 312 315 320 318 318 317 315
305 310 315 313 314 316 318 322 323 326 327 327 326 324 323 322 325 327 328 331 333 332 332 332 332 331 329 327 326 327 326 326 324 326 327 323 320 313 311 316 315 316 314
305 307 313 316 316 317 316 319 323 323 325 326 325 324 322 324 325 325 324 325 328 329 330 330 330 329 329 327 327 327 327 326 323 323 320 319 318 318 314 309 309 313 313
305 304 308 313 312 312 312 314 315 319 322 324 325 325 323 322 323 323 322 324 325 326 327 329 329 330 329 327 327 326 325 324 323 322 321 317 315 314 313 312 312 310 311
302 302 303 304 307 307 309 311 313 314 319 320 321 323 323 323 320 318 322 323 323 323 325 326 328 328 328 326 326 324 322 323 322 321 320 319 317 318 316 313 310 308 309
300 301 301 303 304 306 308 310 311 310 311 314 316 322 324 323 323 321 321 323 323 323 323 326 326 327 326 327 325 323 322 322 320 319 320 319 319 320 316 312 309 305 306
297 298 299 300 303 304 305 307 308 308 309 309 311 313 323 323 324 324 324 324 324 325 324 325 325 324 324 325 325 323 322 321 320 319 320 317 315 315 315 314 311 307 301
298 299 300 300 301 302 302 303 303 304 306 307 308 309 310 313 315 320 324 325 325 325 326 324 326 325 325 326 324 323 322 320 318 317 315 312 312 312 312 311 311 309 306
297 298 299 300 300 300 301 302 302 302 302 303 306 307 308 309 309 310 313 317 320 321 323 324 323 323 325 325 322 320 317 317 314 312 312 311 310 309 309 309 308 307 306
296 296 297 297 297 296 296 297 298 299 300 302 302 304 306 307 307 308 309 310 311 315 317 320 322 321 321 321 320 317 316 315 312 310 308 308 310 308 308 307 306 305 305
295 295 294 294 295 295 295 296 296 296 297 299 301 301 301 302 304 306 307 307 308 309 312 315 316 316 315 316 317 315 312 311 308 307 307 306 306 304 304 304 304 303 304
294 293 293 293 294 295 295 295 295 296 296 297 298 298 299 300 301 303 305 306 306 306 307 310 312 311 310 309 309 307 306 305 304 304 305 305 304 303 303 303 302 302 300
292 292 292 292 292 293 294 295 295 296 296 296 296 297 299 299 300 301 302 305 304 304 305 306 305 305 305 305 304 304 304 303 303 304 303 303 303 303 303 302 301 300 300
292 293 293 292 292 292 292 294 294 294 296 295 296 298 298 298 298 299 300 301 303 302 302 302 302 301 302 304 304 304 302 302 301 300 300 299 299 300 302 301 302 301 299
292 292 291 291 291 291 293 292 293 294 295 295 295 296 297 297 297 298 298 299 299 301 300 300 300 300 299 303 304 303 301 300 299 298 298 297 298 297 295 299 299 298 299
291 291 290 291 291 292 292 292 292 293 293 293 294 294 294 294 295 296 296 296 297 298 299 299 299 298 299 302 302 302 297 296 294 293 293 293 292 293 294 293 289 289 290
290 290 290 290 290 290 290 289 290 290 290 291 291 292 293 292 293 294 295 297 297 298 299 299 299 297 296 301 301 299 292 291 292 293 294 294 292 296 298 292 287 288 288
290 289 289 290 289 288 288 287 287 287 288 289 289 290 291 291 292 294 294 295 296 296 298 298 298 298 297 300 301 298 294 292 292 293 293 296 294 297 298 288 287 285 286
288 287 287 286 287 288 287 286 286 285 288 288 289 289 289 289 289 290 291 294 295 295 296 296 296 297 298 298 301 301 295 293 292 291 291 293 298 298 296 294 288 286 287
287 287 285 286 287 287 286 285 284 286 287 287 287 286 286 288 288 286 288 289 293 293 294 295 295 297 297 299 300 301 299 296 291 290 291 292 297 296 296 295 293 293 291
285 286 284 284 285 285 285 283 284 285 285 285 284 285 286 286 286 284 284 286 289 289 290 291 292 294 294 295 299 300 301 299 293 292 292 293 296 296 295 296 294 292 285
284 284 284 283 282 283 284 283 284 285 285 283 283 284 283 284 284 285 285 284 284 286 288 288 289 291 292 292 293 296 298 299 296 294 293 294 294 294 293 293 293 286 284
284 284 282 282 282 282 282 283 284 284 283 283 283 283 284 283 283 284 284 284 284 286 286 286 289 290 289 291 294 294 294 296 295 292 289 289 288 288 288 288 287 285 284
283 282 282 281 281 282 282 283 284 284 283 283 283 284 284 283 283 283 283 288 289 289 289 289 289 290 294 295 296 295 296 297 297 289 288 287 287 287 288 286 286 286 285

GFSMW_sfc_thetae_093.txt.gz
Theta_e
299 315 317 320 320 319 321 322 323 325 326 325 324 325 325 328 329 332 333 332 332 330 329 329 328 328 328 326 325 323 322 322 323 320 319 320 324 324 326 324 322 323 321
308 313 313 313 317 319 320 322 323 324 326 326 325 326 326 327 329 331 332 333 332 333 334 331 329 326 328 326 325 323 322 322 322 319 319 315 319 321 323 324 321 318 318
307 310 313 312 311 314 317 321 324 324 326 326 326 326 326 325 325 327 330 332 334 333 333 332 331 329 328 327 326 328 324 321 322 322 321 315 313 316 317 318 317 316 314
305 308 310 314 313 312 314 319 322 325 326 326 324 323 321 320 324 326 327 328 331 331 330 330 329 329 329 327 327 327 326 325 322 325 326 323 320 314 311 317 317 314 312
302 304 308 315 317 315 313 319 321 322 325 326 325 323 322 323 324 325 325 325 326 328 331 330 329 327 328 327 327 325 325 324 323 322 320 319 318 317 313 310 310 313 313
301 302 307 309 310 312 310 313 315 317 321 322 323 324 323 322 322 322 322 323 324 325 325 327 327 328 327 326 325 325 325 326 324 322 320 317 316 315 313 310 312 311 314
300 300 303 305 307 308 307 311 312 313 317 320 321 322 322 323 322 320 321 322 322 322 324 324 324 327 327 325 325 324 324 324 324 322 321 320 318 318 317 314 312 310 310
300 300 302 303 304 305 307 309 309 310 311 312 313 316 323 323 321 319 320 322 323 324 324 325 324 325 327 326 324 324 323 323 322 322 321 320 319 319 317 315 312 306 306
298 299 300 301 302 302 302 304 306 306 309 310 310 311 314 322 321 322 320 320 323 323 323 323 324 324 326 324 324 322 322 322 322 321 320 319 319 319 318 315 312 310 302
298 299 299 299 301 302 302 302 302 302 303 306 308 308 310 314 315 317 320 322 323 324 324 323 323 323 324 324 324 323 322 321 321 320 318 318 317 317 315 313 312 310 306
297 297 297 298 298 298 298 298 298 298 300 302 303 305 306 307 309 309 311 315 318 319 320 322 323 323 323 323 323 322 322 320 320 318 318 316 314 313 312 312 310 308 307
295 296 297 297 296 295 295 296 296 295 296 298 301 301 302 302 304 305 306 307 307 310 313 315 318 321 322 323 323 322 321 319 317 315 315 314 312 311 311 309 307 307 307
295 294 294 294 294 294 294 295 295 295 296 297 297 298 299 299 300 301 304 305 305 306 308 311 312 315 317 317 319 320 318 317 317 315 314 313 311 309 307 307 307 306 305
291 291 291 292 292 293 294 294 294 295 295 296 296 296 297 298 299 300 301 302 304 303 304 306 308 309 310 312 314 313 311 312 311 310 311 310 309 307 305 305 304 302 300
291 291 290 290 290 291 292 293 293 294 294 294 295 296 297 297 298 298 299 300 301 302 303 303 304 304 304 305 306 307 307 306 305 307 307 307 306 304 306 304 302 301 299
290 290 290 290 290 290 291 292 292 292 294 293 294 295 295 296 296 296 297 297 298 299 300 300 301 301 302 303 305 305 304 304 304 303 303 304 302 303 305 306 305 304 299
290 289 288 289 289 289 291 290 290 292 292 292 293 293 293 293 294 295 295 295 295 296 296 297 298 298 299 302 304 304 302 301 301 300 300 299 300 300 300 303 303 303 303
289 289 288 289 289 290 290 289 290 290 289 290 290 291 291 291 292 292 293 293 295 296 296 296 299 299 298 302 303 303 297 297 297 296 297 296 295 295 296 294 292 292 293
288 289 288 289 288 287 288 287 287 288 287 288 288 289 289 289 290 290 290 292 294 295 296 297 298 299 299 300 302 300 293 292 291 292 295 296 295 297 298 292 288 288 288
288 288 287 287 286 285 286 285 285 286 286 287 288 288 288 288 288 287 288 289 291 293 295 296 297 298 298 300 301 300 294 292 292 294 293 297 293 298 299 291 288 286 285
287 288 286 285 285 286 286 285 284 283 286 287 287 287 287 286 286 286 286 287 287 289 290 292 293 296 297 298 300 301 296 294 293 293 292 293 298 298 299 295 289 288 287
286 286 284 284 285 286 285 285 283 285 286 285 285 284 284 285 286 284 284 284 285 286 286 289 290 293 296 299 299 300 301 298 294 292 293 293 296 298 298 297 293 293 290
284 284 283 283 283 283 283 282 282 283 283 283 283 283 283 283 284 282 282 282 284 284 284 285 287 289 291 294 297 298 300 301 295 294 294 294 296 297 297 297 294 294 286
283 283 282 281 281 281 282 281 281 283 282 281 281 282 281 282 282 283 283 282 282 282 283 283 283 284 287 290 292 293 295 298 299 295 293 294 295 296 295 294 294 289 286
282 282 281 280 280 281 280 281 281 281 281 281 281 282 282 281 281 282 282 282 283 283 284 285 285 284 284 287 292 293 293 293 295 292 290 290 290 290 290 290 291 287 285
281 281 281 280 280 280 280 281 281 281 280 281 281 282 282 282 282 281 281 286 287 288 289 289 287 286 288 290 291 292 293 296 295 292 289 289 289 288 288 288 288 287 286

GFSMW_sfc_thetae_096.txt.gz
Theta_e
296 298 305 316 318 318 320 322 323 324 323 324 323 324 325 326 327 330 331 332 327 329 328 327 324 325 324 323 323 320 318 319 319 318 318 319 320 323 324 325 323 323 323
293 307 312 313 316 317 320 320 322 323 324 324 322 323 326 326 328 329 330 331 330 328 328 327 324 325 324 324 323 323 320 320 321 317 317 314 318 321 323 322 321 321 320
296 307 310 310 312 314 316 319 320 321 322 323 322 322 324 325 324 326 327 329 331 331 329 328 328 326 327 325 324 323 322 320 321 322 319 314 312 316 317 318 318 317 318
301 305 308 309 310 310 314 320 320 322 322 322 322 321 320 320 322 323 326 328 330 330 330 330 330 328 328 327 326 326 325 323 320 322 323 321 318 312 310 315 315 315 314
302 307 310 310 315 315 314 316 317 320 323 325 324 323 321 322 324 324 325 326 326 328 329 330 328 326 325 325 325 324 324 324 323 321 320 319 319 317 314 310 312 315 314
302 303 307 309 309 312 312 314 316 316 320 322 322 323 321 321 322 323 322 323 324 325 327 328 328 327 326 326 325 324 323 324 322 324 323 320 318 316 313 311 311 313 315
301 302 303 304 306 307 310 312 311 311 314 315 317 320 322 322 322 322 322 321 322 322 323 325 325 325 326 325 326 324 323 324 324 323 322 320 319 317 318 315 311 311 312
300 300 301 301 302 304 307 309 308 308 311 311 312 313 315 322 321 321 322 322 322 322 324 324 324 324 325 325 325 324 324 324 324 323 320 320 319 317 317 317 313 308 308
298 299 300 301 301 302 302 302 304 305 306 309 310 310 312 317 320 320 320 320 322 323 323 323 323 324 324 325 325 324 322 322 322 322 322 320 319 318 318 317 317 313 304
297 298 298 298 298 299 299 299 300 300 303 304 307 308 308 310 312 315 316 319 321 322 322 322 322 322 323 323 324 322 322 321 321 321 320 320 320 318 317 315 313 312 308
296 297 296 297 297 298 298 297 298 297 298 301 302 302 303 305 307 308 308 309 312 315 317 319 321 322 322 322 322 322 322 320 320 319 318 318 317 317 316 314 311 309 307
295 296 296 296 296 296 296 296 296 296 296 297 299 299 300 300 301 301 303 305 305 306 307 311 314 318 321 322 321 321 321 320 319 319 318 317 315 316 315 313 311 311 308
295 294 294 293 293 293 294 294 295 294 295 296 296 296 297 298 298 299 300 301 302 303 304 306 308 310 312 316 319 321 321 320 320 319 317 317 314 314 313 312 310 308 306
291 290 290 290 290 292 293 293 293 294 294 295 295 295 295 296 297 297 298 299 300 300 301 302 304 305 306 308 310 314 314 315 317 317 316 316 314 315 312 310 309 305 304
289 289 288 288 288 289 290 291 291 292 293 293 293 293 294 294 295 296 296 297 297 298 299 300 300 301 302 303 304 307 309 310 310 309 310 311 309 307 310 309 306 304 302
289 289 289 289 288 288 289 289 289 290 291 291 291 292 292 293 293 293 294 294 295 295 296 296 297 298 300 303 304 304 304 305 306 306 306 307 303 305 307 307 305 306 303
288 288 287 287 287 287 290 288 288 290 289 289 289 289 290 290 290 291 292 292 291 292 292 294 295 296 297 302 303 303 301 302 302 302 301 301 302 302 303 306 306 305 305
288 287 287 287 288 287 288 287 288 287 287 287 288 288 288 288 288 289 288 289 290 291 292 293 294 296 298 301 302 302 298 296 296 298 298 298 297 298 299 298 297 299 300
287 288 287 287 286 286 286 285 285 285 285 285 286 287 287 286 286 286 286 287 288 288 290 292 292 294 296 299 301 300 296 293 292 292 295 298 297 299 300 295 292 292 292
288 287 286 286 285 284 285 284 284 284 284 285 286 286 286 285 285 285 285 286 286 287 289 290 290 294 294 297 299 300 297 294 293 294 292 298 297 299 300 294 292 290 289
286 286 285 284 284 284 284 283 283 282 284 285 285 285 285 284 283 283 284 283 284 284 284 286 286 288 292 294 297 299 298 296 294 294 293 294 298 299 300 297 292 292 288
285 285 283 283 283 284 282 282 282 283 283 283 283 283 283 283 284 282 281 281 281 282 282 283 284 286 288 292 294 296 297 298 295 293 294 294 296 298 299 298 295 294 291
283 283 282 282 282 282 281 280 281 281 281 281 281 282 283 283 282 280 280 280 281 281 281 282 282 283 285 286 291 293 294 295 294 296 296 295 295 296 298 298 296 295 287
281 282 281 280 279 280 280 280 280 280 280 279 279 280 280 282 282 281 282 281 280 280 282 281 281 282 282 284 285 287 290 293 294 294 295 295 295 296 296 296 295 292 286
281 281 280 280 279 279 279 279 280 279 278 278 279 280 281 280 281 281 281 282 281 282 282 283 283 283 283 284 288 288 287 289 291 294 289 289 289 290 291 291 292 290 287
280 279 279 279 279 279 279 280 280 280 279 279 280 280 281 281 281 281 281 285 287 287 287 288 287 286 288 288 288 288 289 289 291 290 287 288 289 289 289 289 289 288 288

GFSMW_sfc_thetae_099.txt.gz
Theta_e
294 296 298 301 302 309 317 321 322 322 322 321 323 325 323 323 323 327 329 328 329 329 330 330 329 329 327 325 324 322 318 318 316 317 317 318 319 320 321 323 323 322 323
292 295 299 305 311 314 316 320 322 323 322 322 322 323 324 325 324 325 328 330 330 328 329 328 327 327 325 324 323 322 318 318 319 315 315 313 316 319 321 322 322 321 321
292 294 301 309 313 315 316 317 320 321 322 322 322 321 321 321 322 324 326 328 329 330 327 328 327 325 325 323 323 322 321 319 319 320 317 312 311 314 317 318 319 318 318
295 303 307 309 312 314 318 320 322 321 321 322 322 320 319 319 320 323 325 327 328 329 330 328 327 325 324 323 323 324 322 322 319 318 322 320 318 313 311 314 314 314 314
302 306 308 312 313 311 311 314 316 320 322 324 321 322 321 321 320 320 321 324 326 327 329 328 327 326 324 324 324 323 323 323 320 320 319 317 317 316 313 310 311 314 314
302 304 306 308 310 311 309 313 313 314 316 318 319 322 323 321 321 322 322 322 324 325 326 327 327 326 324 322 322 322 322 323 321 321 319 318 316 316 313 312 312 312 314
301 301 301 302 304 308 308 312 309 308 311 313 314 314 316 319 322 322 322 322 322 323 324 326 326 326 325 324 323 322 323 323 322 321 322 321 320 318 319 317 314 310 312
300 300 300 300 301 301 303 306 306 306 307 309 311 312 313 317 322 321 322 323 322 323 324 325 326 325 325 325 323 322 322 322 323 322 322 322 322 319 319 319 314 308 306
298 297 297 297 297 298 299 299 302 303 304 307 309 308 310 310 312 314 318 319 320 323 322 322 322 323 324 324 322 322 322 323 322 322 322 321 321 321 321 320 319 316 309
296 296 296 297 297 298 298 299 300 299 301 303 303 305 305 306 307 308 308 309 312 315 320 320 321 321 322 322 323 322 322 322 322 322 321 321 322 320 319 318 317 315 314
295 295 296 297 297 298 297 297 298 298 298 299 300 300 301 302 303 303 304 306 307 308 310 313 316 318 321 322 322 322 322 320 320 320 320 320 320 319 318 318 316 313 311
295 295 296 296 296 296 296 296 296 296 296 297 298 298 298 299 299 299 299 301 301 304 305 306 308 311 314 318 320 320 321 320 319 319 318 318 318 317 317 315 313 311 307
294 295 294 294 294 294 294 294 295 295 295 296 296 295 295 296 296 297 298 299 299 300 301 302 303 304 306 308 311 315 318 320 320 320 319 318 317 316 317 315 314 313 309
291 290 290 290 290 291 291 292 291 293 293 294 293 293 293 293 294 295 296 297 297 297 297 298 300 301 302 303 304 306 309 312 314 317 318 318 317 316 315 314 314 312 309
288 288 287 287 287 288 289 289 290 291 291 292 291 290 291 292 292 292 293 294 295 295 295 296 296 297 299 301 301 302 302 304 307 311 311 313 313 310 314 313 313 310 308
288 288 287 287 287 287 288 287 287 289 288 289 288 289 289 289 289 290 290 291 291 292 293 293 294 294 297 300 303 302 300 300 303 304 307 308 305 306 308 309 309 309 307
288 287 286 286 286 286 287 286 286 286 286 286 287 287 287 287 287 288 288 287 288 289 289 291 292 293 294 300 300 301 300 298 298 300 301 302 303 303 305 307 306 306 307
287 287 286 286 286 286 286 286 286 285 285 284 285 286 286 285 285 285 285 285 286 286 287 288 290 291 293 296 298 299 297 298 296 294 296 299 299 299 301 301 299 301 303
286 287 286 286 284 284 285 284 284 284 284 284 284 285 285 284 284 284 283 284 285 284 285 287 288 287 289 295 295 296 296 295 294 296 296 297 298 300 302 298 295 296 295
287 286 285 284 283 283 283 283 283 283 282 283 284 284 284 284 283 283 282 283 283 284 285 285 285 288 286 292 294 295 295 295 295 297 295 297 297 299 301 297 295 293 293
283 284 283 282 282 282 282 281 281 281 282 283 282 283 283 282 282 281 281 281 281 281 281 282 283 283 286 287 292 293 292 293 294 295 295 295 297 299 299 301 295 295 291
283 282 282 282 282 282 280 279 279 281 281 280 280 280 280 281 281 279 279 279 279 279 280 280 282 284 283 288 289 290 291 293 292 292 294 296 297 297 298 299 297 298 293
282 281 280 280 280 280 279 278 279 280 279 279 278 279 280 280 281 279 279 279 279 279 280 281 281 282 283 282 288 289 290 290 289 292 294 295 297 297 298 298 298 296 288
280 280 280 279 278 279 279 278 278 279 278 277 277 277 277 280 280 280 281 280 280 278 281 281 280 281 282 281 282 284 286 288 287 289 290 292 295 296 296 296 297 293 288
280 280 278 278 278 278 278 278 278 278 277 277 278 278 279 278 279 280 280 281 281 280 280 282 282 283 282 284 287 287 286 286 287 288 287 288 288 289 290 290 292 291 288
278 277 278 278 277 277 277 278 279 278 277 278 278 279 280 279 280 280 280 285 287 288 288 287 286 284 287 288 288 288 288 288 289 286 285 286 288 288 289 288 289 289 289

GFSMW_sfc_thetae_102.txt.gz
Theta_e
293 295 296 298 299 301 305 312 319 320 321 322 322 322 321 320 320 323 325 326 326 328 330 329 326 328 324 324 326 326 324 319 318 315 315 317 318 318 320 321 322 322 323
290 294 296 297 298 300 306 313 319 321 321 321 320 321 321 322 322 323 326 327 327 327 327 329 329 328 327 326 325 325 322 322 319 315 314 311 314 318 320 321 322 322 322
291 292 295 298 303 308 312 315 319 321 321 320 321 320 320 322 321 323 323 324 327 328 328 328 328 327 327 325 325 324 323 319 318 320 315 310 309 312 317 318 321 320 319
293 294 302 306 309 313 317 318 318 320 320 323 322 320 318 318 319 320 322 324 326 327 328 327 327 327 326 325 325 324 323 321 317 316 318 317 316 312 310 314 314 316 317
302 301 307 310 311 312 313 316 320 319 321 323 322 321 320 321 321 320 319 320 322 325 326 328 327 326 325 325 325 323 322 322 321 318 316 316 316 315 312 310 311 313 313
302 302 304 306 307 311 311 310 313 313 314 319 318 317 317 319 320 320 320 322 321 323 325 326 327 327 327 325 324 324 323 322 322 320 319 318 317 316 313 310 311 311 312
300 300 300 300 301 303 306 309 307 307 310 310 312 313 312 314 318 321 321 322 322 322 323 325 324 325 325 325 324 323 322 321 321 320 319 319 319 318 317 315 312 311 314
297 297 297 298 299 300 301 302 304 304 307 309 309 310 311 312 313 313 319 320 319 321 324 325 325 325 326 325 324 323 323 323 323 323 322 322 321 320 319 317 315 311 309
296 296 296 297 297 298 298 299 300 301 302 303 306 305 306 307 308 309 310 310 311 313 315 321 322 322 324 325 324 323 321 322 321 322 321 321 321 321 321 320 320 316 311
295 296 296 296 297 297 298 298 299 299 300 301 301 302 303 303 303 304 304 305 307 308 309 311 314 317 320 322 322 322 322 321 321 321 320 321 322 321 321 320 320 319 316
295 296 296 296 297 297 297 297 297 297 298 299 299 298 299 300 300 299 300 301 302 303 304 306 308 310 312 315 319 321 321 320 320 320 320 320 321 321 320 319 319 317 316
295 295 296 296 295 295 295 295 296 295 296 297 296 295 296 296 297 297 298 298 298 299 300 301 303 304 305 307 309 311 315 319 319 319 319 319 319 319 319 318 317 316 315
295 295 294 293 293 293 293 293 294 294 295 295 294 293 293 293 293 294 296 296 296 296 297 298 298 299 300 302 303 305 306 309 311 316 318 318 318 317 317 317 315 313 310
293 292 290 290 290 291 291 291 292 292 293 293 291 290 290 290 291 292 292 293 294 293 294 295 295 296 297 299 300 301 301 302 304 307 310 313 316 317 317 316 316 314 311
287 287 286 286 286 287 288 288 288 289 289 290 289 287 289 289 289 289 289 289 290 290 292 292 293 294 295 297 298 299 299 299 300 302 304 308 308 305 309 314 315 314 312
287 287 286 285 285 285 286 286 285 286 286 285 286 287 287 287 286 286 287 287 287 288 288 288 290 291 293 296 297 298 297 298 298 298 300 302 303 305 307 307 307 311 311
288 287 285 286 285 285 286 284 284 284 284 283 284 285 285 285 284 285 284 284 284 285 285 286 287 289 290 294 295 295 296 296 296 296 296 298 300 301 302 304 306 306 307
287 286 286 285 285 284 285 284 284 283 283 283 283 284 284 284 284 284 283 282 283 283 283 284 286 287 288 292 293 295 293 294 294 293 294 296 297 298 299 300 299 302 305
287 286 286 285 283 282 283 283 283 283 283 282 282 282 283 282 282 282 282 282 282 282 282 284 284 283 284 290 292 291 289 291 292 294 294 294 295 299 301 299 296 298 299
286 285 284 283 282 282 282 282 281 281 281 281 281 282 282 281 280 280 279 280 281 281 282 282 283 285 283 288 291 290 287 287 289 293 293 296 296 299 300 297 297 295 295
284 284 282 281 281 281 280 280 280 279 281 281 281 280 280 279 279 279 279 279 280 280 279 280 281 281 283 283 290 290 286 286 286 288 291 293 296 297 298 299 297 296 296
282 281 280 280 280 280 279 278 277 279 279 279 279 278 278 279 280 277 277 277 277 277 278 279 280 281 282 286 288 289 289 289 286 286 288 291 293 294 296 297 299 299 297
280 280 279 279 279 278 277 276 277 277 277 277 277 277 278 278 279 277 278 278 278 277 278 280 280 281 282 282 287 288 288 288 286 286 287 289 290 292 293 296 298 299 291
279 279 278 277 276 276 277 276 277 277 277 276 276 277 276 278 278 278 279 278 278 278 280 280 280 279 281 281 282 282 286 288 287 287 286 288 289 290 291 293 295 295 290
279 279 277 277 277 277 277 278 278 278 277 277 277 277 278 277 277 279 278 280 280 280 282 282 282 282 281 282 286 287 285 286 286 287 285 285 284 284 288 289 291 292 289
278 278 278 278 278 278 278 278 278 278 277 278 278 278 279 278 278 278 279 283 285 286 287 287 286 285 286 288 287 288 288 288 288 284 283 283 284 285 286 287 288 289 289

GFSMW_sfc_thetae_105.txt.gz
Theta_e
298 299 298 301 302 303 303 306 310 317 324 324 325 324 323 325 327 328 328 329 329 331 333 332 331 332 330 329 330 331 327 324 323 322 321 322 323 323 324 324 324 325 327
295 296 298 300 301 302 303 305 310 321 324 326 324 326 326 327 327 328 328 329 329 330 331 332 330 330 330 328 327 327 325 325 321 319 317 315 319 321 323 325 324 324 327
297 298 297 299 302 302 306 307 311 320 322 325 325 324 325 326 325 326 327 328 329 331 330 330 332 332 330 330 327 325 323 321 322 322 318 313 313 318 322 323 325 325 326
302 303 305 306 308 310 313 317 318 322 323 324 324 322 320 319 323 325 327 327 329 329 331 331 330 331 330 329 326 326 324 323 318 318 321 322 320 315 314 319 320 323 324
302 302 304 306 309 311 314 319 321 322 323 323 323 322 319 321 323 323 323 324 326 328 329 330 330 330 330 330 329 325 324 324 322 320 318 318 319 322 319 317 319 318 320
300 300 302 303 303 306 310 311 314 314 316 317 317 316 316 316 320 322 321 323 325 326 326 327 329 330 329 328 327 326 326 324 323 322 320 318 317 318 319 316 318 317 321
298 297 298 300 301 302 304 306 308 309 311 312 312 312 312 313 313 313 320 321 323 323 324 325 325 326 328 328 327 326 325 324 322 321 321 321 320 323 321 320 318 317 319
296 296 297 297 298 300 301 302 303 303 306 307 307 307 308 308 307 308 309 310 310 312 314 315 321 324 325 325 325 325 324 324 323 322 322 322 321 321 320 321 319 315 313
295 295 296 296 297 297 298 299 300 301 302 301 302 303 304 303 302 303 304 306 307 309 310 311 312 314 316 318 323 324 323 323 322 323 323 322 323 322 322 321 321 318 312
295 296 296 296 297 297 297 298 298 298 299 299 299 300 300 301 301 301 300 301 302 303 304 306 308 309 310 310 313 318 321 321 322 322 322 322 322 322 323 322 322 321 316
295 295 296 296 296 296 296 297 297 297 297 297 296 296 297 298 299 298 298 298 299 299 300 301 302 303 304 306 307 309 311 312 318 320 320 320 321 320 321 322 321 319 318
295 295 295 295 294 294 294 295 295 295 295 294 293 293 293 293 294 294 295 296 295 296 296 297 297 298 300 302 303 303 305 305 307 309 314 318 318 319 320 320 318 318 319
295 295 294 292 292 293 292 293 293 293 294 293 291 291 291 291 291 291 292 293 293 293 294 295 295 295 296 298 300 301 301 302 303 304 306 308 310 315 318 318 317 317 316
294 293 291 291 291 292 290 291 291 291 292 291 290 289 289 289 290 290 290 290 291 291 291 292 292 294 295 296 297 298 299 300 301 302 303 305 307 308 308 311 316 316 314
289 289 289 289 288 289 289 289 289 289 289 289 289 288 289 289 288 288 288 288 289 290 290 290 290 291 293 293 295 295 295 296 297 299 300 302 302 301 304 306 307 311 312
289 289 289 288 288 287 288 287 287 287 287 286 286 287 287 287 287 287 287 287 287 288 288 288 288 289 290 293 294 294 293 293 294 294 297 299 299 301 303 304 304 305 305
289 289 288 288 288 287 288 287 286 286 286 285 285 285 285 285 285 286 285 285 285 286 286 286 287 287 288 291 293 293 293 292 292 293 294 295 297 298 299 301 302 303 305
289 288 288 288 287 287 286 286 286 285 285 284 284 284 284 284 284 284 284 284 285 285 285 286 286 287 288 290 291 292 291 291 291 293 293 294 294 296 297 298 299 300 302
289 288 288 287 285 284 285 285 284 284 284 283 283 283 283 283 283 283 283 283 283 284 284 285 285 285 286 289 290 290 290 289 289 290 291 292 294 295 296 296 296 297 299
288 287 286 285 284 283 283 283 282 282 282 283 283 283 283 282 282 282 282 283 283 282 284 283 284 285 286 287 289 290 289 287 287 288 289 291 293 295 296 295 294 293 296
286 285 284 283 283 282 282 281 281 280 282 282 282 282 282 281 281 281 281 281 281 281 281 282 283 283 285 286 289 290 288 287 286 286 286 288 290 291 292 293 293 294 297
284 283 282 282 282 282 280 280 279 280 280 280 280 280 280 280 281 280 280 280 280 280 280 280 281 284 285 286 288 289 289 289 286 285 286 286 288 289 289 290 292 294 296
282 281 281 280 280 280 279 278 279 279 279 279 279 279 280 280 280 280 280 280 280 280 280 281 281 282 285 285 287 288 288 289 287 287 287 288 288 288 288 289 290 292 292
281 281 280 279 278 278 278 278 279 279 279 278 278 279 279 281 280 281 281 280 280 279 280 281 282 283 283 284 285 285 286 288 288 288 287 288 288 288 287 287 289 291 291
280 280 279 278 278 278 279 279 279 279 278 278 279 279 279 279 279 280 280 280 282 282 282 282 283 283 283 285 287 287 286 287 287 288 286 285 285 284 285 286 288 289 289
279 279 279 279 278 278 278 279 279 279 278 278 279 279 279 279 279 279 279 283 284 285 285 285 285 285 287 288 288 288 288 288 288 286 283 282 282 283 283 283 285 286 287

GFSMW_sfc_thetae_108.txt.gz
Theta_e
306 308 308 306 306 306 307 307 308 309 310 318 322 324 324 329 330 332 334 332 329 331 332 333 333 332 331 332 332 331 331 329 332 325 324 324 326 326 327 328 325 327 328
305 307 310 310 306 306 307 308 309 310 311 321 324 328 328 328 331 334 333 333 331 333 332 331 332 333 331 330 329 330 328 328 331 326 324 318 320 322 324 325 324 325 327
301 306 306 310 313 311 309 308 309 311 312 320 326 327 329 331 329 330 331 331 332 332 332 332 332 332 332 329 330 331 330 326 328 328 322 315 313 318 321 322 324 325 326
303 305 305 306 310 312 315 317 314 316 315 323 325 323 326 324 326 328 331 331 332 332 332 332 331 331 331 331 332 333 330 328 322 325 324 321 321 315 313 320 324 325 325
301 300 303 304 306 307 312 319 319 319 322 322 321 324 322 324 324 324 323 327 329 330 331 331 330 330 331 331 331 331 330 329 322 320 320 320 319 318 316 312 318 322 324
298 298 301 302 303 306 308 312 314 315 317 316 316 317 317 319 318 318 321 323 325 328 328 328 328 330 330 330 331 330 328 328 325 323 321 319 315 315 314 313 317 317 324
297 296 297 298 300 301 303 305 306 306 310 311 311 313 311 311 309 310 311 311 311 312 313 315 320 324 326 328 328 327 326 326 326 326 323 323 321 322 318 316 314 315 322
296 296 296 296 297 299 302 303 302 302 304 305 306 307 307 307 305 305 306 306 307 308 309 310 312 314 316 317 318 322 325 326 325 324 324 323 323 322 321 318 316 314 318
295 295 296 296 296 297 298 300 300 300 301 302 302 303 304 302 302 302 303 303 303 304 305 306 307 308 310 310 312 314 316 321 323 323 323 323 323 322 322 321 320 316 311
295 296 295 295 296 297 297 298 298 297 297 297 298 299 299 300 300 299 299 299 299 300 301 301 302 303 304 306 307 308 309 310 312 316 320 322 322 322 322 321 321 320 316
295 295 295 295 295 296 296 297 296 295 295 294 294 294 294 296 296 297 296 296 297 297 297 298 298 299 300 303 303 304 305 305 306 308 309 310 316 321 321 321 321 320 319
295 295 295 295 294 293 294 294 295 294 293 293 292 292 292 291 292 292 292 293 293 293 294 294 295 295 296 298 299 300 302 302 302 303 305 305 308 309 315 319 319 319 319
296 296 295 293 293 292 292 293 292 293 293 293 292 291 291 291 290 290 291 291 292 292 293 293 293 293 295 296 296 296 297 298 299 300 301 303 305 306 307 307 307 315 317
298 297 296 295 295 294 293 292 292 292 293 292 291 290 290 290 290 291 291 290 291 291 291 291 291 292 292 293 294 295 295 296 296 298 299 300 301 301 302 304 305 307 307
295 295 295 295 294 294 294 292 291 291 291 291 290 290 291 291 290 290 290 289 290 290 290 290 290 290 291 291 292 293 293 294 294 295 296 298 298 298 301 301 303 304 304
295 295 295 294 294 293 293 291 291 291 291 290 289 289 289 288 288 288 287 287 287 287 288 288 288 288 289 291 292 292 291 292 291 292 293 294 296 297 298 299 300 301 301
296 295 295 295 294 293 292 291 291 291 290 289 288 287 287 287 287 287 287 287 287 287 287 288 288 288 289 290 292 292 291 291 291 291 291 292 293 296 295 297 297 298 300
296 296 296 295 294 292 291 291 290 289 288 288 287 287 286 286 287 287 286 287 287 287 287 287 287 288 288 290 291 291 291 291 291 291 291 291 291 293 294 294 294 295 296
298 298 297 295 292 290 290 289 288 288 287 286 286 286 286 286 286 285 286 286 286 286 286 286 286 286 287 289 290 290 290 289 289 290 290 290 290 292 292 291 292 292 293
297 295 294 292 290 289 289 287 286 286 285 285 285 286 286 285 285 285 285 285 285 285 286 285 286 287 287 288 289 290 289 288 288 289 289 290 289 290 290 289 288 288 289
294 293 291 290 289 288 287 286 285 285 285 285 285 285 285 284 284 284 285 285 284 284 285 285 286 286 288 288 289 289 288 287 287 287 287 288 289 289 289 289 287 287 289
290 290 289 288 287 287 286 285 284 284 284 284 284 284 284 284 284 284 284 284 284 283 284 284 285 286 287 288 288 289 289 289 287 286 287 288 288 289 289 289 289 289 289
289 287 287 286 285 284 284 283 283 283 283 283 283 283 283 283 284 283 283 283 283 283 283 283 283 284 286 287 288 288 288 288 288 288 289 289 289 289 289 288 288 288 287
286 285 285 284 283 282 282 282 282 283 282 282 282 283 282 283 283 283 283 282 283 282 282 282 282 283 284 285 287 287 288 288 288 288 289 289 289 288 288 287 288 288 289
285 284 283 283 282 282 282 282 282 282 281 281 282 282 282 282 282 282 282 282 283 283 282 283 283 282 282 285 287 287 287 288 288 288 288 287 287 285 285 285 286 287 288
284 283 283 282 282 282 281 281 282 282 281 281 281 281 281 282 281 282 282 284 284 285 284 285 284 284 285 286 287 288 288 288 288 286 285 285 284 284 284 284 284 285 285

GFSMW_sfc_thetae_111.txt.gz
Theta_e
308 309 310 311 312 313 309 308 308 309 310 311 311 319 325 328 333 336 334 333 333 333 333 331 331 332 331 331 332 332 331 330 332 329 328 330 331 329 328 328 327 325 324
305 306 308 310 310 311 314 311 309 309 310 312 313 321 324 326 328 331 333 333 333 333 332 331 331 333 332 330 330 330 328 329 330 324 323 318 322 324 327 328 328 325 324
301 304 305 305 307 308 311 312 314 310 311 312 316 323 326 326 326 329 332 332 333 333 333 332 332 330 332 330 330 329 327 324 328 328 324 317 314 319 325 324 325 325 324
302 303 302 302 305 306 310 313 316 315 313 316 314 320 321 323 328 328 329 331 331 330 331 333 332 331 331 329 329 331 330 328 325 327 328 327 323 315 314 321 323 324 323
300 300 300 300 302 304 307 310 316 317 317 317 319 321 320 322 322 325 326 327 327 329 328 330 330 330 330 329 330 329 330 330 327 325 325 324 324 321 315 312 317 324 324
299 300 301 301 300 302 305 307 310 311 316 317 316 315 314 312 312 315 319 318 317 315 315 318 321 327 327 326 327 328 328 328 327 327 325 321 318 316 315 312 313 314 319
297 297 297 298 298 298 302 304 305 306 309 310 309 309 309 310 309 310 310 311 311 310 310 312 314 315 316 316 318 321 325 326 324 324 324 324 321 321 319 315 313 312 316
297 296 296 297 297 297 299 301 302 303 305 306 305 305 305 305 305 305 306 305 305 305 306 308 309 309 310 311 312 316 315 315 322 324 325 324 324 323 322 319 316 312 313
296 296 296 296 296 297 297 299 298 298 299 301 302 302 303 301 300 300 301 300 301 301 302 303 303 304 305 307 308 309 308 309 312 313 311 316 323 324 323 322 320 316 310
296 296 296 295 296 296 297 297 296 295 295 295 295 296 296 297 298 298 296 296 297 298 298 299 299 300 301 303 304 305 305 305 306 307 307 309 310 312 315 321 321 320 317
295 295 295 296 295 295 295 295 295 293 294 293 292 292 293 293 293 293 294 294 295 294 294 295 296 296 296 298 299 299 301 301 302 303 304 305 307 307 309 310 313 318 318
296 296 295 295 294 294 294 293 294 293 292 292 292 292 292 292 291 291 291 292 292 293 293 293 293 293 294 296 296 295 296 297 297 298 300 301 303 304 306 304 304 306 307
298 298 297 295 295 294 293 294 293 293 293 293 293 292 292 291 291 291 291 291 291 291 291 291 291 291 292 293 293 294 294 295 296 297 297 298 300 300 299 300 303 304 306
299 299 299 298 297 296 294 293 292 292 293 292 292 291 291 291 291 291 290 289 289 289 289 290 289 290 290 291 291 292 292 293 294 295 295 295 296 295 297 298 299 301 301
299 299 298 298 297 296 295 294 293 292 292 291 291 290 290 290 289 289 288 288 288 288 289 289 289 289 289 289 290 291 290 290 291 292 292 294 295 296 298 296 297 297 296
299 298 298 298 297 296 295 293 292 292 292 291 290 290 289 288 288 288 288 288 288 288 288 288 288 288 288 292 291 291 290 290 290 290 291 292 293 294 295 297 298 297 294
300 298 298 298 298 296 295 293 292 292 291 290 289 288 288 287 288 288 287 287 287 287 287 287 287 287 288 291 291 291 290 289 290 290 290 290 291 293 291 293 295 295 297
300 299 299 299 298 296 293 293 292 290 289 289 288 288 287 287 287 287 287 287 287 286 286 287 287 287 287 290 290 291 290 289 290 290 290 289 289 290 291 290 289 290 291
301 301 301 299 298 294 293 292 290 289 289 288 287 287 287 286 286 285 285 286 286 286 286 286 286 286 287 289 289 289 289 289 289 289 290 289 289 290 291 288 287 287 288
300 299 299 297 295 293 291 289 289 288 287 286 286 286 286 285 285 285 285 286 286 285 286 286 287 287 287 289 289 289 288 287 287 288 288 291 289 290 290 287 286 284 285
298 298 296 293 293 291 289 288 287 286 286 286 286 285 285 284 285 285 285 285 285 285 285 285 286 286 287 287 289 289 288 287 286 286 287 288 290 290 290 290 287 286 288
295 295 293 291 290 289 287 286 285 285 285 285 284 284 284 284 284 284 285 285 284 284 284 284 284 286 286 288 289 289 289 289 286 286 287 288 290 290 290 290 290 289 289
293 292 291 289 288 287 286 284 284 284 284 283 283 283 284 284 284 283 283 283 283 283 283 282 283 283 285 286 288 289 289 289 287 287 288 290 289 290 289 289 289 288 286
291 290 289 287 286 285 284 284 284 284 283 282 282 283 283 283 283 283 283 283 282 282 281 281 282 282 283 284 285 286 286 288 288 288 288 288 289 289 288 288 287 286 285
290 288 287 286 285 284 284 284 283 283 282 282 282 282 283 282 282 283 283 282 283 283 282 282 282 281 281 283 285 285 285 285 287 287 286 285 285 284 285 285 285 285 284
288 286 286 285 284 283 283 283 283 283 282 281 282 282 282 282 282 282 282 285 285 285 285 285 284 283 285 285 286 286 287 287 287 284 283 283 283 283 282 282 282 283 284

GFSMW_sfc_thetae_114.txt.gz
Theta_e
303 305 307 306 306 307 307 308 310 308 305 304 303 303 305 321 324 327 331 329 330 330 328 328 329 326 326 326 329 328 327 327 329 325 325 327 330 328 326 325 325 324 323
300 303 304 303 304 305 306 307 309 310 310 305 306 306 312 318 321 325 328 329 330 331 329 329 326 326 327 326 327 326 325 326 328 322 322 317 321 327 328 328 326 324 323
297 300 301 301 301 302 303 306 308 311 314 307 307 309 313 317 318 321 325 327 329 329 330 327 326 326 326 325 325 326 326 323 324 326 321 315 313 316 321 324 325 325 324
298 300 300 300 300 301 304 307 309 313 315 311 307 306 309 311 315 318 324 327 329 329 329 329 327 325 325 324 324 327 326 324 322 325 326 324 321 313 309 315 320 323 323
297 298 299 300 301 301 303 306 307 310 310 313 311 310 308 310 314 313 317 320 319 320 321 322 325 325 324 322 323 325 323 325 322 321 320 321 322 319 315 312 313 315 320
297 299 299 300 299 300 301 304 304 305 308 309 309 308 309 310 310 309 310 312 312 312 314 317 317 318 317 317 319 322 322 322 323 322 321 320 317 317 316 315 315 314 318
297 297 297 297 297 297 298 302 300 301 304 305 304 304 303 304 304 305 303 304 305 305 306 308 309 309 311 312 312 316 315 313 317 320 321 322 322 322 319 317 315 314 316
296 297 296 297 297 297 297 296 298 297 299 301 302 302 301 300 300 299 299 299 300 301 302 303 304 305 306 307 309 310 309 309 310 311 311 312 317 321 321 319 316 313 314
296 296 296 296 296 297 296 295 295 294 294 294 296 296 298 298 297 296 297 297 297 298 299 299 300 301 303 304 305 306 305 306 307 308 307 308 310 310 311 312 313 316 310
296 296 296 296 296 296 296 296 295 294 293 293 292 292 293 294 294 295 294 294 293 294 294 295 297 297 298 300 301 301 302 302 303 304 304 304 306 307 308 309 308 308 307
296 296 296 296 296 295 295 294 294 293 293 292 292 291 291 292 291 291 291 292 293 293 293 293 294 294 295 297 297 297 298 297 298 299 299 300 303 303 305 303 304 305 305
296 297 297 296 295 294 294 293 293 293 293 292 291 291 291 291 291 290 290 290 289 290 289 288 289 290 291 293 293 293 294 295 295 295 296 297 299 300 299 300 301 302 304
295 296 295 293 293 292 291 292 291 291 291 291 290 290 290 288 287 288 289 288 288 288 288 288 288 288 289 289 290 291 290 291 292 293 294 294 295 295 294 297 296 299 299
296 296 295 294 292 292 290 289 288 288 289 289 288 287 286 286 286 286 286 285 286 286 286 286 288 288 288 289 290 290 290 290 290 292 292 292 293 292 292 295 294 296 295
296 295 295 294 292 291 291 290 288 288 288 287 286 285 285 285 285 285 285 286 287 286 286 287 287 287 287 288 289 289 289 288 288 290 291 291 292 294 294 292 293 294 292
296 296 296 294 293 291 291 290 289 288 288 286 285 286 285 284 284 284 284 284 284 284 284 284 284 284 287 290 291 290 288 288 288 288 289 290 292 292 293 294 294 292 290
296 296 295 294 293 292 291 289 289 288 287 286 286 285 284 284 284 284 283 283 282 282 282 283 283 283 284 290 291 291 288 287 287 287 288 288 289 290 289 290 290 291 292
297 297 294 294 294 292 290 289 289 287 286 285 285 285 284 284 284 283 282 281 282 281 282 282 283 283 285 290 290 290 287 286 286 287 287 286 286 287 288 287 285 286 287
296 296 295 294 292 290 289 289 288 287 287 286 284 284 284 283 282 281 281 281 281 281 281 283 282 282 283 289 290 288 285 285 285 286 286 286 286 289 290 286 284 284 285
295 294 294 293 290 288 287 286 285 285 284 284 284 285 285 284 283 282 281 282 282 283 284 283 284 286 284 288 289 288 286 284 285 285 286 289 288 290 290 286 284 283 283
293 294 292 290 288 286 286 284 284 282 283 283 283 283 283 281 282 281 282 282 282 283 283 283 282 282 284 284 289 289 286 284 284 284 284 285 289 290 290 290 287 285 288
292 292 289 287 285 285 284 283 282 282 282 282 281 281 280 281 282 279 280 280 280 280 280 280 281 282 283 287 287 288 289 288 285 284 285 284 289 290 290 289 290 290 289
290 290 287 285 284 284 283 281 281 281 281 280 279 279 279 280 280 279 278 278 279 279 279 279 279 280 282 282 286 287 287 287 285 285 286 289 290 290 289 289 289 289 282
288 287 286 284 282 282 281 280 280 281 279 278 278 278 278 279 279 280 280 279 278 277 279 279 279 279 280 281 281 283 283 285 285 285 284 287 288 288 287 286 286 283 282
287 286 284 283 282 281 280 280 280 279 278 278 278 278 279 278 278 279 279 279 280 280 279 280 281 280 279 281 285 285 283 284 285 285 284 281 281 281 282 283 282 282 280
285 284 283 282 281 281 280 280 280 279 278 277 278 278 279 278 278 278 279 284 285 286 286 286 284 283 285 286 286 286 286 286 286 283 281 281 280 280 280 281 279 279 281

GFSMW_sfc_thetae_117.txt.gz
Theta_e
300 303 303 303 303 303 304 304 305 307 309 309 307 301 301 304 309 321 325 326 326 325 326 326 325 325 323 323 324 325 322 322 327 325 324 326 328 328 327 325 322 321 321
297 300 301 301 300 300 301 303 305 307 310 312 313 305 303 308 315 319 320 322 325 326 327 327 325 324 321 322 324 326 325 325 327 322 321 317 320 325 328 328 328 325 325
295 297 299 299 299 299 300 303 305 307 309 310 312 308 307 310 313 313 315 318 322 324 326 327 327 324 323 323 323 324 324 320 321 325 320 314 312 317 323 325 326 326 326
295 297 298 298 298 298 300 301 304 307 308 309 308 307 304 305 308 310 312 317 316 316 317 324 326 325 325 321 322 322 321 319 317 320 324 323 319 312 310 317 321 324 324
295 296 296 298 299 298 298 300 302 304 306 307 307 307 308 308 309 309 311 312 311 311 310 313 321 325 324 323 322 321 321 321 322 321 317 320 321 321 317 314 315 315 319
295 297 298 298 298 298 299 297 298 299 303 305 304 303 304 304 303 304 304 307 305 305 305 307 311 312 315 315 317 319 317 317 321 321 319 319 317 316 316 315 316 316 318
293 297 296 296 297 298 298 297 296 295 297 300 301 301 301 299 298 298 298 300 299 298 299 302 304 306 307 310 312 311 310 311 311 311 311 313 316 317 319 317 316 315 317
293 294 296 295 296 297 297 296 295 294 294 294 296 298 299 297 296 296 297 295 297 296 298 299 299 302 303 305 307 306 307 308 307 306 307 308 309 309 310 310 309 311 314
295 296 294 294 296 293 296 295 294 294 293 293 293 293 294 295 295 295 296 295 295 295 296 297 297 298 299 300 300 302 301 304 305 304 304 304 305 306 307 308 306 304 304
294 295 294 295 295 296 295 296 295 293 293 293 292 292 292 292 292 292 291 292 292 293 293 294 294 295 296 298 297 296 297 296 299 300 300 302 303 303 305 302 303 304 302
293 294 296 296 295 296 295 294 294 293 293 292 292 291 291 291 291 290 290 288 289 290 290 290 290 290 291 293 293 293 294 295 296 296 297 297 298 301 298 298 301 300 301
294 295 295 295 294 293 295 292 290 291 290 291 289 288 289 289 289 288 288 288 288 289 289 289 287 288 288 288 289 289 290 290 290 292 294 294 295 296 294 296 296 297 298
293 294 294 293 292 292 290 290 290 289 288 288 286 285 285 284 283 283 284 284 284 284 285 286 286 286 286 287 288 288 289 289 289 290 290 291 292 291 292 294 293 295 295
294 295 294 294 294 292 291 289 287 287 287 287 286 284 283 283 282 283 283 283 284 283 284 284 285 285 286 287 288 288 287 287 288 290 291 291 290 289 290 292 292 294 293
294 295 295 294 293 292 289 288 287 287 287 286 285 284 283 283 283 282 283 283 283 283 283 283 284 284 285 287 287 288 288 288 288 288 289 290 291 293 291 291 290 289 288
295 296 296 294 291 290 289 288 287 287 287 286 285 285 284 283 283 282 282 282 282 281 282 282 282 282 286 289 291 289 286 287 286 286 287 289 291 291 291 291 291 289 287
295 295 295 294 292 290 290 288 287 287 286 285 285 284 284 284 284 283 283 282 281 281 280 281 282 281 282 290 291 291 286 285 285 286 286 286 288 289 287 289 289 289 289
295 295 295 293 292 291 289 288 287 286 285 284 284 284 283 282 283 282 281 281 282 282 282 282 282 281 283 289 290 291 285 285 285 285 285 284 285 286 287 286 285 285 286
294 295 294 292 290 288 288 288 287 285 285 284 283 283 283 282 281 280 279 280 280 280 281 282 283 283 284 289 290 288 285 284 284 285 285 286 285 289 291 285 284 283 284
293 293 292 290 288 286 287 286 285 284 283 283 283 283 282 281 280 279 279 279 280 281 282 282 282 285 282 287 289 288 285 284 285 286 286 289 287 290 290 286 285 282 283
292 291 290 289 287 286 286 284 283 282 283 283 282 282 281 280 279 279 279 279 279 279 278 279 279 280 282 282 288 288 284 283 284 285 284 285 288 289 290 290 287 285 286
292 290 288 286 285 285 284 283 282 282 282 281 281 280 279 280 280 277 278 278 277 277 277 277 278 279 280 285 285 287 287 287 283 282 283 284 288 289 289 289 290 290 289
290 289 286 284 283 283 283 282 281 280 280 279 278 278 278 279 279 277 277 277 277 277 277 278 277 278 280 280 285 286 286 286 284 284 285 287 287 288 287 288 288 288 282
289 288 285 283 282 282 281 280 279 280 279 277 276 277 277 278 277 278 279 277 277 276 278 278 278 278 279 279 280 281 282 285 284 284 283 285 287 287 286 285 284 283 282
288 286 284 283 282 280 280 279 279 279 277 277 277 277 278 276 277 278 277 279 278 279 279 280 281 279 279 281 285 285 283 284 284 284 282 281 280 280 280 281 282 282 280
285 284 283 282 282 280 279 279 279 278 277 277 277 277 278 277 277 277 277 282 284 285 285 286 284 283 285 286 286 285 285 285 286 282 280 278 279 280 280 279 280 280 281